GFSSGP_sfc_thetae_000.txt.gz
Theta_e
339 340 342 335 318 314 309 310 313 311 311 313 313 311 309 310 306 303 326 331 332 332 339 343 354 352 350 350 350 350 350 347 341 338 337 336 334 334 334 335 336 338 339 340 341 339 340 342 342
340 339 336 328 313 307 310 312 310 313 313 313 312 310 309 307 313 316 321 331 332 331 338 337 354 355 354 353 351 350 349 347 343 340 338 337 336 334 334 335 336 337 338 339 340 340 340 342 342
337 335 326 320 313 307 308 312 312 313 313 313 311 313 311 311 316 319 326 330 330 330 331 335 350 355 355 352 349 349 347 345 343 341 340 339 338 337 335 335 336 337 338 339 340 341 340 341 343
333 331 325 313 309 311 310 313 314 312 312 313 312 308 315 320 319 323 326 327 326 325 327 334 340 346 350 351 350 350 346 344 342 340 340 339 339 338 337 335 336 336 336 337 339 339 341 342 343
332 324 314 311 310 312 314 315 313 312 312 312 311 309 312 319 323 324 323 323 324 325 328 330 342 344 347 348 346 345 344 343 340 339 338 339 339 338 337 336 336 335 335 335 336 339 340 341 345
321 321 310 307 309 313 315 315 313 312 313 311 309 310 313 322 322 323 324 326 327 326 332 333 339 343 341 344 342 339 337 336 336 336 336 336 336 336 336 336 336 335 335 334 335 337 339 340 343
318 315 310 310 309 311 312 314 311 311 311 311 313 308 315 318 322 323 323 324 325 327 326 328 330 331 332 328 329 331 331 332 333 333 333 334 334 335 336 335 336 335 334 335 334 335 339 339 340
320 316 310 311 309 309 314 312 313 311 311 314 315 308 311 320 322 322 321 321 322 323 323 325 328 327 330 331 328 329 330 330 330 331 331 332 333 333 334 334 334 334 334 334 333 334 337 338 339
322 310 307 309 310 312 317 313 314 314 312 312 314 314 316 319 320 319 320 320 322 322 322 326 326 329 330 330 329 330 330 329 328 329 329 329 331 332 334 333 333 333 333 334 333 333 337 338 338
315 308 308 313 315 314 316 315 315 310 310 311 312 315 315 317 318 317 317 318 318 319 321 323 328 330 329 328 332 333 331 328 326 327 327 328 330 332 330 330 331 333 333 333 333 334 337 338 339
314 308 312 313 316 316 314 314 315 311 310 313 312 315 315 316 318 318 317 317 318 321 321 322 328 330 330 330 330 330 328 328 327 328 331 328 329 332 332 329 329 332 332 333 334 333 335 337 339
310 312 313 314 316 314 312 314 311 311 313 315 315 316 317 316 317 317 317 317 320 319 321 326 329 331 332 331 330 328 328 328 327 329 328 330 329 330 330 330 327 332 333 334 335 332 336 339 340
311 312 314 316 315 313 313 311 310 311 314 315 315 316 316 317 318 318 319 321 321 319 326 329 330 332 333 332 330 330 330 330 330 330 330 331 329 328 328 328 328 329 331 333 335 334 335 339 339
313 313 313 314 313 311 309 310 309 313 314 314 314 315 316 316 317 318 319 320 321 321 328 328 330 333 333 333 332 332 332 331 330 329 329 331 330 330 331 327 328 332 332 331 334 334 335 337 338
314 309 312 311 311 310 310 307 307 314 314 312 313 315 315 317 317 318 319 321 321 324 328 327 329 331 333 334 333 333 332 332 330 330 332 332 333 333 331 328 326 328 334 335 334 336 337 336 336
309 310 305 311 310 309 308 302 310 314 312 312 313 314 314 316 317 318 321 322 323 326 324 328 329 332 333 334 334 333 334 334 334 334 333 333 333 333 333 333 333 335 335 335 333 332 332 332 333
308 302 305 307 312 309 308 306 311 314 313 312 313 314 313 315 317 320 322 323 322 323 324 327 330 330 332 333 333 334 335 334 335 334 333 333 333 334 335 335 335 336 334 335 334 331 332 331 333
303 303 305 305 309 309 308 307 310 312 312 312 313 314 314 314 316 320 323 323 322 323 325 327 330 332 332 333 334 335 337 336 336 330 326 331 334 333 335 336 336 335 332 334 335 334 333 332 333
307 305 304 308 310 307 308 308 309 312 312 312 314 314 314 315 318 321 323 323 322 322 324 328 327 331 329 330 330 331 330 328 334 331 327 326 332 332 333 333 333 333 333 334 335 335 334 333 336
307 305 305 308 309 307 307 306 309 311 311 314 314 315 315 316 317 320 322 323 322 319 322 327 327 328 328 330 333 332 332 331 326 327 327 329 329 333 333 335 332 333 330 333 334 335 332 335 338
306 305 305 304 308 308 306 304 307 310 312 313 315 316 317 316 316 319 321 321 321 321 323 324 326 328 330 334 333 336 336 333 334 329 331 330 329 332 333 333 332 332 332 331 335 337 335 330 336
303 308 306 305 303 298 306 296 304 308 308 311 314 315 316 316 317 319 321 321 321 322 324 323 326 329 330 335 332 332 331 328 330 334 333 330 332 329 332 333 333 334 332 337 338 341 337 336 331
304 308 307 306 303 302 302 299 303 307 305 308 311 315 316 317 317 318 320 320 320 323 324 328 328 328 332 334 332 328 330 335 335 336 332 333 334 334 333 333 334 335 337 337 337 337 338 336 330
309 306 306 305 303 296 301 300 299 304 305 308 311 315 316 316 317 319 321 321 320 323 324 326 327 327 330 333 333 331 329 329 330 331 331 329 334 335 333 331 331 336 337 337 340 339 339 339 338
307 304 296 295 295 294 301 298 301 306 308 310 312 314 316 316 316 318 319 318 319 322 323 325 324 325 326 328 331 330 331 330 328 328 327 330 329 334 332 332 334 335 336 336 338 338 338 338 333
304 304 297 290 292 295 301 296 303 308 311 314 316 318 318 316 317 318 319 320 318 321 323 325 324 324 324 326 328 330 331 327 327 333 330 330 331 327 331 330 335 333 335 335 338 337 338 338 333
304 301 307 300 301 296 299 302 307 310 311 313 315 316 316 316 317 318 320 320 318 320 324 326 325 323 324 325 328 329 329 330 329 337 337 331 330 332 333 333 331 335 335 334 338 340 338 336 331
307 308 299 300 292 291 296 298 300 304 309 315 315 315 316 316 316 318 320 320 319 321 325 328 328 323 325 324 326 325 328 329 331 335 334 333 332 328 327 332 334 334 336 337 337 338 336 334 332
303 302 303 304 301 294 293 298 308 307 312 315 317 317 316 316 317 318 320 320 319 322 323 326 328 325 323 324 325 327 325 328 330 330 331 332 329 330 328 325 326 328 333 333 338 336 332 331 329
307 304 305 298 297 300 298 299 311 312 316 319 319 318 318 318 318 319 320 319 318 321 322 324 327 325 321 322 324 326 325 327 328 329 331 333 333 332 329 329 327 327 327 330 334 335 334 333 331

GFSSGP_sfc_thetae_003.txt.gz
Theta_e
334 329 339 336 319 316 310 312 316 313 314 317 317 314 312 313 309 305 326 329 329 330 339 347 354 351 350 351 350 351 351 349 346 343 339 338 337 336 335 335 335 336 337 338 340 342 342 342 344
332 338 338 329 313 308 309 315 312 315 317 317 316 314 312 310 316 317 322 331 330 332 337 339 354 354 353 353 352 352 350 349 346 344 341 340 339 338 337 336 336 336 337 338 339 341 342 342 344
340 338 326 321 315 309 308 314 315 316 316 316 315 316 314 314 317 319 329 332 332 332 335 340 355 355 354 354 353 353 349 347 344 341 342 342 341 340 339 338 337 337 336 338 339 341 342 342 342
334 331 327 313 310 313 312 314 316 315 316 316 315 311 318 322 320 323 328 328 328 327 329 343 348 348 350 352 352 351 349 345 343 340 341 342 340 340 339 339 338 337 336 337 338 340 341 342 344
332 325 315 312 312 314 316 317 316 313 315 314 314 311 314 323 325 326 326 326 325 326 328 331 344 342 344 347 347 348 345 344 342 340 340 340 339 339 338 338 338 338 337 336 336 338 340 341 342
321 322 311 309 310 315 316 317 315 314 314 314 312 312 314 326 324 325 326 326 328 327 330 332 341 343 344 341 339 338 337 337 337 337 337 336 336 336 336 337 338 338 337 335 336 335 337 340 340
318 315 311 311 311 312 314 318 314 313 314 313 316 310 317 321 324 326 326 327 327 328 327 329 330 333 337 335 332 330 331 332 333 333 333 333 334 335 335 336 337 337 337 336 335 335 335 339 339
320 316 311 312 310 311 317 316 318 314 314 318 317 310 312 322 325 326 325 324 324 325 325 327 328 325 328 330 333 329 331 331 331 331 331 331 332 334 334 334 336 336 337 335 336 335 334 337 339
324 312 309 310 310 312 318 315 318 319 316 316 316 316 319 323 324 322 322 321 322 324 324 326 324 328 330 331 330 330 333 331 330 330 329 330 331 332 333 335 335 335 336 335 335 335 333 336 339
317 311 310 315 315 314 316 316 317 316 315 314 315 318 319 320 321 320 320 319 320 321 323 323 325 331 332 329 332 333 331 332 331 330 328 329 330 331 332 332 332 333 334 334 334 334 334 336 336
317 312 315 314 315 316 315 315 318 314 312 315 313 315 318 319 320 319 319 319 321 323 324 323 327 332 332 331 331 330 330 329 329 329 329 330 328 331 332 334 331 333 333 334 332 333 332 331 335
313 316 315 313 314 315 315 317 314 314 315 317 316 316 318 318 319 319 319 320 321 322 322 328 330 333 335 333 331 330 330 330 329 329 330 330 329 332 332 330 332 333 335 334 337 334 332 333 340
314 314 314 315 315 317 317 314 314 314 317 317 317 317 317 318 319 322 321 321 323 322 324 329 332 334 336 334 332 332 331 330 331 330 331 329 332 332 329 329 330 329 330 333 334 334 332 334 337
316 316 314 315 315 317 313 314 313 315 316 314 316 317 317 316 319 321 321 322 322 322 327 328 331 333 334 334 335 333 335 333 331 331 329 331 331 332 330 329 327 333 331 330 336 333 332 334 337
316 311 313 314 314 314 315 310 311 316 317 315 315 316 317 319 320 320 322 324 323 323 329 327 330 329 333 335 335 336 335 336 333 333 333 332 334 334 331 330 330 335 335 336 337 334 338 336 338
311 312 307 313 314 314 312 305 314 317 316 315 315 317 317 319 320 321 323 325 325 325 325 329 329 330 334 335 334 334 335 335 335 335 331 331 333 333 333 331 331 333 339 337 335 331 332 333 333
310 304 306 308 315 313 311 307 314 317 316 315 316 316 317 318 320 322 323 325 325 326 328 326 328 330 333 335 335 335 337 337 338 333 329 328 334 333 335 335 334 335 337 337 333 335 334 334 333
304 306 307 306 312 313 310 309 314 316 316 315 315 317 317 318 319 322 324 325 325 326 330 327 330 333 334 333 332 335 339 337 338 330 327 326 332 333 335 337 335 336 336 335 334 334 336 333 331
309 308 306 310 313 311 310 310 312 316 316 314 315 315 318 319 321 323 325 325 324 325 330 329 327 332 330 329 330 331 335 333 334 334 331 331 330 332 334 336 335 335 335 335 336 333 335 335 335
309 307 306 309 312 311 310 309 312 313 313 315 315 315 318 319 319 321 324 325 324 326 328 329 328 329 331 330 336 334 336 335 331 334 334 332 332 332 333 334 332 332 333 334 335 336 334 335 340
308 306 306 306 310 312 309 306 309 313 314 315 315 317 319 320 319 321 323 324 324 323 328 328 327 328 332 336 336 334 336 337 335 333 332 332 331 332 333 333 332 332 332 332 337 336 334 331 338
305 310 308 307 306 301 309 298 306 310 310 312 314 316 318 320 321 321 323 323 323 323 328 328 329 329 332 335 332 333 333 333 336 335 336 335 333 332 332 333 333 333 331 336 335 341 338 338 331
307 311 308 308 305 304 304 301 305 310 307 309 312 315 318 321 321 321 322 323 323 323 326 329 330 330 333 334 334 331 333 336 337 337 334 335 335 332 332 333 334 333 336 339 337 338 337 343 333
312 308 308 307 305 297 302 301 302 305 306 308 312 314 319 320 320 321 324 324 322 323 325 329 330 329 330 332 332 333 332 333 333 332 333 332 335 333 333 333 334 336 337 338 340 339 339 339 338
308 305 297 296 297 296 305 301 303 308 309 310 312 316 319 320 320 321 321 321 322 322 323 327 329 327 326 330 330 332 333 333 334 333 332 331 333 328 333 334 335 337 337 338 338 340 339 339 334
306 305 298 292 294 298 304 298 304 310 311 313 314 317 321 319 320 321 322 321 321 322 323 325 327 326 326 328 329 331 333 333 337 332 331 328 330 330 334 334 335 335 336 338 339 340 339 340 334
305 302 308 301 302 298 301 305 309 309 311 314 314 318 320 320 320 320 321 323 321 322 324 325 327 326 326 327 330 330 332 335 335 335 335 334 333 333 334 334 335 335 335 337 338 338 335 336 336
308 310 301 302 293 292 299 300 302 306 309 315 316 318 319 319 319 320 321 323 321 322 325 327 328 325 326 326 328 328 331 334 335 334 334 334 330 333 332 334 335 335 335 336 338 339 336 333 332
304 303 305 305 302 295 295 299 310 309 313 315 318 319 318 318 319 320 321 323 320 321 323 326 327 323 324 325 327 328 330 332 332 333 334 331 333 330 333 334 334 333 335 337 339 338 335 332 330
309 305 306 300 298 302 301 302 312 312 315 317 318 319 318 319 319 320 321 322 318 320 322 325 327 323 322 324 326 326 329 331 332 333 336 334 334 329 329 333 333 333 334 336 336 334 334 331 329

GFSSGP_sfc_thetae_006.txt.gz
Theta_e
336 329 328 329 316 315 309 310 317 313 313 317 317 314 312 313 308 305 329 329 327 341 348 348 354 353 352 351 351 350 350 350 348 346 343 340 339 338 338 337 336 335 335 336 337 338 343 343 342
323 326 333 325 314 308 309 316 312 314 316 317 316 315 313 310 315 318 322 330 328 337 348 347 354 353 353 352 352 352 351 350 349 346 345 342 340 340 339 338 338 337 336 337 336 337 339 342 343
335 336 324 318 314 308 308 314 313 315 317 315 314 317 314 313 317 319 329 330 330 336 339 352 353 353 354 353 353 353 352 349 347 344 342 342 342 341 341 340 340 339 338 337 337 337 339 342 343
335 329 325 312 308 312 314 315 316 315 316 317 315 311 318 322 320 323 327 327 327 327 335 351 355 355 354 352 353 353 351 349 347 342 341 341 341 343 341 339 340 340 339 338 336 338 340 341 343
332 323 313 311 311 314 317 318 317 313 313 314 314 310 315 321 324 325 326 326 326 331 333 342 351 347 345 344 347 349 346 344 343 341 341 340 340 339 338 339 339 339 339 339 336 337 339 340 341
319 320 309 307 309 314 317 318 315 313 314 314 313 312 316 323 323 324 325 327 327 331 335 339 344 344 344 346 345 340 336 335 336 337 337 337 337 337 337 337 337 337 339 339 337 336 336 339 341
317 315 309 310 309 311 315 320 315 315 312 313 316 310 318 321 323 326 327 329 332 331 332 335 336 342 344 343 338 334 331 330 331 332 333 333 334 334 335 336 336 337 338 338 338 335 337 337 338
319 315 309 310 309 309 317 318 319 317 313 319 317 310 311 321 325 326 325 324 324 326 325 332 335 330 335 335 335 334 332 332 331 331 331 331 330 332 333 335 336 336 338 338 337 336 335 337 339
323 310 307 309 309 311 316 314 319 321 316 317 317 315 319 323 324 322 322 321 321 324 329 329 328 331 333 333 333 334 335 334 332 332 330 329 329 330 332 334 336 336 337 337 337 336 336 336 338
315 310 309 315 315 312 314 314 316 315 315 315 315 318 320 321 320 318 319 319 321 323 327 329 330 334 336 330 336 337 335 335 334 332 331 330 329 330 330 332 333 334 335 336 336 336 336 333 332
315 310 314 316 317 315 313 313 316 314 311 315 313 315 318 318 320 319 318 320 322 325 328 328 333 337 337 333 334 333 333 334 334 332 331 330 329 328 329 331 332 333 333 332 332 332 331 329 329
312 316 316 316 318 314 311 314 314 314 315 318 317 317 318 318 318 319 319 323 322 326 329 333 336 337 340 337 333 333 333 334 330 332 332 330 329 329 331 330 330 331 332 330 332 331 332 329 329
314 315 316 317 316 315 314 313 314 314 317 318 317 317 317 319 320 324 326 328 326 327 328 335 336 340 341 339 336 336 335 331 333 332 331 330 328 329 330 331 330 330 330 330 330 331 330 327 330
316 316 315 316 315 315 312 313 314 315 318 316 316 316 317 318 320 323 325 326 328 329 332 334 337 340 340 339 338 336 336 334 333 333 328 332 330 329 330 329 330 330 330 331 331 331 331 331 333
315 311 312 313 314 312 315 310 311 316 317 316 316 317 318 319 319 320 325 328 330 329 334 335 335 336 338 337 338 338 336 336 334 333 330 330 332 331 331 329 330 329 330 329 331 331 331 332 335
309 310 304 311 313 314 313 305 313 317 317 316 316 316 317 319 320 324 326 329 332 332 334 335 331 335 339 340 339 336 337 339 337 336 333 327 330 332 332 330 330 331 330 330 329 330 332 330 331
307 302 304 307 313 312 311 307 313 317 316 317 317 318 317 319 323 327 325 328 331 332 335 334 337 334 338 338 336 335 339 339 340 337 330 328 329 332 333 330 331 331 329 329 329 328 328 330 331
301 302 304 305 310 312 309 309 313 316 315 317 318 318 318 319 321 324 326 328 330 332 336 337 336 338 340 336 333 332 339 341 339 335 330 328 327 332 333 331 330 333 329 328 329 328 331 330 330
306 305 304 309 312 310 309 311 312 315 315 316 317 319 320 320 323 325 326 328 329 332 334 336 336 340 337 332 333 335 335 337 335 336 333 331 330 329 333 331 330 332 329 328 328 329 329 329 329
305 304 304 308 311 310 309 309 312 314 315 316 315 317 319 321 321 323 325 328 328 330 333 336 337 338 337 336 339 337 337 336 336 337 335 333 331 332 332 331 330 330 330 330 328 331 328 325 329
305 304 305 305 309 310 308 307 310 313 315 316 317 319 320 321 320 322 323 326 327 329 332 334 336 337 339 340 338 338 337 334 335 335 333 331 333 333 333 333 331 330 332 330 329 329 327 325 328
302 308 308 307 304 299 308 298 308 310 311 313 314 317 318 321 322 322 323 325 327 326 331 334 336 337 337 339 337 335 331 329 333 334 334 330 333 332 332 332 332 332 332 329 329 330 327 326 324
305 310 308 307 305 303 303 300 303 310 308 310 312 314 318 321 322 321 323 325 325 328 330 334 336 337 339 340 338 335 334 333 334 332 332 331 328 332 332 332 332 331 331 331 330 330 329 330 328
310 308 308 307 304 297 302 300 301 305 307 309 311 313 318 320 322 323 325 326 325 326 328 334 336 336 339 340 337 337 332 332 331 329 330 331 332 330 333 332 333 333 332 334 336 333 331 332 331
308 306 297 295 294 294 303 300 303 310 310 310 310 316 320 321 321 322 322 322 323 323 327 330 333 332 335 336 335 335 334 331 332 330 327 329 329 329 331 332 333 335 333 335 336 334 331 332 332
306 306 298 290 292 295 305 298 303 310 312 312 313 317 321 320 321 322 322 322 322 323 326 328 331 330 332 333 335 337 333 331 332 330 329 329 331 331 333 333 334 335 334 334 334 332 333 332 331
306 302 307 300 301 296 300 305 310 312 310 311 313 318 320 321 321 322 323 323 323 324 327 330 331 331 332 332 336 336 334 334 334 334 332 327 333 333 333 333 334 334 334 332 332 331 332 333 331
309 309 300 300 292 291 297 300 301 306 308 313 315 318 321 321 320 321 322 323 324 325 328 332 332 330 331 333 334 333 331 336 335 336 334 328 332 333 331 332 332 333 333 333 334 333 333 332 328
305 304 304 304 301 295 293 298 312 310 315 316 316 320 321 320 319 321 321 324 323 323 324 329 330 328 329 331 332 335 335 335 333 333 332 327 330 332 331 330 333 332 332 331 333 331 331 329 329
309 306 306 299 298 301 299 299 314 315 315 319 317 319 319 319 320 320 321 323 320 321 324 326 330 325 327 329 330 333 335 334 334 332 333 328 329 332 332 333 332 332 333 334 331 330 329 328 327

GFSSGP_sfc_thetae_009.txt.gz
Theta_e
339 336 326 319 307 307 302 309 312 308 306 309 311 309 306 306 305 302 319 326 339 337 342 350 354 354 352 352 351 351 350 349 346 345 344 342 340 339 339 338 336 335 335 335 335 336 337 341 342
327 324 317 318 305 300 304 312 310 306 309 311 311 310 307 307 315 316 317 328 340 340 343 345 354 353 353 352 352 351 350 350 348 346 345 344 342 340 340 340 339 338 338 337 337 336 337 337 340
326 322 316 311 306 303 304 311 313 309 312 310 308 313 312 310 316 320 322 325 340 340 340 344 354 353 353 353 352 352 351 351 348 347 344 343 342 343 342 342 341 341 340 339 338 337 337 337 339
323 325 319 305 302 308 308 312 312 309 310 311 310 309 314 319 317 322 325 325 324 327 342 350 353 353 353 352 352 352 351 349 347 345 343 341 341 343 343 340 340 340 341 341 340 338 337 338 341
326 319 305 303 306 312 312 316 310 308 308 308 310 308 310 318 322 322 322 322 319 334 343 349 354 354 354 352 351 352 348 345 342 342 342 341 340 340 340 340 340 340 340 340 340 339 338 340 341
315 311 300 299 305 310 312 313 314 308 310 309 308 311 310 317 319 319 321 319 322 331 336 340 351 349 348 348 348 346 342 339 336 336 337 338 338 338 338 338 338 338 338 338 340 339 340 340 339
312 306 302 304 305 307 312 315 312 311 308 308 310 307 312 315 318 318 319 320 321 324 330 333 336 341 348 348 347 343 338 334 333 332 333 333 334 335 335 335 336 336 337 337 340 339 339 339 337
315 308 303 305 304 304 314 314 313 312 311 316 315 307 308 314 319 319 318 318 318 318 319 322 330 332 333 335 340 337 334 334 334 333 332 332 332 331 332 333 334 336 337 337 339 338 338 339 338
320 304 302 304 305 308 311 308 314 317 312 314 313 312 317 320 319 315 312 313 314 318 317 315 318 321 324 327 332 336 336 336 335 332 330 326 323 323 327 331 335 337 337 337 338 338 337 338 336
313 305 305 311 312 310 310 308 310 312 311 312 312 316 319 319 315 313 312 311 312 314 316 318 322 322 323 328 326 326 327 328 326 325 324 322 322 322 327 330 333 334 336 337 337 337 337 335 326
313 306 311 312 315 314 312 308 310 309 308 312 310 312 314 315 313 312 311 311 314 315 318 318 320 323 323 324 325 323 322 323 324 324 324 322 323 322 321 323 325 325 331 328 331 331 330 328 325
309 312 313 313 315 314 310 311 309 310 311 316 314 315 313 312 311 311 311 313 314 314 316 323 325 324 324 326 325 324 325 323 322 323 324 322 322 321 322 323 324 323 325 326 326 325 326 326 325
311 312 314 315 315 311 312 310 310 310 315 317 314 313 312 311 312 312 313 315 315 315 319 323 323 325 327 326 326 325 325 324 323 324 325 324 322 322 323 323 323 322 323 324 324 325 326 325 324
313 312 313 314 314 311 310 311 311 311 316 314 312 311 311 310 313 313 314 314 315 315 320 322 323 325 326 326 325 325 327 326 325 325 325 326 325 324 321 322 322 321 321 323 324 324 325 324 322
309 305 308 310 311 309 312 307 307 312 313 312 310 311 311 312 315 314 315 316 316 315 321 321 322 324 323 323 325 327 327 328 325 325 325 327 327 326 322 322 321 321 321 323 324 324 324 324 325
303 304 300 307 309 311 309 301 309 313 311 310 312 312 312 312 312 315 317 318 317 318 320 321 325 322 322 324 325 326 327 326 326 327 325 325 327 326 322 322 322 322 321 321 322 322 322 325 324
300 295 298 303 310 309 307 303 310 312 311 310 311 312 313 311 314 317 320 319 317 317 320 320 322 321 323 324 325 326 327 326 327 327 324 323 323 325 323 323 323 322 321 321 322 322 323 321 322
294 296 300 301 306 307 305 306 309 311 310 309 310 312 312 314 314 318 320 321 319 320 321 320 320 322 324 323 326 324 326 327 328 326 324 325 323 325 323 323 324 322 320 320 321 320 322 322 322
300 299 299 304 308 306 306 306 308 310 310 308 309 311 312 313 316 318 320 320 319 320 321 321 321 321 321 320 322 321 321 324 325 327 326 325 323 322 321 323 323 323 320 320 321 321 320 321 321
301 298 298 303 307 306 306 305 308 311 309 309 309 309 309 313 314 317 318 318 317 318 320 323 321 321 321 322 325 324 325 326 327 327 326 326 327 325 324 323 322 323 321 321 321 320 319 318 322
301 299 298 299 305 306 303 299 303 309 309 310 311 310 313 313 313 315 318 316 316 316 318 322 322 320 323 325 326 324 325 325 325 325 324 325 326 327 325 325 323 322 322 321 321 321 319 317 321
297 304 303 302 300 294 303 290 299 304 305 308 309 308 311 313 315 315 317 315 316 318 320 323 321 320 324 324 323 322 320 320 323 325 326 325 327 326 326 325 324 322 322 322 323 323 323 323 321
300 305 303 303 300 297 297 292 296 303 302 305 305 308 312 313 314 315 317 318 317 319 319 320 320 321 324 324 323 323 322 324 325 323 323 321 324 326 327 325 323 322 322 322 324 319 324 324 321
306 303 303 302 299 289 296 295 295 299 303 303 305 307 313 313 314 316 318 318 317 318 319 321 321 321 324 325 323 323 322 324 322 320 321 322 324 324 326 326 324 323 322 323 323 322 323 322 324
304 297 290 287 287 286 298 295 297 303 306 305 308 311 312 314 315 316 316 315 315 316 318 319 320 318 320 322 322 324 320 324 321 320 319 321 321 321 322 323 323 324 323 326 325 326 326 326 325
299 298 291 284 286 289 299 293 298 307 309 308 312 313 313 313 315 315 315 314 315 315 318 318 319 318 318 321 322 323 323 324 323 321 322 323 322 322 324 325 324 326 327 326 326 324 326 326 326
299 296 300 293 294 289 293 299 306 307 304 307 312 312 311 312 313 314 315 314 314 314 315 315 319 317 319 321 321 324 325 325 323 323 323 323 323 325 326 326 326 326 327 326 326 328 327 327 326
301 303 294 292 285 283 292 294 295 300 302 309 311 310 311 312 313 314 315 314 315 315 314 317 320 317 319 320 321 324 327 326 326 326 326 322 323 325 326 327 326 326 326 327 328 328 325 325 325
298 298 296 295 292 286 285 291 302 302 308 308 311 312 312 312 312 313 313 315 315 315 315 317 318 318 317 319 319 325 325 325 326 326 323 323 323 327 325 327 327 326 328 326 326 326 325 324 324
302 299 297 293 291 293 292 292 310 310 311 310 313 313 311 312 312 313 314 314 313 314 315 316 318 317 317 319 319 324 325 326 325 327 324 323 324 325 326 327 327 328 326 326 326 326 325 323 322

GFSSGP_sfc_thetae_012.txt.gz
Theta_e
338 336 325 318 307 304 300 305 309 306 304 307 308 306 304 304 304 298 317 332 333 332 342 350 354 353 352 351 351 350 349 347 344 343 343 342 341 339 339 338 337 336 336 336 336 335 335 336 339
330 326 315 315 304 299 302 309 307 306 308 308 309 305 305 306 315 315 320 335 333 335 341 346 354 353 353 352 352 351 350 347 345 345 344 345 344 341 340 340 340 339 339 338 337 337 337 336 336
323 320 309 310 304 299 302 310 311 312 309 308 306 310 310 309 318 317 319 337 333 334 340 344 354 353 353 353 352 351 349 348 346 347 345 345 344 343 342 341 341 341 341 339 339 339 338 337 337
318 322 317 304 301 306 309 313 314 308 308 308 309 308 312 317 319 321 329 338 334 336 340 345 354 353 354 352 351 350 349 348 348 347 346 343 342 344 344 342 342 341 340 340 341 340 339 338 338
323 316 305 301 303 308 311 314 309 305 307 306 307 308 309 317 322 322 326 334 330 335 337 346 354 354 354 353 351 351 351 351 347 345 345 342 343 344 341 340 340 340 340 340 341 340 340 341 340
313 309 298 297 301 308 308 312 313 309 309 307 308 308 308 316 319 319 318 323 334 338 342 347 352 353 353 354 353 352 350 347 344 343 341 341 340 340 339 339 339 339 339 339 339 340 341 341 340
309 305 300 302 304 305 309 313 310 311 309 306 311 306 310 313 316 318 317 324 330 336 339 341 345 349 353 351 349 348 345 343 341 337 335 334 334 335 335 336 336 336 337 337 338 339 341 341 340
312 306 300 302 302 303 310 309 309 311 311 313 313 307 306 313 316 316 316 318 324 328 330 331 330 333 336 339 346 345 343 339 335 335 334 334 334 334 333 333 333 335 335 336 337 338 340 339 340
315 302 300 301 303 306 312 305 311 313 310 311 311 311 316 317 315 314 312 312 313 319 318 322 323 329 329 330 334 341 338 336 336 335 335 332 322 322 325 329 333 335 337 337 336 337 338 338 338
309 302 306 311 309 308 311 308 308 307 308 309 311 316 317 316 314 312 311 311 310 311 312 316 319 321 321 327 325 328 328 327 328 326 323 321 320 320 326 329 332 334 335 336 337 337 338 337 327
310 306 311 312 313 313 311 311 313 307 304 307 308 313 314 313 312 312 311 311 309 312 316 317 318 320 321 322 322 322 321 322 323 323 322 321 322 320 320 320 322 322 329 327 331 331 331 329 326
306 312 313 313 315 313 310 313 311 309 309 312 313 315 314 312 311 311 310 310 311 313 315 316 320 321 321 323 322 322 322 321 321 322 323 320 319 319 319 320 322 322 323 324 325 325 325 326 325
309 311 314 315 314 313 314 311 310 310 313 314 313 314 313 313 312 311 310 312 311 314 319 321 322 323 324 323 323 322 323 323 322 321 322 322 320 319 323 324 322 320 321 322 322 323 324 324 325
310 311 312 313 312 313 310 311 310 312 314 312 310 311 311 311 311 309 311 311 312 317 320 320 322 323 324 322 322 323 322 324 324 323 323 324 322 321 323 320 320 319 319 320 322 322 322 322 323
305 304 308 310 309 307 309 306 307 311 312 310 308 309 310 311 311 312 314 313 314 317 320 319 322 323 323 322 321 321 323 325 324 324 324 324 323 323 324 319 319 319 319 320 321 321 322 321 322
299 298 294 303 306 308 306 300 308 311 309 309 310 308 309 308 312 312 314 314 313 318 318 320 325 321 320 320 322 323 324 324 323 324 324 325 324 323 320 319 319 321 319 319 319 319 319 320 320
295 292 294 298 305 306 304 302 308 312 311 309 308 309 310 309 310 312 315 315 315 318 318 318 319 318 320 321 321 322 324 324 325 325 324 323 323 322 319 319 320 321 318 318 318 318 320 319 319
291 292 295 297 302 304 302 302 307 310 309 309 308 309 310 309 310 314 316 315 316 317 318 318 318 320 321 319 320 322 321 324 326 326 324 324 323 323 320 320 321 320 317 317 318 317 322 320 319
298 296 295 300 304 302 301 303 306 309 307 305 306 307 308 309 313 316 317 316 317 318 317 317 318 318 319 317 320 319 320 321 323 325 326 326 322 322 318 320 320 320 318 317 318 318 319 318 318
296 295 296 300 303 300 300 301 306 307 307 307 307 307 307 309 313 315 315 315 316 317 318 318 318 318 318 319 322 322 321 323 323 324 327 326 324 325 321 320 320 320 318 317 318 318 316 317 318
296 295 297 297 301 302 299 298 302 307 307 308 308 308 310 311 311 314 314 313 314 316 318 319 318 319 319 322 322 321 321 322 323 322 324 325 327 326 323 323 320 319 319 318 317 318 318 315 317
294 301 300 300 298 291 300 289 296 301 303 305 306 305 308 310 313 314 313 312 312 314 318 319 319 318 321 321 319 318 318 317 320 321 324 322 326 325 325 323 321 320 320 318 319 320 318 319 317
297 302 300 300 297 292 296 290 295 299 300 303 305 307 308 310 312 313 313 314 314 317 317 319 317 322 322 321 320 320 317 321 321 320 319 322 323 325 325 322 321 319 320 320 320 319 319 320 320
302 300 299 297 295 288 295 293 295 296 301 303 303 308 309 309 311 313 314 314 314 314 317 317 317 319 321 322 321 320 316 318 318 318 318 319 323 322 323 323 320 320 320 321 317 319 319 318 323
299 293 286 283 286 287 296 293 296 300 303 305 304 307 309 311 312 313 313 312 313 315 315 317 317 318 319 319 321 318 317 319 317 316 317 318 318 318 319 320 321 320 321 321 320 320 322 319 324
294 294 288 282 283 287 296 290 296 303 306 306 310 310 311 310 313 313 313 312 314 314 315 318 315 315 317 319 320 319 319 320 319 319 320 319 319 319 320 321 322 322 323 323 322 321 322 322 322
293 290 297 290 291 287 291 296 302 303 305 308 308 310 309 310 312 313 312 312 311 314 315 316 316 314 318 319 321 320 320 321 321 323 321 320 320 323 322 322 321 323 324 323 322 324 324 324 323
296 299 291 288 285 282 289 291 293 298 302 307 307 307 308 310 311 313 312 311 311 314 313 314 316 315 317 318 318 322 322 323 322 322 319 320 320 322 323 323 322 322 323 324 325 325 324 325 325
293 293 293 293 291 286 284 289 298 300 303 306 307 308 309 310 311 312 311 312 311 312 310 315 315 316 315 318 318 324 322 324 323 320 320 321 321 322 323 324 324 324 324 324 324 321 323 324 324
297 293 295 292 288 290 289 289 302 302 308 309 307 310 310 311 312 312 311 311 310 310 312 315 314 315 315 316 319 321 323 323 323 321 320 322 321 323 324 325 325 325 324 323 324 324 323 323 322

GFSSGP_sfc_thetae_015.txt.gz
Theta_e
339 335 322 316 306 303 300 303 307 308 304 306 307 305 304 304 302 297 316 331 330 328 337 349 354 353 351 350 349 348 347 345 342 340 339 339 339 339 338 338 337 337 336 336 336 336 335 334 335
333 326 316 314 303 297 300 308 308 307 307 305 306 304 304 304 313 316 324 331 332 333 339 346 354 353 352 351 350 349 347 345 343 342 342 342 342 342 340 339 339 340 339 339 339 338 338 336 335
325 318 309 309 302 298 300 308 309 312 312 306 304 309 308 308 317 318 321 332 330 333 340 343 353 352 353 351 351 350 348 347 345 344 344 344 345 343 343 341 340 341 341 339 338 339 338 339 337
318 320 315 304 301 305 307 311 312 313 307 306 307 306 310 316 317 318 329 332 330 331 336 344 353 353 353 352 352 351 349 347 346 346 346 345 344 342 343 342 342 341 341 340 340 340 341 339 339
322 315 306 301 303 306 309 312 309 306 306 305 307 306 307 314 320 322 334 332 328 329 334 342 353 354 354 353 351 350 350 349 348 347 346 345 343 342 341 341 340 340 340 340 340 340 342 341 340
312 309 298 296 301 306 308 310 308 308 308 306 307 307 306 314 318 323 333 331 331 332 333 340 352 353 353 353 352 351 351 350 350 348 345 343 342 340 341 340 340 339 339 339 339 340 341 341 341
309 304 299 299 303 304 307 309 306 307 307 305 308 305 307 312 317 317 322 327 330 334 337 342 346 350 353 352 352 352 352 350 347 345 343 340 336 335 335 336 337 337 338 337 338 339 340 341 340
311 306 299 301 300 302 308 308 306 307 308 310 313 306 305 311 315 314 321 325 329 334 337 339 338 341 340 343 352 351 348 345 344 341 336 334 335 335 335 334 333 334 336 336 337 337 340 340 339
312 300 298 301 302 304 308 305 312 311 308 309 310 311 314 315 314 314 313 315 318 325 325 327 329 331 333 334 338 345 344 342 339 335 336 335 327 323 326 328 330 333 335 336 336 336 338 338 337
308 300 302 308 308 306 308 309 311 308 309 307 310 313 316 314 313 313 312 313 312 317 315 322 323 326 327 330 326 329 328 327 326 328 325 323 321 319 323 327 331 332 334 335 336 337 337 336 329
307 304 309 309 312 311 310 310 314 309 307 307 307 310 312 311 311 312 313 314 314 315 313 316 318 320 320 321 321 322 323 321 321 325 323 320 321 319 320 319 320 320 327 324 328 328 329 329 326
304 310 311 311 314 310 309 312 311 311 311 315 311 313 312 311 311 312 312 311 308 311 313 317 317 318 318 320 320 320 320 320 320 322 321 319 318 318 318 318 319 320 321 321 322 324 326 326 326
305 308 311 312 312 312 313 310 311 311 315 316 313 313 312 312 311 313 313 311 309 310 314 316 318 319 320 321 320 319 320 321 320 320 321 320 318 318 318 320 322 322 319 319 320 321 323 324 324
307 308 309 311 312 312 310 310 311 312 314 313 309 310 312 312 311 310 308 309 309 312 314 318 319 321 322 320 320 320 321 321 321 321 322 322 320 319 319 322 322 318 317 318 319 320 321 322 321
301 298 301 304 307 307 311 304 306 311 311 309 308 309 311 312 313 310 311 310 311 315 318 319 319 321 321 320 320 320 320 322 322 322 323 323 321 320 320 321 320 317 318 318 318 319 320 320 320
297 296 293 301 305 307 303 297 306 310 308 308 309 307 309 310 311 312 310 311 313 317 318 318 324 321 320 318 319 320 322 322 322 322 322 324 323 322 319 318 317 318 318 317 317 317 317 318 318
292 290 292 296 302 302 301 299 305 309 307 306 308 308 307 308 308 309 311 311 314 318 317 318 320 319 318 318 319 319 321 321 322 323 323 324 324 323 319 317 317 319 318 316 316 316 317 316 316
289 289 293 293 299 300 299 299 304 308 307 307 308 309 307 307 307 309 312 312 316 316 317 317 317 316 318 318 317 319 319 321 323 323 323 325 324 322 318 316 319 319 316 315 315 315 317 317 316
296 294 293 297 301 299 298 299 302 306 304 305 305 306 307 307 309 312 312 315 317 316 316 316 316 317 317 315 317 317 318 319 321 322 325 326 324 322 319 317 319 319 316 315 315 315 317 315 316
296 293 293 297 301 298 298 297 302 303 304 305 307 307 305 308 310 312 312 316 316 315 316 315 316 317 316 316 319 319 318 321 322 321 325 327 325 322 319 318 319 318 316 315 315 316 316 315 316
295 293 293 294 299 300 297 296 299 303 304 307 307 306 307 308 309 311 312 315 315 315 315 317 316 317 316 320 319 318 319 320 319 319 321 322 326 325 322 321 319 317 316 314 315 316 316 313 317
290 297 297 296 293 289 297 287 294 299 301 303 304 303 305 308 310 311 312 311 314 315 317 317 317 316 319 319 318 316 316 314 317 318 320 321 325 325 323 322 320 318 317 315 316 318 316 316 315
294 300 298 297 293 290 294 289 293 297 299 301 303 303 305 308 310 311 311 313 313 315 316 317 316 316 318 319 318 317 315 317 317 317 317 317 322 324 324 320 319 318 317 316 317 317 317 317 317
300 295 295 294 291 286 292 290 290 294 298 301 302 306 306 307 309 309 311 311 312 314 316 315 317 318 318 319 319 316 315 315 316 315 316 317 320 319 320 321 318 318 317 318 318 318 317 317 320
295 289 282 281 283 284 293 290 294 299 301 303 303 305 306 308 309 310 310 310 311 313 314 314 314 316 318 319 319 316 317 316 313 317 316 316 317 316 317 318 318 318 318 319 316 318 317 319 321
293 292 285 280 281 285 293 289 294 302 304 305 305 306 308 309 310 310 310 311 312 314 314 315 314 314 316 318 318 316 317 317 316 318 317 317 316 316 317 319 320 319 321 320 318 318 317 320 320
292 290 295 287 288 285 289 294 299 302 304 305 305 307 307 309 309 310 310 310 311 312 313 315 313 313 316 317 318 318 318 317 319 317 318 318 317 319 319 320 320 321 321 320 319 320 321 321 320
292 294 286 286 281 281 287 289 292 297 301 304 305 304 306 307 309 310 310 310 312 313 313 314 314 313 316 317 318 320 319 320 320 319 318 318 319 320 320 319 319 320 320 321 324 324 325 324 324
289 290 288 289 287 282 282 287 296 298 302 303 304 306 306 308 310 310 310 310 312 311 311 313 313 314 315 316 316 320 320 321 319 318 318 319 319 320 320 321 320 320 321 321 322 322 324 323 324
295 292 291 287 285 288 287 289 299 299 303 305 305 307 307 309 310 310 310 308 309 310 309 313 313 314 313 316 318 320 321 320 318 318 319 320 320 321 322 322 322 322 321 320 321 323 323 323 323

GFSSGP_sfc_thetae_018.txt.gz
Theta_e
338 333 320 315 305 302 298 302 305 307 306 304 306 304 302 304 306 298 315 328 325 327 335 349 354 352 350 350 349 348 347 345 342 340 339 339 338 338 338 338 337 337 336 336 336 336 335 334 333
333 325 317 313 303 297 299 306 307 309 308 304 303 303 302 303 312 317 322 330 326 328 335 346 354 352 351 351 350 349 348 345 343 341 339 338 339 340 340 339 338 339 339 339 339 339 338 338 336
324 317 311 309 302 298 299 307 308 312 313 307 303 307 307 307 315 319 324 331 329 329 337 344 354 353 352 352 351 350 349 347 344 342 341 342 342 343 343 341 341 340 340 339 339 339 340 339 339
318 319 315 304 301 305 305 309 310 309 310 305 305 304 309 314 315 320 324 331 330 331 337 345 353 353 353 353 352 351 348 347 345 345 344 344 344 343 343 343 342 341 341 341 339 339 340 341 340
320 314 306 301 303 306 309 311 309 306 305 305 306 305 306 313 319 320 329 330 328 329 334 341 353 353 353 353 352 351 350 350 348 346 345 346 344 343 343 341 341 341 341 341 340 339 342 343 342
311 308 299 297 302 305 307 310 307 306 306 304 304 305 306 312 317 322 329 327 328 328 332 339 351 353 353 353 353 352 351 350 348 348 347 345 344 343 341 340 340 340 340 340 339 340 341 341 340
308 303 299 300 302 304 306 309 305 304 306 306 306 303 306 310 316 325 329 327 327 329 332 337 344 350 353 353 352 352 351 351 350 350 348 345 343 340 337 336 336 337 338 338 339 339 340 340 339
312 305 299 301 301 301 308 307 306 306 307 310 311 304 304 309 315 318 323 325 327 330 331 335 341 345 345 347 353 352 352 351 350 347 345 343 337 336 336 335 334 334 335 335 336 337 338 340 340
310 300 297 299 300 302 305 304 309 312 308 307 310 309 312 314 314 316 317 320 323 330 331 333 336 338 338 339 344 351 350 348 346 342 341 337 330 328 330 331 333 332 332 334 335 336 336 338 338
307 299 300 305 305 304 305 306 309 308 310 309 310 311 313 313 312 313 315 318 318 323 324 329 330 332 332 336 333 334 334 332 330 330 328 329 327 324 325 327 330 331 332 334 335 336 336 337 333
306 303 308 307 309 307 308 308 311 308 307 311 308 311 311 311 310 312 314 317 319 323 323 324 326 327 326 325 324 323 325 324 324 325 326 325 323 322 323 323 323 323 326 326 328 328 329 332 331
302 308 310 310 310 308 308 311 310 312 311 315 315 314 311 309 309 311 313 315 313 313 317 318 321 322 321 320 320 320 321 321 321 321 324 322 320 320 320 320 320 321 323 323 324 325 328 330 330
303 307 309 311 309 309 311 309 310 310 316 317 315 312 310 310 311 312 313 314 312 309 312 316 317 318 318 319 320 319 320 322 321 321 322 321 320 319 320 320 321 322 324 323 323 324 325 327 328
305 307 307 307 308 310 309 309 310 313 317 313 310 310 309 310 310 310 310 310 309 310 312 315 318 317 319 320 319 319 320 321 321 321 321 322 321 320 320 321 323 323 322 321 321 323 324 325 326
299 296 299 301 303 303 307 302 304 311 312 308 309 309 309 310 311 310 312 312 312 310 314 316 317 320 320 320 320 320 320 321 321 322 323 324 323 322 322 321 321 322 321 321 321 322 324 323 324
295 294 291 298 302 303 303 295 304 308 306 306 307 308 308 308 311 312 313 311 310 313 315 318 322 321 320 319 319 320 320 321 322 323 323 324 324 323 321 321 321 321 321 320 320 320 321 322 322
291 289 290 293 301 301 300 295 303 305 305 305 307 308 308 308 308 312 311 309 314 316 317 318 320 320 320 318 318 319 321 321 322 323 323 324 325 326 322 320 320 321 320 320 319 319 321 320 320
288 288 290 291 297 298 295 296 301 304 303 304 305 306 306 307 308 308 309 312 316 317 318 319 319 319 318 317 318 319 320 321 322 324 325 326 326 326 322 320 320 320 320 319 318 319 320 321 321
293 291 290 293 299 297 295 296 299 303 302 301 303 304 305 305 308 309 310 314 316 317 317 317 317 316 317 316 316 318 319 320 322 324 325 326 326 324 321 319 319 321 320 319 318 318 320 319 320
294 292 291 295 300 297 296 295 299 301 301 301 304 304 305 305 309 309 310 313 316 316 316 315 316 316 317 316 319 320 320 321 322 323 324 327 327 325 322 319 319 321 319 318 318 319 318 319 320
293 292 292 293 298 296 294 293 296 302 302 303 304 305 305 305 307 308 310 312 314 315 315 316 316 317 317 319 319 319 319 320 320 321 322 324 326 326 324 321 321 320 319 317 318 319 320 317 318
290 297 297 296 292 286 294 284 294 297 299 301 303 302 303 305 309 308 310 311 314 314 315 316 316 317 318 320 318 318 317 315 318 320 321 323 326 326 324 323 322 320 319 317 318 320 320 321 317
294 300 297 295 290 287 289 286 291 295 296 299 302 303 302 305 308 308 310 313 314 315 315 316 316 316 319 318 319 318 316 317 319 319 320 321 323 325 324 323 321 320 320 319 319 320 321 321 320
301 295 293 292 288 283 289 289 289 292 298 299 301 303 306 306 307 309 312 313 313 315 315 315 316 316 318 319 319 318 317 317 317 317 319 318 321 322 323 322 321 321 321 320 320 321 321 321 322
296 289 281 279 279 281 291 288 292 296 299 301 301 302 305 306 307 309 310 311 311 314 314 314 316 316 318 319 319 318 318 318 316 318 318 319 319 320 320 321 320 321 321 321 321 321 321 322 324
293 290 282 277 278 284 291 286 292 300 303 303 304 303 306 306 307 309 310 311 312 314 314 315 314 316 318 319 319 318 319 318 318 319 319 319 319 320 320 322 322 322 322 321 321 322 321 323 324
291 288 291 285 287 284 286 291 297 300 302 304 303 305 304 306 306 308 309 310 311 313 314 314 314 315 316 318 319 319 319 320 319 321 320 320 320 321 321 322 322 323 323 322 322 322 322 323 322
293 295 286 286 280 279 285 288 290 296 299 303 303 303 304 306 306 308 309 310 312 313 314 314 314 314 316 317 319 320 321 323 322 321 321 322 322 323 322 322 322 323 323 324 325 325 325 324 324
287 288 286 288 285 281 280 286 295 297 300 302 303 303 304 306 307 308 308 310 311 312 312 314 313 313 316 317 317 321 322 322 320 321 322 322 322 323 322 322 322 323 322 323 323 324 325 324 324
294 290 290 286 283 285 286 287 298 299 299 302 303 305 305 307 308 309 309 309 310 311 311 313 314 314 316 317 319 321 322 320 319 321 321 322 322 323 323 323 323 323 322 323 323 323 324 324 323

GFSSGP_sfc_thetae_021.txt.gz
Theta_e
338 332 325 320 312 313 308 310 313 314 313 314 313 313 312 313 314 307 328 336 337 332 338 351 354 352 350 349 348 347 346 345 342 340 339 338 338 337 337 337 336 336 336 336 336 336 336 335 335
333 325 324 321 309 305 308 313 313 316 318 318 313 311 310 311 315 321 329 335 336 334 341 345 354 353 351 350 350 349 347 346 344 342 340 340 339 339 339 340 340 339 339 339 339 339 339 338 338
326 322 320 318 313 307 309 314 316 318 320 316 312 313 312 313 319 324 334 337 334 336 343 348 354 353 352 351 351 350 349 347 345 341 340 339 340 340 342 342 341 340 339 339 340 340 339 339 339
321 323 322 310 309 313 313 317 318 318 316 313 312 311 315 320 321 326 335 338 334 335 342 347 354 354 353 352 352 351 350 348 345 343 342 342 342 345 344 344 343 342 342 341 341 341 343 341 341
329 325 310 310 310 314 317 319 319 316 315 315 312 311 314 319 324 328 335 337 335 335 338 344 353 354 354 354 353 352 350 349 348 345 344 344 346 345 344 344 343 342 342 342 342 341 343 344 344
318 320 308 304 308 313 316 318 316 315 314 315 310 311 315 320 323 328 335 338 338 337 339 344 352 354 353 353 352 352 351 350 350 348 348 348 347 345 344 343 341 340 341 341 341 340 343 341 341
314 314 305 306 306 309 312 317 314 314 314 313 314 311 317 320 323 328 334 338 337 340 339 344 348 353 353 353 352 352 351 351 351 350 349 349 345 345 342 338 337 337 338 339 340 339 341 340 340
319 315 306 307 304 305 313 314 315 315 314 316 316 312 316 322 323 330 335 335 335 337 340 342 347 349 349 349 353 353 353 352 351 350 349 349 344 341 336 338 336 335 335 336 337 338 338 340 340
317 309 303 304 305 307 313 312 315 317 317 316 318 319 321 321 322 327 331 331 332 334 337 340 342 346 348 347 348 352 352 350 350 348 347 345 339 337 336 336 335 334 334 333 334 336 337 337 338
313 308 306 310 310 309 312 312 314 314 315 316 318 322 321 320 322 322 326 327 330 332 335 337 341 344 346 344 349 349 347 345 345 344 342 340 339 338 335 334 333 332 333 333 334 336 337 337 337
313 307 311 312 313 313 312 313 316 313 311 315 315 318 322 323 322 321 323 326 327 332 334 337 341 344 345 343 345 344 344 342 342 342 341 338 336 337 336 334 332 333 332 331 332 333 333 333 334
308 312 313 314 315 314 312 315 313 315 315 319 320 321 321 322 322 321 322 324 327 329 333 337 340 342 344 343 341 338 337 337 335 336 339 337 335 335 334 332 331 331 331 332 333 332 334 334 335
309 311 314 315 315 315 315 312 312 313 317 319 320 321 321 321 321 322 323 325 326 327 330 333 339 341 341 339 336 334 333 333 334 335 336 335 333 334 334 332 331 331 331 331 331 331 331 332 335
309 310 311 313 313 313 311 310 312 314 318 317 318 318 318 319 320 322 322 323 325 327 327 331 336 339 337 335 335 333 334 334 334 334 334 336 334 334 332 332 331 331 332 331 331 329 330 331 335
309 305 308 309 310 310 310 304 305 312 314 313 314 316 317 319 320 320 323 325 327 326 326 329 333 335 334 333 334 334 333 333 333 334 336 335 335 334 334 332 333 333 331 330 331 330 331 331 333
301 301 297 303 305 306 305 298 307 311 311 311 312 314 315 318 320 322 324 327 327 325 324 328 328 331 333 333 334 332 333 333 334 334 335 336 336 336 335 333 333 333 331 330 329 329 328 330 330
298 295 296 299 304 304 304 301 306 310 309 309 311 312 314 316 319 324 323 324 324 323 326 327 329 329 332 334 332 333 335 333 334 335 335 336 335 335 335 332 332 333 330 329 330 329 328 329 330
293 293 296 296 301 302 301 301 305 307 309 309 311 312 314 315 318 322 322 322 323 324 328 330 329 332 333 332 331 332 332 332 334 335 335 337 336 336 335 329 330 330 329 328 329 329 328 329 329
299 297 296 300 302 300 300 300 304 308 309 309 310 312 314 316 320 318 318 320 323 325 326 329 329 332 331 328 328 329 328 332 333 335 336 336 337 335 332 328 329 328 327 328 329 329 328 328 330
296 295 296 299 301 300 300 300 304 306 307 309 309 312 314 315 317 317 317 321 322 324 326 328 330 331 331 330 331 333 334 335 335 335 336 336 335 335 331 331 324 326 327 328 328 327 326 328 330
295 294 295 295 299 301 300 298 301 306 308 309 311 313 314 315 317 317 317 320 323 324 326 329 330 330 331 332 332 333 334 333 332 334 335 335 334 334 330 329 329 329 330 329 328 327 327 324 327
292 298 297 296 294 291 300 291 300 303 304 306 310 312 314 315 316 318 318 320 322 324 328 329 330 331 331 333 332 333 331 328 332 333 334 334 331 333 330 332 330 331 330 329 328 328 328 329 324
295 299 297 296 295 295 296 292 296 302 301 304 308 312 314 314 317 317 318 320 323 325 326 328 330 331 332 333 334 331 330 331 333 332 331 331 334 332 330 332 331 331 330 330 329 329 329 329 331
300 299 298 298 296 289 294 293 293 298 301 304 310 312 313 315 316 318 320 322 323 326 326 328 329 330 332 332 333 332 330 329 329 329 330 331 332 332 332 331 332 332 331 330 329 330 330 330 332
299 296 289 287 287 286 296 293 294 302 305 307 309 313 314 316 316 317 318 320 322 324 326 327 328 328 331 331 332 330 329 329 327 328 330 329 328 330 331 332 332 331 332 331 331 331 330 331 331
296 296 290 283 285 289 295 290 294 305 308 309 311 312 314 315 317 317 319 321 322 324 326 326 327 328 330 331 331 331 330 331 331 330 331 330 330 330 332 332 332 331 332 332 332 330 330 332 333
295 293 299 292 294 291 293 296 302 307 307 309 309 311 313 315 316 317 319 321 323 325 326 327 327 329 330 331 331 331 331 331 332 331 332 331 331 330 332 332 331 332 332 331 333 330 330 331 330
298 300 291 293 285 284 291 293 296 302 305 309 311 312 313 315 316 317 319 321 323 325 327 327 328 328 329 330 331 331 332 333 332 332 331 332 332 331 332 332 332 332 333 332 332 330 332 331 329
294 294 295 296 293 287 286 291 306 307 309 310 314 313 314 315 316 317 319 321 323 325 325 326 326 326 327 329 330 332 332 330 330 332 333 332 333 332 331 331 331 332 328 328 329 330 328 327 328
298 296 296 290 289 293 292 293 305 309 309 312 313 313 315 316 316 318 319 320 321 323 324 325 326 325 327 329 329 331 331 329 330 331 331 333 333 333 331 330 330 326 325 327 327 326 327 328 325

GFSSGP_sfc_thetae_024.txt.gz
Theta_e
335 329 330 328 314 311 307 312 319 317 317 320 320 318 316 318 314 311 332 342 343 336 344 352 354 353 352 350 349 348 347 346 343 340 339 338 337 337 336 336 336 336 336 336 337 337 337 337 335
326 324 328 324 309 307 310 319 316 320 321 323 323 321 317 315 321 322 330 341 342 337 343 346 354 353 352 351 349 348 347 346 344 342 341 340 339 339 339 339 339 340 339 339 339 340 340 339 339
325 329 322 318 315 310 312 319 319 321 321 319 319 320 318 318 322 325 336 342 342 339 341 347 354 353 353 351 350 349 349 347 344 343 342 341 341 340 340 340 341 341 341 340 340 340 340 340 341
324 326 323 313 312 317 318 320 320 320 320 320 319 316 320 325 324 329 339 341 339 339 340 347 355 354 353 352 352 351 350 348 346 344 342 341 341 343 345 343 344 344 343 342 342 342 342 342 342
326 323 311 310 311 316 322 323 323 319 318 319 318 316 319 325 327 329 337 340 337 339 340 346 354 354 354 353 353 352 351 350 349 345 344 343 345 346 347 345 345 344 344 343 343 343 345 343 343
320 320 309 306 310 315 320 323 322 320 319 319 316 316 319 326 327 329 335 340 339 339 342 347 354 354 353 353 353 352 352 350 350 348 348 348 348 348 346 345 344 343 341 341 342 342 342 342 342
316 314 308 309 309 311 315 321 318 319 319 318 321 316 322 325 330 330 334 339 341 341 341 346 351 354 354 353 352 352 351 351 351 350 349 349 349 347 345 344 342 338 338 338 339 341 341 341 340
318 315 310 310 308 308 315 318 320 319 318 322 321 316 319 328 330 330 333 334 339 339 341 343 350 349 350 350 354 353 352 352 351 351 351 350 349 346 343 341 338 337 336 335 336 338 339 341 340
323 311 308 310 310 311 317 315 319 322 320 321 322 322 325 328 329 330 331 333 334 335 340 342 343 347 349 348 349 353 352 351 352 350 349 348 344 341 341 341 336 336 335 335 335 335 336 337 338
318 311 310 315 315 314 316 316 317 316 318 318 321 325 326 328 329 328 328 329 331 333 336 340 344 346 348 344 347 351 347 348 348 346 346 345 342 341 338 338 335 335 335 334 334 334 335 338 337
317 311 316 317 318 318 316 316 319 316 314 318 318 321 324 326 327 328 329 330 329 332 335 338 345 348 348 344 345 347 346 345 346 347 346 344 339 340 339 338 337 338 336 335 333 334 335 335 336
312 316 317 318 318 317 315 319 316 318 318 322 323 324 323 324 326 326 327 329 330 331 334 339 342 347 349 345 344 345 343 343 341 341 344 342 338 339 339 337 335 336 335 334 334 333 334 335 335
311 314 316 317 318 318 319 316 316 317 320 322 322 322 323 324 324 326 327 329 332 331 333 338 343 348 349 349 345 345 341 339 338 337 340 341 338 338 338 338 336 334 333 333 333 333 334 333 334
313 312 312 314 315 317 314 315 316 317 318 319 320 319 320 321 322 324 326 328 332 334 334 338 342 347 348 348 349 344 341 337 337 335 337 342 339 339 338 338 335 335 336 335 333 333 332 332 333
313 309 311 312 314 312 315 310 311 317 317 317 317 318 319 320 321 322 325 329 332 335 337 338 342 346 349 347 345 341 337 337 334 335 341 341 342 341 341 338 336 337 339 338 336 333 333 332 332
307 309 304 311 312 313 312 305 312 316 315 314 315 316 317 320 321 323 326 329 332 335 336 338 337 343 347 346 342 337 336 335 335 337 339 342 342 342 340 336 336 338 338 336 333 330 330 330 330
305 300 303 306 312 310 309 306 312 316 314 313 314 316 317 318 321 325 327 330 333 335 336 335 338 341 343 343 339 339 339 336 337 338 338 341 341 341 339 339 337 339 336 335 335 332 331 329 331
299 300 302 303 310 307 306 306 311 314 313 312 315 316 317 318 319 324 328 330 331 334 335 336 337 340 342 338 338 335 335 335 337 337 338 340 341 340 340 339 338 332 330 334 332 332 332 331 332
303 303 302 306 309 307 306 306 310 313 312 312 314 316 317 318 322 326 327 329 328 332 333 335 336 340 337 334 332 331 330 332 335 337 340 340 340 338 338 338 330 331 330 328 332 333 329 331 333
301 300 301 305 308 307 305 305 309 312 312 313 314 315 317 318 321 325 327 327 329 331 333 335 336 338 337 334 334 333 332 333 336 338 340 340 339 338 337 335 334 330 326 330 331 331 330 330 334
300 299 299 300 305 307 304 302 305 310 313 314 315 317 317 317 320 324 325 327 329 331 333 334 337 338 338 338 336 336 337 336 334 335 336 338 338 338 336 335 331 331 330 331 333 332 329 328 333
297 302 301 300 299 295 304 294 303 307 310 312 314 315 316 317 322 324 326 328 330 331 333 335 337 338 338 338 335 335 330 328 335 335 338 337 337 336 336 335 333 334 334 334 334 332 331 332 330
299 303 301 301 299 298 298 296 301 307 306 309 313 315 316 320 322 325 326 328 329 331 333 335 337 337 337 337 337 334 333 334 335 335 334 337 337 335 333 336 334 334 336 336 334 331 330 335 333
303 301 300 301 299 292 298 297 298 303 307 310 312 313 316 321 323 325 327 328 329 331 333 335 335 335 337 337 338 336 335 333 332 332 332 335 337 336 335 334 335 336 336 333 333 333 332 334 335
301 298 292 291 291 291 301 298 301 308 310 310 311 314 320 322 324 324 325 326 328 329 331 332 333 333 336 336 337 336 336 334 334 333 334 332 334 334 334 335 335 335 335 335 334 334 333 334 335
298 299 294 288 290 294 301 295 301 308 311 312 312 316 321 322 325 325 325 327 327 329 330 330 332 332 333 335 336 336 336 336 335 334 333 335 334 335 336 335 336 335 335 335 335 333 333 335 336
298 296 303 297 298 295 299 301 305 308 308 311 313 314 318 322 324 324 326 327 328 329 330 331 330 331 333 335 335 337 336 337 336 335 336 334 335 332 335 335 335 335 335 335 336 336 335 336 336
301 304 296 298 290 289 296 298 300 305 306 311 314 315 319 323 324 325 326 327 328 330 331 332 330 331 333 334 335 335 336 337 336 336 334 333 334 333 334 334 334 335 335 334 335 334 335 334 332
299 298 300 300 298 292 291 296 305 307 310 312 315 319 321 322 323 324 325 327 329 330 330 329 330 330 332 333 334 336 336 335 336 335 334 334 334 334 333 333 334 333 334 337 336 334 333 331 333
302 300 300 295 294 297 296 296 310 311 314 316 318 320 322 323 323 324 325 326 327 328 328 327 329 329 331 332 333 335 335 334 336 334 335 335 334 333 332 332 332 332 334 335 331 331 332 330 329

GFSSGP_sfc_thetae_027.txt.gz
Theta_e
336 328 331 328 315 312 310 311 320 318 318 322 323 320 319 321 316 312 337 339 338 338 349 350 353 353 352 350 349 348 347 345 342 341 339 338 337 335 335 334 334 335 335 335 336 337 337 338 337
325 324 328 323 310 308 309 316 317 321 323 325 325 323 320 317 324 325 331 340 338 338 350 344 354 353 353 351 350 349 348 346 344 342 341 340 339 338 337 337 338 339 339 339 338 339 340 341 340
332 327 322 316 313 308 310 318 320 323 324 323 321 323 321 319 326 327 338 341 339 338 349 347 354 353 353 352 350 350 349 348 345 343 342 342 341 341 340 340 341 341 342 341 341 341 341 341 342
325 325 322 314 312 317 316 321 322 320 323 322 322 317 323 328 326 330 337 339 337 337 343 353 353 354 354 353 351 350 350 348 347 345 344 343 342 342 342 341 342 343 344 343 343 343 342 343 343
326 322 313 310 310 315 319 323 323 320 321 320 321 317 320 328 330 331 336 338 336 337 339 350 354 354 354 354 352 351 350 350 349 346 344 344 345 345 345 344 345 346 345 345 344 344 344 343 343
318 319 310 307 309 314 319 323 323 322 322 321 318 318 321 329 330 331 334 338 338 337 340 344 355 354 354 353 352 352 351 350 350 349 348 347 347 347 345 346 346 344 344 342 341 341 343 343 342
315 315 310 310 310 312 316 321 320 320 319 320 322 317 323 328 332 332 334 337 340 338 340 342 355 355 354 353 352 352 352 351 351 350 349 349 348 349 348 347 345 343 340 338 338 339 340 342 341
317 315 310 312 309 309 317 318 321 320 319 326 324 317 319 328 332 333 334 335 336 339 339 341 348 354 352 349 354 353 353 352 351 351 350 350 349 349 347 346 343 340 338 337 336 336 337 339 341
321 310 308 310 311 313 319 317 322 323 321 322 323 323 326 329 331 330 330 332 334 335 339 341 340 346 350 347 349 353 352 351 351 349 350 350 343 341 345 344 342 339 338 336 336 336 336 336 338
316 313 312 317 316 315 318 318 319 319 319 319 321 325 327 328 329 328 328 327 329 332 336 338 342 345 347 343 350 352 348 347 346 346 347 348 346 343 339 342 337 338 338 337 336 335 335 336 333
317 312 318 318 320 320 318 318 321 318 316 319 319 322 325 327 327 327 327 327 328 332 334 338 351 353 349 345 344 349 348 346 347 350 353 351 343 340 339 339 339 339 340 337 337 336 335 335 333
312 317 319 319 320 319 317 320 318 319 320 324 323 325 325 325 324 325 326 326 327 329 334 336 343 353 356 348 343 345 347 347 345 345 353 348 341 341 340 338 338 340 337 338 337 334 338 335 334
312 314 317 318 318 319 320 317 318 319 323 325 324 324 323 324 324 325 326 327 328 329 332 336 345 354 356 357 346 346 348 344 345 343 345 343 339 342 340 341 338 340 337 336 334 336 336 335 333
315 316 316 317 316 318 316 316 317 320 323 322 322 322 323 323 323 324 326 327 330 334 334 338 344 356 353 353 358 352 353 345 341 339 339 344 341 344 339 340 338 337 337 337 336 333 334 334 333
315 311 314 315 316 314 316 311 313 319 321 320 320 321 322 322 323 324 326 331 332 333 342 343 349 355 356 355 355 352 346 343 339 337 343 340 344 344 343 338 338 339 343 339 339 337 336 332 333
309 311 305 312 314 315 314 307 315 319 319 318 319 319 320 321 322 325 327 332 336 338 341 341 338 345 354 354 352 348 342 340 337 337 338 343 344 344 342 339 338 343 342 342 337 335 334 332 331
308 302 305 307 314 313 312 308 315 319 318 317 318 319 319 320 323 328 327 328 335 340 340 340 345 343 350 355 350 348 349 339 336 337 338 341 342 342 341 339 341 343 340 340 336 335 335 332 330
301 302 304 304 310 312 310 310 314 317 315 315 317 318 318 319 321 327 329 328 333 337 340 344 343 348 353 349 348 340 338 337 336 337 338 341 341 342 342 341 342 341 338 331 332 333 335 334 335
305 304 304 307 311 309 308 309 312 315 315 315 316 318 318 319 324 326 328 333 333 336 339 341 341 351 348 342 336 335 333 336 335 336 340 340 341 340 343 340 340 337 332 333 333 329 326 333 334
302 302 302 307 310 309 308 308 312 314 314 315 315 317 318 319 321 324 326 333 333 336 338 339 341 346 345 340 341 337 337 334 334 336 340 340 340 342 340 340 339 337 332 333 332 332 330 331 333
301 300 302 303 308 309 308 305 307 311 314 315 316 317 318 319 320 323 324 333 334 334 337 338 341 342 345 346 342 338 338 339 335 334 336 339 339 340 339 338 337 335 336 331 335 334 331 329 332
298 304 304 304 303 298 306 297 305 309 310 312 314 316 318 320 322 322 328 332 333 334 337 339 341 341 341 344 343 344 333 329 333 336 334 338 338 337 336 337 336 335 335 337 335 337 334 333 329
300 305 304 304 301 301 301 298 302 307 306 309 314 316 319 320 321 321 329 332 333 335 336 339 340 339 341 341 342 335 335 331 333 333 336 339 340 337 336 336 335 336 340 335 335 334 334 336 333
305 302 303 304 301 294 300 299 300 303 307 311 314 316 318 319 320 326 331 333 333 334 336 338 338 338 339 338 339 339 337 334 332 333 334 339 340 338 337 334 336 337 337 335 333 334 334 335 336
303 300 293 292 293 293 301 298 302 308 312 313 313 316 317 319 325 328 329 329 331 333 335 335 336 336 337 337 337 337 337 337 336 336 336 337 337 335 337 336 336 336 336 335 336 336 334 335 335
300 300 294 288 291 294 301 296 302 313 314 314 315 316 321 324 327 328 328 330 331 332 334 333 335 334 335 335 336 336 338 336 338 336 335 334 336 338 337 335 336 335 335 335 335 336 338 337 337
299 298 303 298 301 296 301 304 310 313 312 313 312 314 322 324 327 327 329 330 331 332 333 334 334 334 334 334 336 336 337 337 337 336 337 334 337 334 335 335 335 335 335 335 336 337 335 336 334
301 305 296 299 291 291 298 301 302 307 309 311 312 314 320 325 326 327 329 330 331 332 333 334 333 332 333 334 334 335 336 337 337 336 335 336 337 334 334 335 335 335 335 335 337 337 336 334 329
298 299 300 301 299 294 294 298 310 309 311 312 315 316 320 325 326 327 328 330 331 332 332 332 332 331 332 333 334 337 337 335 337 337 335 335 334 334 332 334 334 334 334 336 336 335 332 332 330
302 301 301 298 296 300 299 298 311 312 314 317 317 318 324 325 326 327 328 329 330 331 331 329 331 331 332 332 333 336 335 334 337 335 335 336 334 332 332 332 333 332 332 335 333 332 333 331 330

GFSSGP_sfc_thetae_030.txt.gz
Theta_e
336 328 323 322 311 309 307 310 317 317 317 321 322 319 317 319 315 312 337 338 341 347 345 347 352 352 351 349 348 347 346 346 345 343 341 339 337 335 335 334 334 334 334 334 335 335 337 338 337
325 321 323 319 307 304 306 313 313 319 322 323 323 322 320 317 323 328 331 338 340 348 347 344 352 352 351 350 349 348 348 347 346 344 341 341 339 337 336 336 336 337 337 338 338 338 338 340 340
331 327 317 312 310 305 307 316 318 322 324 322 319 323 320 320 325 329 338 339 341 348 348 346 353 352 353 351 350 349 349 348 347 344 342 341 340 339 339 339 339 340 341 342 342 341 341 341 341
324 320 317 309 308 312 314 319 322 321 324 323 321 316 323 328 327 330 336 336 336 343 347 351 352 353 353 352 351 350 349 349 347 345 344 343 343 343 344 342 341 341 343 344 344 344 344 343 345
323 318 309 307 308 312 315 319 322 320 321 321 321 316 320 327 330 332 336 337 336 336 345 352 352 354 354 353 352 351 350 349 348 347 346 346 346 346 345 344 343 345 346 345 344 344 344 344 343
313 315 306 305 309 313 316 319 320 320 321 322 319 318 321 328 329 330 334 339 336 338 343 353 353 353 353 353 352 351 350 350 350 348 348 348 347 347 347 347 345 346 345 344 342 341 341 344 344
312 310 306 308 309 311 314 321 318 317 319 319 322 316 323 327 331 336 336 338 340 340 341 354 352 353 355 353 352 351 350 350 350 349 349 349 349 349 349 348 348 346 345 342 339 339 339 339 342
314 311 307 309 309 309 316 317 319 318 317 325 325 317 318 329 332 332 332 332 336 337 337 352 352 351 351 351 353 352 351 351 350 350 350 349 350 349 349 348 349 347 344 340 338 338 337 337 339
317 305 304 307 309 311 317 315 320 322 319 321 323 322 325 328 328 328 329 328 329 332 337 345 352 352 350 347 350 353 353 352 352 351 351 349 344 341 344 345 348 347 343 340 339 337 337 337 336
312 306 307 313 314 314 317 317 318 318 318 319 320 324 326 327 327 326 326 326 328 328 335 338 342 350 350 347 346 350 350 349 348 345 345 346 343 344 342 343 349 344 342 340 339 338 337 336 331
315 308 312 314 318 319 317 317 320 317 315 319 318 321 324 325 327 327 325 326 327 329 330 337 344 348 348 345 345 350 348 346 345 344 345 347 346 345 342 339 340 339 340 336 338 336 334 333 331
308 315 315 316 318 318 316 319 317 318 319 323 324 324 325 325 325 325 324 325 327 329 336 339 346 349 347 346 345 350 348 346 344 344 347 346 346 345 342 339 341 338 338 337 336 334 334 333 336
310 311 314 317 318 318 318 316 315 317 321 324 324 324 324 325 326 327 327 327 330 332 338 340 349 347 349 351 345 348 349 346 345 347 347 347 344 342 343 341 342 341 340 338 337 336 335 334 333
313 313 313 315 315 316 314 315 315 317 322 321 322 322 324 324 325 325 328 330 336 339 340 343 350 349 349 346 352 351 350 349 347 347 347 347 345 343 343 344 341 340 340 337 337 335 335 333 332
311 309 312 313 314 314 316 311 312 318 319 319 319 321 322 324 324 324 327 333 341 341 341 342 349 352 350 351 349 359 352 351 348 346 348 345 344 344 346 342 341 339 339 339 337 336 336 334 332
307 307 303 311 313 314 313 306 315 318 317 317 319 320 321 323 324 326 330 334 345 343 339 347 337 352 352 353 352 350 350 349 349 344 345 344 346 346 345 341 339 340 341 339 336 334 333 333 331
305 300 302 306 312 312 312 307 314 318 317 317 319 320 321 322 324 331 332 332 338 342 348 347 348 351 351 354 353 351 355 347 345 345 343 344 344 344 342 340 340 342 339 336 335 333 332 330 330
298 299 302 303 309 311 309 309 314 317 317 317 318 319 319 319 322 327 333 333 337 343 345 352 352 354 351 352 352 349 347 345 344 343 343 346 344 343 342 339 341 340 337 335 334 331 332 330 329
302 302 301 306 310 308 308 308 311 315 315 315 317 318 319 321 325 329 331 333 342 342 345 351 351 353 350 348 344 341 339 340 340 342 343 343 344 342 342 340 339 338 335 333 332 331 329 324 327
299 299 300 306 309 308 307 307 312 314 315 316 316 318 319 320 322 326 331 336 341 343 345 347 348 350 349 347 346 341 339 337 339 340 343 343 342 341 341 340 338 337 334 332 331 330 326 325 328
299 298 300 300 305 307 306 304 308 312 315 316 317 318 319 319 319 321 325 338 338 339 341 342 346 348 348 345 345 348 343 344 340 341 340 342 341 341 340 338 338 336 334 331 331 330 328 325 328
296 301 301 301 299 296 305 295 306 310 311 313 315 316 317 319 321 322 325 335 336 337 339 342 345 345 346 347 344 342 336 335 338 337 339 341 342 340 339 339 335 334 334 332 332 332 329 327 323
298 302 301 301 299 300 299 298 302 308 307 310 313 315 317 320 322 323 328 334 335 337 338 342 343 342 345 346 343 341 341 340 341 338 340 341 340 340 338 337 336 335 335 333 332 331 329 329 326
304 300 300 301 300 293 299 298 298 302 307 310 313 315 317 319 321 324 333 334 334 336 337 340 340 341 342 344 345 343 341 340 338 338 337 338 340 338 338 336 336 336 335 333 334 332 331 329 329
300 299 291 290 291 290 300 297 300 307 310 311 312 316 318 321 321 329 330 331 332 334 336 338 338 338 340 342 341 342 342 342 340 339 337 338 337 335 337 336 336 335 335 335 333 332 332 330 328
298 298 292 285 288 291 299 294 300 310 313 314 314 316 319 322 326 329 330 330 331 334 335 335 336 336 337 338 339 341 342 339 340 340 338 337 337 336 337 335 335 335 335 333 334 333 330 330 330
297 294 301 296 297 293 297 302 307 311 311 314 313 316 320 326 328 328 329 330 332 333 335 335 335 335 336 337 339 340 340 341 339 340 340 338 338 335 336 335 336 336 335 335 334 330 330 331 329
299 302 294 297 288 288 294 298 300 307 309 314 313 314 323 326 327 327 328 331 332 334 335 336 336 335 336 337 337 335 338 338 339 340 337 338 337 333 335 336 335 335 334 334 333 332 334 330 328
296 295 298 300 296 291 291 296 312 310 313 312 313 315 323 325 326 327 328 331 332 333 333 335 334 333 334 335 338 337 337 334 338 336 337 337 337 335 333 333 335 334 333 333 332 333 330 328 327
299 297 298 294 293 297 297 297 313 312 314 316 314 316 324 325 326 327 329 330 330 331 332 332 333 331 333 334 335 337 333 334 336 336 336 337 334 333 333 332 332 332 332 335 332 330 332 330 328

GFSSGP_sfc_thetae_033.txt.gz
Theta_e
334 330 322 315 303 303 300 304 310 312 314 315 317 314 311 313 314 309 326 339 342 341 345 348 353 352 351 350 349 348 347 346 344 343 340 338 338 336 336 335 335 335 334 334 334 334 335 336 336
326 321 314 313 300 296 300 308 311 315 318 320 320 316 314 314 324 326 327 342 342 340 343 344 352 352 351 350 349 348 347 346 346 343 340 339 338 337 336 336 336 337 336 336 337 337 337 338 338
330 326 307 305 303 299 299 311 315 319 321 319 317 320 317 317 327 327 331 344 342 339 341 342 352 351 351 350 349 348 348 347 346 343 341 340 339 339 340 338 338 339 340 340 341 341 340 340 341
318 317 310 303 302 307 309 313 319 319 322 321 319 315 319 327 325 330 341 344 342 340 339 347 353 352 351 351 350 349 349 348 347 345 344 342 342 342 342 341 341 341 341 342 343 344 344 343 343
317 312 300 300 303 309 313 316 319 318 320 320 320 315 316 323 329 330 336 343 341 341 339 347 352 352 353 352 351 350 350 349 348 348 346 345 346 346 344 342 342 342 344 345 345 344 343 343 343
307 308 298 298 303 310 313 314 320 319 319 319 319 317 316 323 324 328 330 332 341 340 339 346 352 353 352 352 351 350 350 349 349 349 349 348 348 348 347 345 344 344 346 346 343 343 341 341 341
307 302 298 301 303 307 312 316 312 311 313 316 319 314 317 321 325 326 328 329 329 341 341 344 346 349 354 352 351 351 349 349 348 348 348 349 349 348 348 348 347 346 348 345 344 341 339 339 339
313 303 298 301 302 304 313 315 312 314 315 323 322 314 313 321 326 326 324 327 327 337 344 343 344 345 346 347 353 351 350 350 349 348 349 349 349 348 349 348 349 348 347 346 343 340 339 338 338
321 301 297 300 303 306 314 311 317 320 317 318 320 320 323 324 325 320 318 319 322 330 343 344 343 344 343 344 348 351 352 351 350 349 349 347 341 343 344 346 348 348 348 346 343 340 340 338 338
315 302 301 307 308 308 312 313 315 316 316 316 318 322 324 322 320 317 316 316 316 317 340 344 343 343 343 345 344 345 345 344 345 344 343 342 339 336 340 343 349 349 349 347 344 342 340 338 330
311 305 309 309 311 312 312 314 318 314 312 315 315 319 322 321 319 318 317 316 316 319 327 343 343 344 343 342 342 344 344 343 344 342 339 341 339 337 339 334 340 341 345 336 339 336 334 330 328
304 311 312 312 313 312 311 315 314 315 313 317 319 321 321 320 317 317 317 317 317 318 319 335 343 345 343 343 340 343 342 342 342 341 337 338 338 338 336 331 332 333 333 331 330 331 332 329 330
306 307 310 313 314 314 315 313 313 314 318 318 319 320 317 317 318 319 319 318 318 316 319 325 335 344 343 339 340 342 342 341 340 339 339 338 338 336 332 329 330 331 330 332 330 330 332 328 328
306 309 310 311 310 311 310 311 312 314 317 316 317 316 316 317 317 317 318 318 318 319 321 322 334 339 341 339 339 343 343 342 340 339 339 341 340 334 332 332 332 330 330 327 329 328 327 326 327
304 301 305 307 310 309 311 306 308 314 315 315 314 315 316 316 317 317 318 318 320 324 322 323 326 336 339 338 340 342 343 342 340 339 341 342 337 333 333 330 331 331 330 330 329 329 328 327 326
302 301 296 303 306 309 309 301 309 313 313 313 315 316 315 315 317 318 318 318 322 323 322 324 344 340 340 338 340 343 342 339 338 336 340 339 335 333 333 331 330 331 330 328 327 327 326 326 326
297 293 296 299 307 306 306 302 310 313 313 312 314 314 315 315 316 317 320 318 318 322 321 326 335 340 341 341 340 341 340 335 334 332 333 337 336 337 333 332 330 331 330 329 328 326 325 324 324
291 294 297 297 303 305 303 303 308 311 311 311 312 314 315 315 314 316 319 321 321 326 331 331 339 341 342 343 341 340 335 333 332 332 332 334 335 336 333 331 330 331 328 326 326 325 324 323 323
297 297 296 300 304 302 302 303 306 310 308 308 309 310 311 313 315 316 320 319 326 326 330 334 340 340 344 341 339 334 331 330 332 334 332 336 335 336 333 334 330 330 327 326 326 324 322 320 322
295 292 292 299 304 302 302 301 306 309 308 309 310 311 310 312 314 316 317 320 326 327 333 335 338 340 339 340 336 333 330 329 328 330 331 333 334 332 331 330 329 327 327 326 326 325 319 318 320
293 292 293 293 298 300 299 297 300 305 307 310 310 310 311 312 311 313 314 325 327 329 331 332 335 338 338 338 335 332 330 328 327 327 329 331 332 332 330 330 328 328 327 323 322 322 320 317 319
290 297 297 296 294 289 297 288 297 301 303 306 309 308 309 309 312 312 312 325 327 329 331 334 337 337 335 334 332 329 324 323 325 325 328 331 332 334 332 330 328 326 325 323 323 325 322 321 318
292 299 297 296 293 292 293 289 295 300 300 303 305 308 309 310 311 312 313 328 328 330 331 335 335 333 335 331 331 327 324 326 327 328 328 329 329 331 332 330 328 326 325 324 323 323 322 321 318
298 296 295 295 292 285 291 291 292 295 299 302 306 308 309 309 310 316 327 329 329 332 333 334 332 332 332 331 330 325 324 325 324 325 324 324 326 327 329 330 327 326 325 324 323 323 322 323 323
292 289 283 282 283 283 293 291 294 298 303 305 305 307 308 310 313 324 325 326 328 329 331 331 330 329 329 332 329 329 326 325 325 325 325 325 325 326 326 326 326 325 325 326 326 324 324 324 323
288 289 284 278 281 285 293 288 292 302 305 307 308 308 312 313 322 323 325 325 327 330 330 329 329 328 329 328 328 328 327 326 327 326 326 326 325 326 326 326 326 327 327 327 326 325 323 323 322
288 285 293 287 289 285 289 293 299 302 302 305 306 310 317 320 322 323 324 325 328 329 328 328 328 327 329 328 327 328 328 328 327 327 326 327 326 326 326 326 326 327 327 326 325 323 324 324 321
294 293 285 288 280 280 288 290 291 298 302 303 306 310 317 320 321 322 323 326 328 328 328 328 328 327 328 328 327 328 328 329 328 326 325 326 326 326 326 327 327 327 326 326 327 324 325 322 323
290 288 288 288 288 283 283 288 299 300 303 303 306 317 318 318 320 322 324 326 327 328 328 327 327 327 326 326 326 328 328 329 327 327 327 325 325 326 327 329 328 327 327 327 324 323 326 325 323
293 290 289 284 284 289 288 289 302 306 305 306 312 317 318 320 321 323 324 325 325 326 326 325 325 325 326 327 327 327 330 328 326 326 326 324 326 324 326 328 328 328 327 325 324 324 325 325 324

GFSSGP_sfc_thetae_036.txt.gz
Theta_e
333 328 319 314 302 301 297 303 308 309 311 315 316 313 311 313 312 307 323 337 341 339 347 351 353 352 351 350 349 348 346 345 345 343 339 337 337 336 336 335 334 334 335 334 334 334 334 335 335
325 321 312 311 298 294 296 304 306 314 317 319 316 315 316 316 323 325 331 341 340 341 344 345 353 352 352 350 349 348 347 346 345 343 340 338 338 337 337 336 336 336 336 336 337 337 338 337 337
326 325 306 304 300 296 296 309 313 316 319 319 317 318 317 318 327 327 331 341 339 339 343 343 353 352 352 351 349 348 347 346 346 344 342 340 340 340 339 337 337 338 339 339 341 341 341 341 341
318 315 308 300 299 304 306 310 313 316 319 321 321 315 318 326 327 329 341 340 337 338 341 347 352 352 352 351 350 348 348 347 347 345 345 343 341 342 341 339 340 340 341 342 343 343 344 343 343
315 309 299 298 301 306 311 313 313 315 316 320 321 314 315 324 330 341 341 339 335 336 337 345 352 352 352 352 350 349 348 348 348 348 346 346 345 344 342 342 342 341 342 343 345 345 344 343 343
305 305 296 296 301 307 310 312 314 316 318 319 318 318 314 322 330 339 341 338 337 335 334 340 351 352 351 351 350 349 348 348 348 348 348 347 347 347 344 343 342 343 344 346 346 344 344 343 341
305 299 295 298 301 304 309 314 311 315 315 315 317 313 315 320 324 335 339 339 338 337 333 339 343 349 352 350 350 349 348 348 348 348 348 348 348 348 348 347 344 344 345 346 346 344 343 341 340
310 302 296 297 300 301 310 312 312 312 315 320 322 313 310 318 323 325 331 332 336 337 335 338 339 343 344 345 351 350 349 348 348 348 348 348 348 348 348 346 347 346 347 347 346 345 343 341 339
317 299 294 297 300 304 310 308 315 318 316 317 318 318 321 325 323 320 318 319 323 335 335 339 339 338 341 342 346 350 350 350 349 348 348 346 342 341 343 345 346 346 348 348 346 346 343 341 339
311 305 302 305 306 304 307 308 310 313 314 314 318 320 322 323 321 319 317 317 319 330 336 339 339 338 338 341 341 344 343 343 343 341 341 341 339 336 342 344 347 347 349 349 348 346 342 341 331
310 307 311 311 309 309 309 309 312 311 310 313 313 316 319 319 317 317 317 316 316 323 336 340 339 340 339 338 339 343 341 340 340 340 339 340 339 337 338 334 336 340 347 342 343 339 336 332 329
305 311 313 313 313 311 309 311 309 311 312 317 317 318 319 318 317 317 315 316 315 316 330 339 339 339 339 338 338 340 340 339 340 340 339 338 336 333 332 333 332 334 335 334 331 331 330 330 329
302 307 309 312 312 312 313 310 310 311 316 318 318 316 315 317 316 316 317 317 316 314 316 337 339 339 340 338 339 339 339 339 339 339 338 338 336 333 333 333 330 331 330 330 328 327 329 329 329
300 301 305 308 307 308 308 309 310 312 315 315 315 314 315 315 315 314 315 315 314 316 316 325 338 339 340 339 338 339 339 339 338 338 338 337 336 335 335 330 326 328 329 329 331 331 328 328 328
300 296 300 302 303 306 309 305 306 312 314 312 313 314 314 313 314 314 316 316 316 316 318 319 332 339 339 339 337 339 339 339 338 337 337 337 337 336 334 330 329 328 328 327 330 328 326 325 325
297 296 292 300 303 304 304 297 308 312 311 310 311 313 314 315 315 316 315 314 315 316 319 319 327 334 338 338 335 339 340 340 338 337 337 338 338 336 331 329 328 329 328 327 325 325 324 324 324
292 291 294 297 303 303 302 299 306 310 310 308 309 311 313 314 314 313 316 317 317 318 319 317 328 331 334 333 337 339 339 339 335 336 338 339 338 334 331 329 328 328 327 325 325 324 323 321 321
289 290 294 295 300 303 301 300 305 308 308 308 309 311 312 313 314 315 316 317 316 316 318 320 333 333 335 335 335 335 333 331 331 333 336 335 335 335 330 330 328 328 326 325 324 323 322 322 321
294 293 293 297 301 300 299 300 303 306 306 305 307 309 310 312 315 317 317 315 319 324 326 327 333 334 338 336 334 331 328 327 327 330 334 334 332 333 329 329 328 327 326 324 323 323 323 322 321
292 290 290 294 297 298 298 298 303 305 306 307 307 308 308 307 310 313 314 319 322 324 326 331 334 337 337 336 332 330 328 326 327 329 332 334 333 332 331 329 327 327 324 324 323 322 319 319 319
291 289 290 291 295 297 294 292 295 301 303 305 306 307 308 308 309 311 313 317 321 325 329 332 335 335 335 334 332 327 327 326 324 324 325 329 332 331 330 328 327 325 325 322 321 320 318 315 315
287 294 294 292 290 286 294 285 293 298 299 302 304 304 304 307 309 310 310 319 322 326 329 333 335 335 335 333 330 327 323 321 322 324 325 328 330 329 331 328 327 325 324 322 320 322 319 317 315
289 296 294 294 291 288 290 285 291 296 296 299 302 303 306 308 307 307 309 321 324 327 329 333 333 333 331 330 330 325 322 322 322 325 325 326 327 329 330 328 326 324 322 321 321 321 320 319 316
293 292 292 292 287 282 288 287 289 292 295 298 302 304 305 306 307 310 317 326 326 330 333 332 330 329 328 328 326 324 324 322 323 323 323 323 324 326 328 328 325 324 322 322 322 321 320 319 319
288 282 278 277 279 281 290 287 290 294 297 299 301 303 306 306 307 320 322 324 327 330 331 329 329 326 327 325 325 324 323 323 323 322 321 322 322 323 324 324 323 323 323 323 323 322 321 320 320
284 283 279 275 277 282 290 284 289 298 302 303 304 305 305 307 312 320 323 325 328 329 329 328 326 325 326 326 325 324 324 324 323 322 323 323 323 323 324 324 323 324 325 325 324 322 321 321 320
287 282 286 281 285 281 286 291 296 300 300 302 301 303 310 315 318 320 322 326 327 327 327 327 325 325 324 324 325 324 325 325 323 324 323 324 324 324 324 324 324 324 325 325 323 321 322 322 320
289 292 281 280 277 277 283 286 288 294 297 299 299 302 313 316 319 320 323 326 327 326 327 325 325 325 324 324 325 325 325 326 325 324 324 324 323 323 324 323 324 324 325 325 323 322 325 322 320
285 285 285 283 282 280 278 284 294 296 298 299 301 310 316 317 319 321 324 325 326 327 326 324 324 324 324 323 324 323 324 326 325 323 324 324 323 323 324 326 326 325 325 324 322 321 323 319 320
290 287 286 279 279 283 285 285 298 298 301 302 303 315 317 319 319 322 324 324 325 326 325 324 323 324 323 323 325 324 325 325 324 324 324 322 323 323 325 327 326 326 325 322 323 323 324 324 322

GFSSGP_sfc_thetae_039.txt.gz
Theta_e
337 328 316 312 301 300 296 299 305 307 309 316 316 311 313 314 313 304 320 336 338 338 346 351 353 353 351 350 349 348 347 346 345 343 340 338 337 337 336 335 335 334 334 334 334 334 334 334 334
322 320 312 309 296 293 295 303 303 309 316 319 314 313 313 314 321 323 325 337 339 341 346 348 353 352 352 350 349 348 347 346 345 344 340 338 338 337 337 336 335 335 336 336 336 336 336 337 336
323 320 306 303 298 293 296 304 310 314 316 316 315 316 316 317 326 326 330 339 338 340 345 345 353 352 351 351 350 348 347 346 346 343 341 340 339 339 339 338 337 337 338 337 338 340 340 340 340
316 313 306 299 298 302 301 307 309 311 314 318 317 313 317 325 326 328 339 338 337 339 343 347 353 352 352 351 350 349 347 347 347 345 343 341 340 341 340 338 338 338 339 340 340 342 342 342 342
313 307 298 296 299 304 308 310 309 309 313 316 317 312 315 323 330 338 338 338 334 336 339 343 352 352 352 351 350 349 348 347 347 347 345 344 344 343 341 339 340 340 341 342 343 343 344 344 344
305 304 295 294 299 305 308 309 309 313 315 317 315 313 314 322 331 337 338 335 335 334 336 338 351 352 352 352 350 349 348 347 347 347 347 346 345 344 342 341 341 342 342 343 344 345 345 344 342
303 299 295 296 299 302 307 309 308 308 312 314 316 313 313 318 327 338 337 335 333 333 333 335 344 348 353 351 350 349 348 347 347 348 347 347 347 346 345 344 343 342 343 344 345 346 345 344 342
307 301 296 297 298 300 308 308 309 310 311 318 320 312 309 317 324 335 335 332 331 331 330 332 339 342 344 345 351 350 348 348 347 348 348 347 347 348 347 346 346 343 344 345 346 347 346 344 342
310 297 294 297 299 302 307 305 312 314 313 315 316 316 319 321 322 322 320 321 327 334 330 330 335 338 340 341 344 349 349 349 348 348 349 345 341 342 342 345 345 345 345 347 347 347 347 344 340
308 299 299 303 305 303 306 305 308 309 310 310 314 318 320 322 318 318 317 322 321 330 332 334 334 334 336 338 337 342 342 341 342 341 341 341 338 337 341 342 345 345 346 348 349 348 346 342 332
309 304 308 307 308 311 310 307 309 308 306 310 312 315 317 318 317 317 318 319 322 326 332 335 335 335 333 335 336 339 340 339 340 339 337 338 338 337 339 335 337 338 345 340 343 343 339 333 330
303 310 313 313 315 313 310 313 309 309 309 314 316 317 316 316 314 315 316 316 314 315 325 335 337 335 334 333 335 336 338 338 337 338 336 336 335 333 333 333 331 331 335 338 336 333 332 331 331
302 306 308 313 314 313 313 310 310 310 314 317 317 317 315 314 314 315 315 316 315 311 316 329 336 336 336 333 334 335 337 336 335 336 337 336 334 331 331 329 330 331 331 333 330 329 329 328 328
298 299 303 305 305 307 307 308 310 312 315 314 314 313 312 312 313 313 313 313 313 314 313 323 335 336 337 336 334 334 335 336 335 336 337 336 334 331 330 330 329 328 329 330 329 328 326 326 327
297 294 297 299 299 300 306 302 304 310 312 311 311 311 311 312 312 312 313 313 314 315 315 316 333 336 336 336 335 335 336 336 335 335 336 336 334 331 330 329 326 328 327 327 327 329 326 326 324
294 293 291 298 300 301 303 296 305 310 311 310 310 311 311 311 312 313 314 313 314 313 313 314 327 335 335 335 336 335 336 336 335 335 336 336 335 334 330 330 329 328 326 325 325 327 327 324 322
291 290 291 295 301 301 301 297 305 308 308 307 308 308 310 311 311 313 314 315 314 314 314 314 321 331 335 335 334 334 335 336 336 335 335 335 335 335 331 329 328 327 325 324 324 322 322 320 321
287 288 292 292 298 300 299 298 303 306 306 305 306 307 308 309 311 314 315 315 314 314 314 315 317 324 329 329 330 331 333 332 334 335 336 336 336 334 331 331 327 326 324 323 322 322 321 322 323
291 289 290 294 299 299 298 298 300 303 304 304 306 307 308 309 311 313 313 314 313 313 313 315 318 326 330 331 331 329 331 329 328 333 336 335 335 333 331 328 326 326 324 324 322 322 321 322 322
289 287 287 292 296 294 294 295 298 301 303 303 304 306 306 307 309 311 311 311 312 315 317 318 322 330 331 332 328 328 327 325 327 331 334 334 334 334 331 326 325 324 324 322 322 324 321 317 318
288 287 288 289 293 294 292 290 293 297 299 302 305 305 305 306 307 308 309 310 313 316 320 323 328 330 331 330 328 325 325 324 323 324 326 329 332 332 330 327 326 324 323 322 322 323 318 314 314
283 291 292 291 288 284 291 283 290 294 296 298 299 302 302 304 307 307 308 308 314 318 326 329 331 332 332 330 327 327 323 321 320 322 324 327 329 329 329 328 326 324 323 321 320 321 317 315 312
286 291 291 290 288 285 287 283 289 293 292 296 299 301 301 304 305 304 305 308 315 324 326 329 332 331 330 328 328 325 322 321 321 322 323 323 325 327 328 328 327 322 321 320 320 319 317 317 314
291 288 288 288 285 279 286 285 286 289 293 296 298 299 302 302 303 304 307 310 321 325 329 330 331 327 328 327 325 324 322 320 321 321 321 322 323 324 326 326 324 322 321 320 320 319 318 317 316
286 280 275 276 276 279 288 285 288 292 295 296 296 298 300 302 301 305 315 319 322 326 327 328 329 324 325 324 323 323 321 322 322 321 321 321 320 321 323 323 322 321 321 321 321 319 319 317 317
282 281 276 274 276 279 288 283 288 296 299 300 300 299 300 300 301 304 316 320 325 327 327 327 327 323 323 323 321 322 322 322 321 321 321 321 321 322 323 322 322 322 323 322 321 320 319 319 319
285 280 284 279 281 278 283 288 294 297 297 299 298 298 298 300 308 315 320 324 326 327 325 325 325 323 323 323 322 323 323 322 321 322 322 322 321 323 323 322 321 322 323 323 321 320 320 321 320
287 290 279 277 274 274 280 283 286 291 294 297 296 297 298 309 314 318 322 324 325 325 323 324 324 323 323 323 324 324 323 323 323 322 321 322 321 321 321 322 322 322 323 322 321 319 323 323 320
284 283 284 281 280 276 276 281 291 292 295 295 297 299 299 312 315 320 323 323 324 324 324 323 323 322 322 323 322 322 322 323 322 321 322 322 321 322 322 323 323 323 322 322 320 321 321 320 319
287 285 285 278 279 280 280 282 295 294 294 295 299 302 308 315 318 321 322 323 324 323 323 323 322 323 322 322 322 322 323 322 321 321 322 322 322 321 323 325 324 324 324 321 320 321 323 321 321

GFSSGP_sfc_thetae_042.txt.gz
Theta_e
337 327 313 310 298 298 293 297 301 303 306 312 314 313 314 313 310 304 322 334 334 337 346 350 355 353 352 351 350 349 348 347 346 345 344 342 341 338 337 336 336 335 335 335 334 333 333 333 334
326 318 312 307 294 292 291 301 302 304 313 316 313 312 312 311 318 320 321 336 334 340 346 346 354 354 353 352 351 349 348 347 347 346 342 341 341 339 338 337 336 336 336 336 335 335 335 335 335
319 316 306 302 295 292 292 303 307 311 315 314 313 314 315 315 323 322 328 337 338 340 345 345 354 353 353 352 351 349 348 347 347 345 343 341 340 340 339 337 337 337 338 337 338 338 338 338 338
317 311 305 298 297 300 300 304 307 309 311 315 317 311 315 323 324 326 336 337 337 339 344 347 353 352 353 352 351 350 348 347 347 345 344 343 340 341 340 338 338 338 339 339 339 341 341 342 342
311 306 297 295 297 303 305 308 307 307 308 314 317 311 313 323 330 336 336 337 336 337 341 344 353 352 353 353 352 350 349 348 348 347 345 344 344 343 341 339 339 339 340 341 342 342 343 344 343
304 303 294 292 297 303 304 307 306 307 310 316 314 312 314 321 331 334 336 334 334 336 338 340 352 352 352 352 351 350 349 348 348 347 346 346 345 344 342 341 340 341 342 343 343 343 345 345 342
301 297 294 296 299 301 304 307 305 306 308 313 316 310 313 315 325 335 334 333 332 333 334 336 346 349 353 352 351 350 349 348 348 347 347 346 346 345 344 344 343 343 343 343 344 345 346 345 343
305 301 296 298 298 299 306 305 307 307 309 316 317 310 309 315 330 334 333 331 329 329 331 331 339 343 344 346 352 351 349 348 348 348 347 347 347 346 346 344 345 343 344 344 345 346 347 345 345
307 295 292 296 298 300 305 302 309 311 310 313 314 315 317 320 329 328 326 325 329 331 327 328 333 338 340 342 345 350 350 349 348 348 348 345 341 341 341 344 344 345 345 346 346 347 348 346 343
305 296 296 302 304 302 305 304 306 307 307 308 312 316 318 320 317 321 323 325 324 328 330 327 329 335 336 339 339 343 342 342 342 342 342 342 339 338 341 343 344 345 346 347 348 348 347 344 337
308 303 307 305 306 306 308 307 308 306 303 307 308 312 314 315 315 316 318 322 325 329 331 331 328 331 333 334 335 338 341 339 340 339 339 341 338 339 341 338 340 340 344 340 345 345 344 339 335
302 309 311 311 311 312 308 311 309 308 308 312 312 314 314 314 313 314 314 317 317 320 325 331 332 331 331 332 334 335 338 338 337 338 337 338 337 335 337 336 335 336 338 339 339 339 339 337 335
306 305 310 313 314 314 314 311 310 310 315 316 315 315 314 314 313 313 314 314 316 314 316 320 333 334 333 330 332 333 334 336 335 335 336 336 335 333 333 334 333 332 332 336 336 336 335 334 333
297 302 306 306 305 306 305 305 306 309 314 313 314 314 312 311 312 311 312 313 313 314 314 316 327 334 334 331 330 332 332 334 334 334 336 336 334 332 331 331 331 330 331 332 334 333 333 332 331
295 293 295 297 299 300 306 302 303 309 311 309 310 312 312 311 311 311 313 312 312 313 314 314 318 330 333 333 332 331 332 334 333 334 335 336 334 332 330 330 329 329 331 331 332 331 330 329 328
293 291 290 297 297 299 302 296 305 309 309 308 310 311 311 312 311 311 312 312 313 313 313 315 319 330 333 334 335 334 333 333 334 334 335 336 334 332 330 329 328 330 329 329 329 329 329 329 328
289 288 288 292 298 298 299 296 303 307 307 306 306 306 307 308 309 311 312 312 312 312 313 313 315 326 331 333 334 333 333 334 334 334 335 336 335 334 331 330 330 330 329 328 328 327 329 326 325
285 286 289 290 296 298 295 296 301 304 305 305 305 306 307 307 308 310 311 312 312 312 313 313 313 318 328 330 329 330 332 333 334 333 334 335 335 335 332 331 330 330 328 327 326 326 325 326 326
289 288 288 292 297 296 295 296 298 300 301 301 303 305 306 308 311 310 312 312 312 312 313 313 313 317 329 329 328 328 330 332 332 333 335 335 335 335 333 331 330 329 328 328 326 325 325 325 326
288 285 285 290 294 293 291 291 294 296 297 300 302 303 304 305 305 308 309 310 310 311 313 313 314 321 327 329 327 328 327 328 330 333 336 337 336 334 334 332 329 329 326 326 325 326 324 323 324
286 285 286 287 292 293 291 290 293 297 297 299 300 302 304 305 304 307 308 308 308 309 312 315 317 325 327 328 326 324 325 325 326 328 330 333 335 334 334 329 328 327 327 326 326 325 323 319 320
281 290 290 290 287 282 290 282 290 294 295 296 297 298 301 301 304 306 306 306 307 309 317 323 326 328 329 328 326 327 325 324 323 326 327 330 333 332 330 329 328 327 326 325 325 324 324 319 317
285 289 288 288 285 283 285 281 288 290 290 293 297 299 300 300 302 302 303 306 307 310 321 326 328 329 329 327 327 324 322 322 323 324 325 326 328 329 330 329 329 328 326 325 324 322 321 321 318
290 287 286 285 283 277 283 283 285 287 290 293 296 297 299 300 300 301 302 304 305 318 324 327 328 327 327 327 325 325 323 322 322 322 323 324 325 327 328 329 329 327 325 324 323 323 322 321 321
285 279 274 274 274 276 285 283 286 289 293 294 295 296 297 299 299 300 301 309 315 320 326 327 327 325 326 325 325 324 323 324 323 322 322 322 322 324 325 326 325 325 325 324 324 323 322 321 320
281 280 275 273 274 276 285 281 286 294 297 297 298 297 297 297 297 298 300 309 318 324 327 327 326 324 324 324 324 323 324 323 322 323 323 323 324 325 326 326 326 325 325 325 324 324 323 323 322
282 278 283 278 279 275 280 285 291 294 295 296 296 297 296 297 298 299 311 318 324 324 325 325 324 323 323 322 322 322 323 323 323 323 324 323 324 325 325 325 325 325 325 325 324 324 323 324 323
285 286 278 276 273 273 278 281 283 289 291 294 295 295 297 298 299 314 320 323 325 323 323 324 323 322 322 323 323 323 323 324 323 323 323 323 324 326 325 324 324 325 326 326 325 323 324 324 323
284 281 281 279 278 275 275 279 288 290 292 292 293 295 297 304 305 318 321 323 323 323 324 322 322 322 322 323 323 324 323 324 323 323 323 323 323 323 324 324 325 325 325 325 324 324 324 324 322
286 283 283 279 278 279 277 279 291 291 293 295 296 299 304 312 314 320 321 323 323 322 322 322 322 322 323 324 323 323 323 323 322 323 323 323 323 324 325 326 326 326 326 326 324 324 325 323 321

GFSSGP_sfc_thetae_045.txt.gz
Theta_e
333 332 320 318 304 306 299 300 307 309 312 319 319 321 319 320 315 313 334 338 342 343 350 354 356 355 354 352 351 350 349 349 348 347 346 345 344 340 339 338 337 337 337 336 336 336 335 336 336
332 320 320 314 300 296 298 304 307 308 317 320 320 317 320 320 324 326 328 340 343 345 351 348 356 354 354 352 352 350 349 348 348 347 346 344 344 343 339 339 337 337 337 337 336 337 337 336 337
326 319 312 309 300 296 298 306 308 314 317 316 317 320 319 320 327 328 336 341 343 347 348 350 356 355 354 353 352 351 350 349 348 347 346 344 344 343 342 341 338 338 338 337 338 339 339 339 339
319 319 314 304 300 302 303 310 313 312 316 318 319 315 320 328 329 332 341 342 342 345 346 349 355 355 355 353 352 351 350 349 349 348 347 346 344 345 343 342 341 340 340 339 340 341 341 341 341
320 314 302 300 300 305 310 311 313 310 313 315 321 317 319 328 334 340 342 342 341 343 346 346 355 354 354 354 353 351 350 349 349 348 348 347 346 345 344 343 340 341 341 341 341 343 343 344 344
309 311 300 295 299 304 309 312 312 311 313 317 320 317 321 330 335 340 342 344 343 344 347 345 353 354 354 354 353 351 349 349 349 349 348 347 346 346 345 344 342 341 342 343 343 344 344 345 343
306 305 298 299 299 301 305 312 310 312 314 317 322 316 322 325 335 341 342 343 344 344 346 346 348 352 353 353 352 351 350 349 349 348 347 347 347 346 346 345 344 343 345 344 345 345 346 345 343
309 308 299 300 298 300 309 312 314 314 314 320 322 317 318 324 337 342 341 341 340 342 343 343 347 348 347 348 353 352 351 350 349 348 348 347 347 347 346 344 345 344 344 345 346 346 347 346 344
313 301 298 300 300 302 309 308 314 316 314 316 319 320 322 330 338 338 338 338 338 337 339 341 340 347 347 346 348 352 351 350 349 349 349 346 342 342 342 343 345 346 346 346 346 347 348 347 344
311 303 301 305 306 305 308 310 311 312 312 313 316 321 322 324 329 331 334 334 336 338 339 338 340 343 346 342 347 349 347 346 345 344 346 345 343 343 340 342 345 347 347 347 348 348 347 346 343
311 305 308 307 307 309 308 309 312 310 309 314 313 316 320 321 323 323 325 331 336 339 340 340 340 342 343 342 342 346 348 347 348 347 349 348 343 343 342 340 342 343 345 341 344 345 346 345 343
304 309 311 312 311 310 307 311 310 311 312 316 318 319 319 320 321 322 324 325 327 332 337 342 342 340 343 342 341 342 343 345 344 344 349 346 344 342 341 339 339 343 340 341 343 343 346 346 345
305 306 309 312 313 313 315 314 314 315 319 321 322 322 320 321 322 325 325 326 327 328 331 335 343 344 344 344 341 342 342 342 344 343 345 344 340 341 340 340 338 339 341 341 341 342 343 345 345
306 307 307 309 312 313 311 311 314 315 319 318 317 318 319 319 320 322 324 325 327 330 331 334 336 348 345 343 344 342 343 342 342 342 343 345 341 343 340 340 339 340 339 338 338 340 343 346 344
302 300 302 306 309 309 310 307 308 314 315 314 314 316 317 319 320 320 323 329 329 329 333 336 337 338 346 346 345 343 342 341 341 341 343 343 343 342 340 338 338 338 340 339 338 340 343 342 344
297 298 294 302 302 305 306 300 309 313 312 311 313 315 316 319 320 322 324 326 329 330 331 336 328 329 341 345 345 343 341 340 340 341 341 343 343 342 340 338 337 339 338 337 336 335 340 343 343
296 291 294 297 303 302 302 300 307 311 311 312 314 314 315 316 318 323 323 323 329 332 334 333 334 329 338 344 343 344 344 340 341 342 341 342 342 342 341 338 340 339 337 337 336 336 340 341 341
290 291 294 294 300 301 300 300 305 309 308 310 311 312 313 314 316 320 322 325 328 331 334 334 331 333 337 340 343 342 342 342 342 342 342 343 343 342 341 339 340 340 338 336 335 339 339 338 338
294 293 293 296 301 300 299 300 303 306 307 307 308 310 312 314 317 320 322 325 326 331 332 335 332 335 333 336 336 338 337 340 341 342 344 344 344 343 341 340 340 340 338 335 339 339 338 335 331
292 291 291 295 298 298 299 298 302 303 304 306 308 309 311 312 314 317 320 323 327 330 332 335 333 332 334 336 340 341 341 338 338 343 344 345 344 341 342 342 336 334 335 340 339 338 334 334 332
291 290 291 291 295 298 296 294 298 302 304 305 307 308 309 310 311 315 317 322 325 327 331 331 332 333 336 340 340 340 340 339 338 340 341 341 343 343 343 339 336 339 341 338 339 338 335 327 326
287 293 293 292 291 288 296 287 296 300 301 303 304 306 307 309 310 313 316 320 323 325 325 327 334 336 337 340 340 340 338 337 339 340 343 343 344 343 340 338 342 342 340 340 337 334 332 328 325
289 293 292 291 290 289 291 287 293 299 297 300 303 305 307 308 310 310 312 316 318 322 321 328 337 339 339 340 342 340 340 340 341 341 342 344 344 343 338 343 342 341 339 339 339 334 328 329 330
293 291 292 292 289 283 288 288 290 294 297 300 303 304 306 308 308 310 312 314 316 317 322 333 339 340 340 341 342 342 340 339 338 340 340 340 340 340 340 339 340 341 339 338 337 336 334 331 332
290 288 281 280 280 280 290 287 290 297 299 300 301 304 307 308 309 311 312 313 315 321 329 335 339 339 340 340 340 341 340 342 341 340 337 337 335 338 339 340 340 338 338 337 336 335 334 333 330
288 287 283 276 278 282 288 284 290 299 301 303 304 306 308 310 312 312 313 313 314 322 331 336 339 338 339 338 338 339 340 338 338 338 337 336 336 337 340 339 339 337 336 335 335 333 332 333 332
287 284 290 284 285 283 286 290 295 298 299 301 303 305 307 310 313 318 319 322 322 329 331 337 339 338 338 338 337 338 338 338 336 338 339 337 339 338 338 338 337 336 335 335 335 332 333 334 333
290 292 283 284 278 277 283 286 289 294 296 300 301 303 306 309 315 322 322 325 328 332 337 339 339 337 337 337 337 336 336 337 337 337 337 337 338 337 337 336 336 335 335 335 336 334 334 333 332
288 287 287 288 285 281 281 286 297 297 298 299 302 304 306 308 317 323 324 324 330 335 337 337 336 335 335 335 335 335 335 336 337 337 336 337 337 337 335 334 333 334 334 336 335 334 333 332 329
291 288 289 284 282 285 284 285 298 299 300 301 302 303 307 310 319 322 323 324 330 334 334 335 335 334 335 335 335 335 336 336 336 336 336 335 334 334 333 333 333 333 334 335 334 333 332 330 324

GFSSGP_sfc_thetae_048.txt.gz
Theta_e
334 332 322 321 309 307 304 305 311 315 317 322 323 322 321 324 321 319 338 342 344 345 352 356 357 357 357 355 354 352 351 351 351 351 350 349 348 346 344 343 339 339 338 337 337 337 337 337 336
329 327 320 316 304 301 303 309 309 315 321 322 322 324 321 321 329 329 331 342 345 347 353 348 356 355 356 354 353 352 352 351 350 350 349 347 347 346 343 342 340 340 339 338 338 337 337 338 338
331 321 314 308 305 301 304 308 312 317 320 320 320 324 324 325 331 329 338 343 346 350 353 348 356 355 354 354 353 352 351 350 350 349 348 347 347 346 345 344 342 340 339 339 338 339 340 340 340
322 318 314 306 303 306 308 314 314 318 319 321 322 318 325 331 331 334 342 342 345 347 350 353 355 355 354 354 353 351 351 350 350 349 348 347 347 346 345 344 344 341 340 339 340 341 342 341 341
322 315 304 303 303 308 311 313 315 316 316 318 321 320 321 330 337 339 342 341 343 344 347 351 356 355 355 355 354 352 351 350 350 350 349 348 347 347 345 345 343 342 342 341 342 343 343 343 344
310 313 302 300 303 308 311 314 314 315 317 319 321 323 323 335 337 338 341 342 342 344 347 347 356 355 355 355 353 352 351 350 350 349 349 348 348 347 346 345 345 345 344 343 343 344 344 344 345
312 307 301 301 303 305 309 314 312 313 316 319 326 321 326 331 336 340 342 345 345 347 349 349 351 354 355 355 353 352 351 350 349 348 348 348 348 347 346 346 346 346 347 347 346 345 345 345 345
314 311 304 303 301 302 309 312 313 314 316 324 327 320 322 331 340 343 342 343 345 346 346 348 350 348 348 348 355 353 352 351 349 349 349 348 348 348 347 345 346 347 347 347 347 346 346 347 345
318 306 303 305 303 305 309 310 315 318 318 321 323 324 327 334 339 338 337 337 339 341 347 348 346 348 347 343 345 353 352 351 350 350 349 347 342 344 343 342 345 347 347 347 346 347 347 347 346
314 307 307 310 310 306 309 311 313 314 315 319 320 325 325 330 336 334 334 334 335 337 342 346 349 348 348 343 347 351 347 347 345 343 343 344 341 342 340 342 346 347 348 348 348 347 348 347 345
313 308 312 312 312 310 308 310 314 313 313 320 319 322 323 325 327 330 332 334 335 339 341 345 350 350 348 346 344 346 347 346 347 346 349 348 340 341 341 339 342 343 346 342 344 344 346 345 345
308 313 313 314 315 311 308 311 312 313 314 320 320 322 324 325 326 327 328 329 332 335 338 344 350 351 351 347 345 346 344 347 346 347 353 349 344 346 343 339 340 341 340 341 342 341 346 346 345
308 310 313 315 315 315 315 311 313 314 318 320 321 322 324 325 326 329 329 329 331 332 334 337 344 353 352 353 348 349 350 346 348 348 349 347 343 346 343 343 338 339 339 340 341 341 344 344 345
308 309 310 312 312 314 311 313 315 317 322 321 322 323 324 323 324 326 328 329 331 333 335 337 340 351 354 354 356 352 351 349 347 347 347 351 346 349 342 342 339 338 339 338 341 339 342 343 343
305 302 306 310 312 310 314 309 310 316 318 319 320 321 322 323 325 325 328 329 331 333 337 339 342 346 352 354 354 353 349 349 346 346 351 349 350 351 348 341 341 338 341 342 340 340 342 340 344
300 301 297 305 308 310 310 303 312 317 317 316 318 320 320 322 324 326 328 330 333 336 336 339 335 336 345 351 350 348 346 346 346 347 348 349 350 349 347 342 341 340 341 338 337 336 334 335 344
299 294 297 300 307 307 305 304 312 315 315 316 317 318 319 321 324 327 328 329 331 335 337 336 341 339 341 349 344 349 353 347 346 347 347 349 349 349 346 343 342 346 339 337 336 334 335 333 343
293 295 297 297 304 305 303 303 309 313 312 314 316 317 318 320 321 324 326 328 330 332 336 344 343 347 344 340 344 343 345 346 346 346 347 349 349 348 347 345 346 345 339 335 335 336 335 340 343
296 296 296 300 303 302 303 303 306 310 311 312 314 315 316 318 321 323 324 326 328 332 337 344 342 349 342 336 338 340 341 345 345 347 349 349 349 348 347 346 343 344 340 339 339 337 339 341 341
294 294 295 299 301 302 301 301 306 308 309 312 312 314 315 317 319 321 323 325 327 331 336 342 343 346 343 339 343 343 344 344 347 348 350 350 350 349 345 348 345 345 341 341 341 340 338 337 338
292 291 293 294 299 302 300 299 302 307 310 311 312 313 314 315 315 318 320 322 324 327 334 336 342 344 345 344 345 347 348 346 344 346 347 348 348 345 347 348 346 345 343 340 343 344 341 336 337
289 294 294 294 295 291 300 290 300 304 305 307 310 311 313 314 316 317 318 320 324 326 328 333 338 342 343 347 349 351 343 341 343 346 348 344 346 347 348 348 346 345 344 344 344 343 343 340 330
291 295 294 295 294 294 294 292 297 302 301 305 309 310 312 314 315 315 316 318 321 323 325 333 336 339 345 348 350 346 348 346 347 346 348 349 348 347 348 348 347 348 344 345 343 341 341 337 335
296 293 293 294 293 287 293 293 294 298 301 305 308 310 311 312 314 316 317 319 319 321 323 327 332 342 347 347 348 350 349 348 345 347 346 346 345 346 348 348 349 348 345 345 345 343 338 337 335
293 290 283 282 283 284 294 291 294 301 303 305 305 307 310 312 314 317 318 318 320 322 324 327 338 343 347 347 347 348 350 351 351 349 346 347 345 345 347 347 346 344 345 344 344 342 339 336 334
290 289 284 279 281 284 292 288 294 302 305 307 308 309 310 313 316 320 324 325 323 322 325 333 338 343 346 347 348 351 352 349 349 350 347 344 343 344 349 346 346 345 343 342 342 337 335 337 335
291 286 292 286 288 286 290 293 299 302 302 305 306 307 309 312 316 322 329 329 329 323 330 336 341 345 346 347 348 349 349 349 346 348 348 342 345 343 346 345 344 342 341 340 340 334 336 336 336
294 295 285 286 279 280 288 290 291 298 299 302 304 306 310 313 317 324 330 331 332 332 336 341 344 345 346 346 347 346 347 346 347 346 343 343 344 344 344 343 341 341 339 338 338 335 336 335 336
289 288 288 289 286 282 284 289 300 299 302 304 305 307 309 311 315 325 329 330 334 337 340 343 344 344 344 345 345 345 343 343 343 342 343 344 344 343 341 340 339 337 337 337 337 336 335 334 335
293 290 291 284 284 287 287 290 303 305 305 305 304 307 309 311 312 324 327 327 335 339 341 342 343 343 344 344 343 341 342 342 343 342 342 343 341 340 338 336 335 335 334 337 336 335 333 334 333

GFSSGP_sfc_thetae_051.txt.gz
Theta_e
335 329 329 320 310 309 306 307 313 313 314 321 324 321 320 324 321 318 342 338 340 342 355 354 359 359 358 357 355 354 355 357 358 359 358 355 353 350 347 345 341 340 338 338 337 337 336 336 335
326 324 323 316 306 304 306 311 309 315 322 325 324 324 324 321 329 331 337 340 340 346 355 347 358 358 358 357 355 353 353 354 355 355 354 352 351 349 345 343 341 340 339 338 338 337 337 337 337
334 326 313 309 307 303 306 312 313 318 323 323 322 326 325 325 331 331 339 342 343 349 353 352 357 357 358 357 355 353 352 351 352 352 352 350 349 348 347 345 344 341 340 340 339 339 339 340 339
326 319 314 306 304 309 310 313 315 318 323 324 324 321 326 333 334 336 341 341 343 346 350 355 356 356 356 356 355 354 353 352 351 351 351 349 348 348 347 345 345 343 341 341 340 342 343 343 343
323 316 306 304 305 310 313 314 318 317 322 322 324 322 324 331 336 340 339 338 340 343 348 356 356 356 356 355 354 353 353 351 351 351 350 349 348 348 347 346 344 344 342 341 342 343 343 343 344
314 312 302 301 303 309 313 315 315 317 322 322 322 323 326 335 337 338 337 338 340 342 347 355 356 356 355 355 354 353 352 351 350 350 350 349 349 348 347 346 345 346 346 344 343 344 345 345 346
314 310 304 303 303 307 311 316 314 316 319 320 325 321 329 332 337 339 336 337 339 342 344 356 356 354 356 355 354 353 352 350 350 350 349 349 349 348 348 347 347 347 348 348 347 347 346 346 346
318 314 307 307 304 305 311 313 315 316 317 324 327 322 325 332 338 338 336 337 339 341 343 346 356 349 348 349 355 354 352 352 350 350 350 349 349 349 347 346 347 347 348 349 349 349 348 347 346
320 309 306 307 307 308 312 311 315 318 316 319 326 328 330 334 339 337 334 335 336 337 341 346 348 349 347 345 348 353 353 352 351 350 350 348 342 343 342 342 345 348 348 349 349 350 350 348 347
314 309 309 313 313 311 312 312 313 314 315 317 323 326 328 334 335 333 332 332 334 335 338 343 347 349 349 343 348 351 346 347 346 344 345 343 341 342 340 342 345 348 348 349 349 349 349 348 343
314 310 314 314 316 315 312 312 315 313 313 318 320 325 327 328 333 331 331 333 334 336 338 343 354 355 350 346 343 348 349 347 348 349 350 348 341 342 341 341 341 343 346 341 345 345 345 344 344
308 313 314 314 316 317 313 313 312 314 315 320 324 327 327 326 328 332 333 333 335 337 339 343 349 358 360 350 346 346 346 350 348 348 354 348 347 346 345 340 340 345 341 342 343 340 345 345 346
307 310 313 315 315 316 317 314 314 314 318 320 321 325 325 326 328 331 332 333 334 334 337 339 345 362 363 362 350 351 352 348 350 350 355 351 345 347 343 346 341 342 340 341 341 341 345 345 344
308 309 310 313 314 315 314 313 314 318 320 319 319 320 323 324 328 330 331 332 334 335 336 338 340 361 360 359 362 359 359 352 350 349 353 356 351 351 346 347 343 342 341 340 341 342 342 342 344
307 303 306 308 311 311 315 309 310 317 319 319 320 321 323 326 328 328 329 332 333 335 337 344 349 351 364 361 359 359 352 353 349 349 359 360 358 355 353 345 343 343 344 349 346 347 344 339 342
301 303 298 305 308 310 310 304 312 316 316 317 318 320 322 325 326 328 329 331 335 336 342 346 338 342 360 360 358 354 350 350 348 350 352 358 360 358 355 345 346 347 345 343 340 338 336 338 337
297 295 298 301 307 307 306 305 312 316 316 316 318 319 320 322 325 330 328 330 333 337 342 342 347 339 349 358 350 352 357 348 346 347 348 357 355 353 352 346 347 353 343 342 341 338 338 336 335
292 294 297 298 304 306 304 304 309 313 313 315 317 319 320 322 323 327 330 332 334 338 345 349 345 351 356 348 354 343 341 344 347 347 348 356 352 352 352 347 351 350 343 341 339 343 338 335 334
297 295 294 299 304 303 302 304 306 310 311 312 315 317 319 321 325 327 329 330 331 339 343 346 344 353 348 340 337 336 339 343 345 348 353 351 352 351 354 347 350 350 346 347 349 341 340 333 342
295 293 294 298 301 302 303 302 306 309 310 312 313 315 318 319 322 324 326 328 334 338 341 345 347 352 353 343 346 342 346 343 347 348 353 352 351 353 350 352 350 349 345 348 345 345 335 335 341
294 292 293 294 298 301 301 299 302 307 310 312 313 315 317 318 319 321 323 327 328 334 339 340 347 352 355 352 348 351 350 351 346 348 349 351 351 351 350 350 350 350 349 342 346 343 344 337 338
290 296 295 294 292 289 300 291 300 304 306 309 311 313 315 316 318 320 322 326 329 331 332 339 344 350 352 358 347 354 345 343 345 348 349 350 352 350 348 349 350 351 347 348 345 346 344 341 334
293 297 295 294 292 292 293 293 297 304 303 306 310 312 314 316 317 318 319 323 324 327 331 336 343 348 351 354 352 346 350 346 347 347 353 351 348 349 347 349 350 348 346 351 350 348 344 340 339
299 295 295 294 292 285 292 292 294 299 303 306 310 312 314 315 316 318 319 320 321 323 325 333 339 345 350 352 352 358 356 355 347 350 346 344 346 347 347 349 349 352 351 347 344 345 344 344 341
296 293 284 282 283 283 293 292 295 302 305 307 308 311 314 314 315 316 318 319 321 323 324 327 334 341 345 349 349 352 359 362 360 352 348 346 344 344 349 352 353 348 348 346 345 345 343 340 337
293 290 285 277 280 285 292 286 294 304 308 308 309 310 312 313 316 318 320 324 324 326 326 325 327 334 343 347 348 352 356 349 351 354 349 347 347 348 354 351 348 346 345 344 345 343 342 342 336
293 290 295 287 288 284 287 293 298 304 305 306 307 309 311 313 315 318 322 328 330 329 327 328 334 341 346 347 350 353 354 358 352 360 360 350 354 349 348 347 346 344 343 343 343 339 337 339 339
295 298 287 288 279 278 286 288 292 297 301 305 307 308 311 314 316 319 326 331 334 333 329 333 337 343 346 349 351 351 353 353 352 352 353 352 350 347 347 344 343 343 342 341 341 338 338 337 335
291 291 290 291 288 281 280 286 298 300 302 304 307 310 310 312 313 317 329 332 334 336 334 337 341 344 347 348 349 350 350 349 349 347 345 345 346 344 341 341 340 340 339 339 339 339 336 334 336
296 294 292 285 284 288 287 286 300 301 306 307 308 309 310 312 313 317 331 331 337 336 338 341 344 344 345 347 347 347 347 345 345 344 344 344 342 340 339 339 338 336 336 337 335 334 335 333 332

GFSSGP_sfc_thetae_054.txt.gz
Theta_e
331 326 328 322 306 307 302 305 311 310 312 317 319 318 317 320 321 318 336 337 351 346 350 355 359 359 358 356 357 359 360 361 362 362 360 358 356 353 350 348 345 341 339 337 337 336 336 336 335
323 323 322 314 303 300 303 309 309 312 317 321 321 321 321 320 330 333 332 337 354 349 349 352 359 359 358 356 355 356 358 359 360 360 358 356 355 352 348 346 343 340 339 338 337 337 336 336 336
328 323 313 307 303 300 302 311 311 314 321 322 321 324 323 324 332 334 340 341 354 350 347 353 359 358 357 356 355 354 355 356 357 358 356 354 353 351 349 347 345 341 340 339 338 338 338 338 338
325 321 314 303 301 306 308 311 314 314 318 324 323 320 327 335 334 337 339 339 350 349 345 356 358 358 357 356 355 353 353 353 354 355 354 353 351 350 348 347 346 345 342 341 340 340 341 341 341
324 316 304 301 302 307 311 314 314 314 318 320 322 320 323 333 338 338 339 341 343 347 346 354 356 357 357 357 356 354 353 352 352 352 352 351 350 349 348 347 347 345 344 343 341 344 344 344 344
313 312 301 299 303 307 311 314 314 314 317 322 321 321 324 333 336 336 338 341 341 344 350 355 356 356 356 356 355 353 353 352 352 352 352 351 350 349 348 347 347 347 347 346 346 346 347 347 347
314 308 301 301 302 305 308 314 311 313 315 317 324 319 326 331 335 338 336 340 340 344 354 354 353 354 356 355 354 353 352 352 351 350 350 350 350 349 348 347 347 347 347 347 347 348 348 348 347
317 313 306 306 304 304 311 312 314 312 312 321 325 317 322 333 337 337 333 336 338 342 354 355 353 349 349 351 355 353 352 351 350 350 350 349 350 349 348 346 347 348 348 348 348 348 348 348 348
316 307 305 306 306 308 313 311 315 317 313 316 319 323 330 335 335 335 331 332 335 338 348 355 352 349 346 345 350 354 353 352 351 351 351 348 344 344 343 345 344 348 348 349 349 349 349 349 349
308 305 306 312 312 311 313 313 313 312 312 313 317 325 329 333 335 332 329 329 332 334 338 347 352 349 345 341 346 349 349 349 348 346 345 346 342 340 340 342 345 347 348 349 349 349 350 348 343
308 305 311 312 314 315 313 313 315 312 310 313 316 320 327 328 333 331 330 330 331 334 336 342 352 351 347 344 346 349 346 345 345 344 343 344 341 339 339 338 340 341 346 342 344 345 345 342 341
303 309 311 313 315 314 313 317 315 314 313 317 318 323 326 327 329 331 331 331 333 334 337 346 353 355 353 350 346 351 349 347 344 344 344 342 341 339 338 337 339 337 338 339 337 338 340 341 342
302 305 309 311 313 314 315 313 314 315 317 318 319 320 324 328 329 333 335 334 339 330 332 341 354 357 360 361 358 351 349 350 348 347 346 343 342 340 340 340 338 339 338 339 336 338 338 340 341
305 305 306 308 309 312 311 312 314 316 320 319 320 319 321 326 326 330 334 338 348 349 352 347 355 360 361 358 359 362 360 352 353 351 350 347 343 344 341 340 343 340 339 339 338 336 338 339 341
304 301 304 305 306 307 310 307 309 316 318 318 319 320 320 322 326 327 331 338 343 346 359 348 354 365 363 361 361 358 356 354 350 352 357 350 348 344 345 343 338 343 343 342 342 339 340 343 342
298 300 296 303 305 307 306 300 309 314 315 316 317 319 321 322 323 327 332 340 343 344 345 349 338 355 363 361 359 357 354 353 354 353 355 358 351 350 348 346 345 342 345 341 342 342 340 339 338
296 290 293 297 305 304 304 301 309 313 313 314 317 318 319 321 324 329 331 334 340 344 347 347 351 351 360 362 359 359 357 358 355 352 354 358 356 351 351 347 346 350 344 343 342 338 341 337 338
291 292 294 294 299 302 302 302 307 310 310 312 315 318 319 320 322 326 332 332 340 344 346 350 349 355 359 358 358 352 350 348 349 349 352 356 354 353 350 350 347 352 345 342 342 341 340 337 336
296 295 294 297 300 298 299 302 305 309 310 309 312 316 318 320 325 326 328 331 339 344 341 343 346 349 352 346 345 342 341 341 344 347 354 356 354 352 352 348 350 348 344 343 346 343 340 336 336
296 293 292 296 299 298 298 297 303 307 309 311 311 313 315 318 322 325 331 338 337 343 345 347 346 347 349 347 347 347 346 342 344 351 354 355 354 353 351 348 347 347 345 346 345 342 336 334 338
294 292 293 292 296 297 296 294 299 304 308 310 312 315 316 316 318 324 325 332 338 337 340 342 346 347 349 348 348 350 350 352 352 354 354 354 353 353 351 348 348 347 346 343 344 341 338 332 335
290 296 295 293 291 287 296 287 297 301 304 307 309 312 315 316 318 320 324 331 335 337 340 344 345 344 346 349 347 345 340 338 344 351 350 352 353 351 349 348 348 348 345 344 342 342 338 339 333
292 297 294 294 292 291 291 288 292 299 300 305 308 311 314 316 318 318 321 325 324 327 331 333 341 343 345 345 347 343 346 346 354 352 354 351 351 350 348 348 349 347 346 347 343 343 342 340 335
298 295 294 294 292 284 289 288 290 294 298 303 309 311 313 315 316 319 321 322 323 325 326 329 335 338 343 347 349 348 348 345 347 348 350 347 347 347 347 347 346 349 347 346 345 345 343 339 338
295 291 283 281 283 283 291 288 291 298 301 303 306 310 313 316 316 317 319 320 322 324 328 331 338 337 344 344 350 347 348 349 357 350 348 344 343 344 345 345 345 347 348 347 345 343 340 340 337
291 291 284 276 279 283 290 285 290 301 303 305 308 311 313 313 315 317 320 322 321 326 327 326 329 335 343 343 344 350 351 352 355 350 347 343 342 343 345 346 348 347 347 345 345 342 341 338 337
292 288 294 287 288 284 287 290 296 300 301 304 306 309 310 315 318 317 319 323 326 331 339 336 329 334 337 338 347 349 352 354 352 352 349 346 346 346 346 348 347 345 345 343 343 341 338 337 337
295 297 288 289 279 278 284 285 287 295 298 302 304 307 311 314 314 316 319 324 334 336 340 340 335 336 338 348 350 350 354 355 355 353 349 346 349 348 347 346 346 344 343 342 341 339 337 336 336
291 291 291 291 287 280 280 284 297 297 301 300 306 308 311 313 313 315 319 328 332 337 337 337 337 343 346 348 349 351 351 354 353 351 350 347 348 347 346 344 342 341 342 340 338 337 335 334 334
295 291 291 284 284 288 286 286 299 300 302 301 303 308 311 312 312 313 325 331 330 332 335 336 340 343 347 349 349 351 346 346 349 346 346 345 344 343 341 341 339 338 338 336 336 334 333 332 331

GFSSGP_sfc_thetae_057.txt.gz
Theta_e
326 319 318 316 298 296 293 298 304 304 304 309 316 314 314 318 320 312 334 343 341 346 353 356 359 358 358 360 361 361 361 361 361 361 360 357 356 352 349 348 345 343 340 338 337 337 337 336 336
322 319 313 308 293 288 293 303 302 306 309 312 317 316 316 320 328 324 337 341 342 346 350 351 358 358 357 358 360 360 361 361 361 360 359 356 355 352 348 345 343 341 339 339 338 337 338 337 336
327 323 305 300 293 293 293 302 305 309 313 317 315 319 320 323 329 326 341 341 342 344 347 352 358 357 356 356 358 359 359 360 360 360 358 356 354 352 350 347 345 341 340 339 339 338 338 338 339
319 314 309 295 292 297 301 305 307 309 313 319 318 316 324 333 331 333 348 343 341 340 346 356 357 357 356 355 355 357 358 359 359 358 357 355 353 352 350 347 347 344 342 341 341 340 341 341 341
321 312 297 292 294 300 305 308 308 307 308 316 318 316 321 331 334 346 346 345 340 338 347 354 357 357 357 355 354 354 355 356 357 357 356 355 353 352 349 348 346 345 344 343 342 343 345 346 345
310 306 293 291 297 303 306 308 306 306 307 315 315 316 319 331 331 335 344 343 342 338 348 351 357 356 355 355 353 352 352 352 354 354 354 354 352 351 349 348 347 348 348 347 346 347 347 347 347
309 304 297 296 298 302 305 308 305 305 305 309 315 315 319 327 332 333 337 341 342 345 347 347 351 354 356 355 353 352 351 351 351 351 351 351 351 350 349 348 348 348 348 348 347 347 348 348 348
305 308 304 305 302 301 308 310 306 305 307 314 316 313 316 328 331 333 335 333 341 347 347 345 346 350 349 350 354 353 352 351 350 351 351 351 350 350 349 347 347 348 348 348 348 348 348 348 348
311 299 300 303 304 306 310 309 314 314 310 311 314 324 328 332 331 328 327 328 342 347 346 346 344 345 345 346 350 352 352 352 351 350 351 348 342 343 343 345 345 348 348 349 349 348 348 349 349
303 297 299 308 309 308 310 310 311 310 309 309 311 322 329 331 329 324 325 326 335 344 346 346 345 342 340 344 344 344 345 345 345 343 342 342 338 336 342 343 348 347 348 349 349 349 349 348 341
302 298 303 306 310 311 310 311 314 311 306 308 309 313 324 327 327 328 324 325 330 343 347 347 345 342 339 338 341 344 343 343 343 341 339 340 339 336 339 336 339 337 344 340 344 344 344 341 340
296 302 305 306 309 309 308 312 311 312 312 314 315 315 315 318 324 326 328 324 326 334 342 347 345 341 337 337 341 342 340 340 340 341 338 338 337 334 333 333 333 333 337 336 334 338 338 338 338
297 300 302 306 307 308 310 308 309 311 315 318 318 316 315 317 321 324 325 328 328 328 336 337 344 341 339 337 342 342 341 340 339 339 339 338 337 334 333 331 332 332 333 336 333 332 335 336 337
298 299 301 303 303 305 305 306 308 311 315 316 317 316 316 316 320 320 325 327 328 327 328 334 334 347 344 342 342 343 343 343 341 340 340 339 337 336 333 332 332 332 332 334 334 331 332 334 335
298 294 297 300 301 300 303 301 303 309 313 314 315 316 317 317 318 320 321 325 327 330 330 333 332 331 348 344 344 346 348 343 344 343 343 341 338 337 336 335 332 332 333 332 334 332 331 333 334
293 292 287 295 300 302 300 293 303 308 309 310 314 315 316 317 317 319 322 325 331 330 331 335 339 345 349 349 348 346 345 346 344 342 345 344 341 338 339 336 335 333 334 334 333 333 331 331 334
289 284 287 291 297 298 298 295 302 306 306 307 309 311 316 316 317 317 321 323 329 329 330 329 339 352 352 350 349 347 346 344 344 344 344 348 344 342 338 340 337 334 335 334 333 332 332 330 329
285 286 289 289 293 294 293 294 299 304 305 305 308 310 314 315 316 318 319 323 325 328 330 331 333 347 351 351 348 347 346 346 345 346 344 344 347 345 341 340 339 340 335 335 332 330 330 329 330
293 291 290 293 296 293 292 293 296 300 300 302 305 306 308 314 317 318 319 322 324 331 332 333 332 338 338 331 336 336 336 336 337 338 340 343 349 347 345 341 340 338 337 334 334 332 329 328 328
291 289 289 293 296 294 292 292 295 297 298 300 301 305 306 309 314 318 319 319 321 326 327 330 330 332 333 333 331 331 331 332 332 333 338 343 346 347 344 341 339 339 337 335 335 333 328 328 327
290 288 289 289 293 294 292 289 292 297 299 301 303 304 307 308 310 312 314 316 323 326 327 328 329 331 333 332 334 334 332 332 334 337 338 343 346 346 346 342 339 339 337 335 334 333 328 324 324
287 293 293 291 288 282 291 281 289 293 295 298 300 302 304 305 309 311 313 314 324 326 328 328 330 331 332 332 331 332 332 330 329 336 341 342 345 345 344 343 340 340 339 335 335 335 330 330 325
290 295 292 291 288 286 286 283 287 292 292 294 297 300 303 305 307 311 312 314 319 321 325 330 331 331 331 334 334 334 331 331 332 336 339 341 341 343 344 341 340 341 340 337 335 334 332 330 328
297 291 290 289 285 280 285 284 285 288 292 295 298 300 302 305 306 310 313 312 315 316 317 320 328 330 331 332 335 333 332 333 334 337 339 339 339 340 341 341 340 342 341 338 336 335 333 331 329
290 285 276 276 276 277 287 285 287 293 295 296 297 299 302 303 304 309 308 311 312 313 314 316 319 322 331 332 334 336 332 333 333 337 340 339 337 337 338 341 339 342 341 338 338 335 332 331 329
288 285 279 273 274 278 287 282 286 295 298 299 300 301 302 302 305 306 309 309 311 311 315 316 317 323 326 331 335 338 335 340 336 343 341 340 338 338 340 341 342 342 340 337 337 332 332 331 329
287 283 289 283 284 279 283 287 293 295 297 300 300 301 301 304 305 309 308 310 313 314 316 315 313 323 329 335 338 339 337 338 341 342 341 340 338 340 340 342 341 340 337 336 334 332 330 329 328
290 292 282 283 277 275 281 283 285 292 294 296 296 298 301 302 307 308 308 310 313 320 322 326 321 322 332 333 335 339 341 342 346 343 340 338 339 339 339 341 339 338 336 335 332 330 329 329 327
287 287 286 288 283 277 275 280 293 293 295 295 296 299 302 304 307 307 307 315 322 324 326 326 322 323 326 334 339 341 343 344 346 342 342 340 341 339 341 340 336 335 333 333 330 328 328 327 325
291 289 288 282 279 285 283 281 295 294 297 297 297 300 304 306 305 305 304 322 323 324 325 325 323 333 338 341 340 342 342 344 342 341 342 343 341 341 339 336 335 335 334 330 329 328 329 326 324

GFSSGP_sfc_thetae_060.txt.gz
Theta_e
323 318 314 313 297 293 290 295 300 302 302 304 309 313 313 319 317 310 329 335 338 345 352 355 359 361 363 362 362 361 360 360 361 360 357 355 354 352 349 348 346 343 341 339 338 338 338 337 336
321 321 310 305 292 287 290 297 300 302 306 309 311 313 317 318 323 332 332 335 338 348 351 351 357 360 361 361 361 360 360 360 360 360 357 355 353 351 348 346 344 341 340 340 339 338 338 338 337
323 321 303 299 292 288 291 298 300 305 308 308 309 317 321 321 329 332 336 336 341 346 349 350 357 358 360 361 360 360 360 360 360 360 357 356 353 352 350 347 345 341 340 340 340 339 339 339 339
317 311 307 295 292 296 297 302 303 305 307 308 312 314 324 328 331 334 337 337 339 344 345 353 356 356 359 360 360 360 360 360 360 360 358 356 354 352 350 347 346 344 342 341 341 340 340 340 341
320 308 298 291 294 298 302 303 303 302 304 306 309 314 321 327 338 337 335 335 336 339 342 352 356 355 357 359 359 359 359 359 360 360 358 356 355 352 349 347 345 344 343 343 342 342 344 344 343
310 306 294 291 297 302 303 305 303 303 304 306 308 314 320 333 339 336 334 332 334 337 344 350 355 354 354 355 357 357 358 358 359 359 357 356 355 352 350 348 347 347 347 347 346 346 346 347 347
308 300 295 296 297 300 305 307 305 304 303 305 309 312 319 329 340 339 333 332 332 340 345 348 350 352 354 352 353 355 355 355 356 356 355 355 354 352 350 349 348 348 348 348 348 347 348 348 347
305 304 299 300 300 302 310 310 307 306 308 311 315 316 315 323 336 339 337 333 334 342 342 346 348 348 347 347 353 352 352 352 353 353 353 353 352 351 350 347 348 348 349 348 348 348 348 348 348
308 294 297 302 304 306 311 308 313 315 311 310 311 323 326 329 329 331 333 337 339 341 339 342 345 345 346 346 348 351 352 351 351 350 351 348 343 344 344 346 345 348 348 349 349 348 348 348 348
301 293 297 306 309 307 309 310 311 311 311 311 311 316 325 327 328 328 330 334 337 339 341 339 343 344 343 346 345 344 344 344 343 342 342 341 337 338 342 344 347 347 348 348 349 349 348 346 340
298 296 302 304 306 307 307 308 312 309 307 311 310 311 314 316 321 324 326 335 338 341 342 341 338 340 340 340 343 342 341 341 340 339 338 338 338 337 339 335 340 338 344 338 343 343 343 339 338
293 298 301 304 306 305 304 308 307 309 309 314 316 315 313 315 314 318 322 332 336 340 342 342 339 337 336 336 340 340 339 339 340 339 337 337 335 333 332 333 333 333 334 334 334 336 338 338 339
294 297 299 301 302 304 307 306 307 307 311 314 316 316 314 314 314 319 326 324 325 335 341 343 340 337 334 333 336 337 336 336 336 337 337 336 335 332 332 330 330 333 330 334 332 334 335 337 338
294 295 296 298 299 300 301 303 305 306 311 311 313 314 315 315 315 318 325 327 325 330 341 342 340 338 334 333 335 337 337 336 334 336 336 336 335 333 331 330 329 330 331 333 333 331 332 333 335
296 291 294 296 297 297 301 298 299 305 308 308 309 312 315 316 316 315 320 325 326 330 335 341 341 340 336 335 338 339 339 339 337 336 337 337 335 334 332 330 329 329 330 330 332 329 328 329 332
292 289 284 293 296 298 298 293 301 305 304 304 307 310 311 314 315 316 317 324 325 327 331 334 342 338 340 338 339 340 341 340 340 339 339 339 337 335 334 332 330 331 331 330 331 330 326 327 329
286 283 286 289 295 295 295 292 298 302 303 303 304 307 310 311 313 315 317 319 324 326 329 333 333 334 341 343 341 341 342 341 341 341 341 341 340 338 335 335 333 330 331 331 330 330 328 325 327
284 284 286 287 293 293 291 291 295 298 298 298 300 302 306 309 312 315 317 317 321 325 326 332 334 337 338 341 345 343 342 341 339 342 342 342 342 340 336 337 334 334 330 331 330 328 329 327 328
291 288 286 290 295 292 291 291 294 296 296 296 298 299 301 304 313 317 316 317 317 323 325 325 326 337 343 343 340 340 341 341 342 342 341 341 344 342 338 336 336 336 333 332 332 329 327 326 327
289 286 285 290 293 292 290 291 294 296 295 296 297 298 299 302 305 309 315 315 315 320 326 327 329 340 345 344 343 338 341 336 340 342 340 340 343 344 341 338 337 337 336 332 331 330 326 326 325
287 286 287 288 292 291 289 287 290 294 295 297 298 299 299 300 303 306 309 316 317 318 326 329 330 339 344 342 338 328 329 328 329 330 330 333 340 345 343 341 339 338 337 334 331 331 328 324 324
285 293 292 290 287 280 289 280 287 291 292 295 296 295 296 299 301 303 306 309 311 318 324 328 329 335 337 334 332 329 325 322 325 324 332 334 341 344 343 341 339 337 336 333 333 333 327 325 325
289 294 290 290 286 283 285 280 285 290 290 292 295 297 298 300 300 301 304 308 310 315 321 324 325 326 329 329 328 327 322 324 325 329 333 335 338 342 343 341 338 337 336 334 334 330 329 332 328
294 289 288 287 283 277 283 282 283 286 289 292 296 297 299 300 302 302 303 306 308 315 322 325 325 326 326 327 326 324 324 325 327 328 331 334 335 338 340 340 339 338 336 336 336 332 329 328 327
288 283 275 274 275 276 284 282 284 290 293 295 296 299 300 302 302 303 305 304 305 311 314 322 325 324 326 326 326 327 327 327 329 330 334 334 334 335 337 338 337 337 337 337 334 334 333 329 326
285 284 276 274 274 277 286 279 284 292 296 300 300 299 300 300 302 305 306 307 305 309 315 315 318 323 324 325 325 329 329 330 330 332 338 339 339 338 338 338 338 338 339 336 335 335 332 329 327
284 282 286 280 282 277 281 285 290 296 296 298 298 299 298 299 302 305 306 308 309 307 311 312 314 317 319 325 326 327 331 330 331 336 339 338 338 339 338 338 337 337 336 336 333 333 330 328 326
288 290 280 279 274 273 279 282 283 291 292 295 295 295 297 299 303 305 307 306 309 308 309 311 312 314 319 321 326 330 332 334 337 339 337 337 337 339 337 336 336 336 337 334 331 329 328 326 325
285 283 284 283 281 273 277 279 290 291 293 293 294 296 297 298 303 306 306 306 312 320 320 322 321 317 320 328 329 333 333 336 340 339 337 337 338 337 337 337 336 337 335 333 329 327 327 326 324
289 287 286 277 277 283 282 280 294 294 294 295 295 298 299 303 305 306 306 306 310 321 321 322 321 319 324 330 333 336 338 339 340 338 337 337 336 338 338 338 337 336 335 330 327 326 327 326 323

GFSSGP_sfc_thetae_063.txt.gz
Theta_e
326 316 312 311 297 292 288 293 296 299 301 302 306 304 307 315 317 309 327 330 340 338 350 357 362 363 362 362 361 360 359 359 359 358 357 355 355 352 350 349 347 344 342 340 339 338 338 337 337
324 318 309 303 291 286 288 295 295 299 304 306 306 307 309 316 322 328 327 335 338 341 348 352 361 362 362 361 360 359 359 359 359 358 356 354 354 352 348 347 345 343 341 340 340 339 338 337 337
328 317 301 298 290 289 290 296 297 302 304 304 303 309 312 319 328 329 331 335 338 341 346 350 360 361 361 361 360 359 359 359 359 358 357 355 353 352 349 348 347 342 341 341 340 340 338 338 338
317 312 305 295 293 296 296 299 300 302 305 304 305 305 322 327 332 333 333 335 338 341 344 354 358 359 361 361 360 359 359 359 359 359 357 355 354 352 350 348 347 345 342 342 341 340 340 339 339
317 308 297 292 295 298 301 302 301 301 302 304 305 305 318 327 336 333 332 336 335 340 341 350 356 358 360 361 360 359 359 359 359 359 357 355 354 352 349 348 346 345 343 342 342 342 343 343 342
309 304 293 292 297 301 303 304 302 301 303 306 304 308 318 334 333 331 332 332 337 338 341 346 355 356 357 359 359 358 358 358 359 358 358 357 355 352 350 348 347 347 347 346 344 345 345 345 345
306 299 295 295 298 300 303 307 306 305 304 305 309 306 316 332 335 330 328 329 333 336 341 344 347 352 357 357 358 358 357 357 357 357 357 356 355 353 351 349 348 348 348 348 348 347 347 346 345
306 304 297 299 299 299 308 308 306 305 308 314 311 308 315 324 336 331 328 327 332 335 339 341 344 346 346 350 357 357 357 357 357 357 356 355 355 353 352 348 348 348 348 349 348 348 347 347 347
306 295 297 299 302 302 309 305 311 313 310 311 311 312 319 334 334 331 330 333 334 336 336 341 343 343 342 342 350 355 357 357 356 356 355 352 348 346 345 346 346 348 348 349 349 348 348 348 347
300 294 297 306 308 307 309 307 308 308 308 309 312 315 317 329 329 329 327 326 329 330 334 339 341 342 340 343 341 343 344 347 347 347 347 343 338 337 341 344 346 347 348 348 348 348 348 345 339
297 295 302 303 305 306 305 306 308 305 303 307 309 312 315 318 322 323 326 329 329 332 335 338 341 341 340 339 340 342 338 338 338 337 337 337 336 336 339 336 338 337 345 338 342 341 341 337 336
292 297 299 301 304 304 302 306 305 306 306 311 311 312 313 313 313 316 320 325 332 332 334 336 339 339 339 337 340 339 338 337 337 336 335 335 333 332 332 334 333 333 333 332 333 334 335 336 336
291 295 298 299 299 299 303 302 303 303 308 310 311 312 312 313 313 315 323 323 329 333 335 336 335 336 337 334 337 336 336 336 336 335 335 335 333 331 330 331 331 331 329 330 330 330 333 334 335
293 294 295 296 296 298 298 299 301 303 307 307 308 308 310 312 313 318 322 322 323 332 338 339 337 334 333 332 333 333 334 333 333 335 335 335 332 330 330 327 329 329 329 330 331 330 330 331 333
293 289 292 294 296 296 300 295 297 303 305 305 305 307 308 310 313 316 318 323 324 325 338 341 339 336 331 329 330 331 332 332 332 332 333 334 332 329 328 327 326 328 329 328 329 328 327 327 330
289 288 283 291 295 296 297 291 299 301 301 301 303 304 306 307 311 313 316 320 324 325 333 341 343 338 334 332 332 333 334 334 334 333 333 334 334 332 329 327 327 327 327 329 329 327 325 326 326
285 281 284 289 294 293 294 288 295 299 298 298 299 300 302 303 305 310 316 318 320 323 327 333 339 338 336 334 334 335 337 337 337 337 336 336 336 335 332 331 329 327 328 328 328 326 326 323 324
282 283 285 286 291 293 291 290 294 297 297 297 298 298 300 301 303 306 311 317 318 321 324 328 335 338 338 337 338 337 339 339 338 339 339 339 338 337 333 333 331 329 328 327 327 326 326 324 325
288 286 285 288 292 289 289 290 292 295 295 295 296 297 298 300 304 306 308 313 316 320 320 324 327 329 334 338 337 337 337 339 340 341 341 340 340 339 334 334 332 331 328 329 329 327 325 324 325
287 284 284 288 292 290 289 289 293 293 294 295 295 296 297 298 300 303 305 307 309 314 320 323 326 329 332 334 339 336 339 338 341 341 339 339 340 340 337 335 334 333 331 328 329 328 324 326 327
286 286 286 286 291 290 288 286 289 293 294 295 296 296 297 297 298 300 302 303 305 309 313 321 323 325 329 337 334 328 331 329 331 331 333 336 338 341 340 337 335 334 334 331 330 329 327 325 326
284 291 290 288 285 279 288 278 286 289 291 293 294 294 295 296 298 298 300 301 301 304 307 317 323 324 327 337 337 333 333 333 330 331 331 332 334 337 341 339 336 336 336 332 332 331 328 328 326
287 292 288 288 284 281 283 279 284 289 288 290 293 294 295 298 301 302 303 302 304 304 306 310 322 326 329 337 338 336 324 328 323 326 327 328 331 337 341 340 338 337 336 334 333 329 327 329 328
293 288 286 284 281 275 282 281 281 283 286 289 293 296 300 301 302 302 304 306 307 308 303 310 317 324 327 332 334 332 331 325 323 325 327 328 332 336 339 339 338 337 336 334 333 331 329 327 326
287 281 273 273 274 275 283 280 282 288 292 292 295 298 299 300 299 300 301 304 307 308 308 306 317 320 324 328 330 327 327 325 323 323 326 328 330 332 336 337 336 337 336 335 334 333 331 329 327
284 282 275 272 273 275 283 277 282 290 296 298 299 298 299 299 298 299 301 304 306 308 307 308 310 320 323 325 327 328 326 325 323 323 328 330 333 334 336 337 337 337 337 334 333 334 331 331 327
283 280 284 278 279 275 279 283 288 292 295 296 296 298 297 298 299 299 302 305 306 307 306 308 308 318 320 324 326 325 324 323 324 326 331 333 334 336 337 337 337 336 336 334 332 331 332 329 325
286 288 279 278 274 272 277 279 281 287 290 293 294 295 295 298 299 301 304 306 307 307 307 312 309 313 320 321 322 322 324 325 326 329 332 334 334 337 336 336 335 334 335 334 333 331 329 327 324
283 281 282 281 277 272 272 278 288 289 292 292 294 296 296 298 300 302 304 306 305 306 312 317 305 310 314 314 317 321 325 327 329 332 334 335 336 336 337 336 335 335 333 334 332 329 327 326 323
287 284 284 276 275 280 281 280 292 290 293 293 294 296 298 299 301 302 304 305 303 306 308 317 320 312 310 315 319 322 327 330 333 334 334 335 336 337 337 336 335 335 335 332 330 329 328 324 322

GFSSGP_sfc_thetae_066.txt.gz
Theta_e
332 317 311 308 296 291 287 291 294 298 299 301 303 302 304 308 315 308 327 331 335 336 353 360 362 363 362 361 360 359 358 358 358 357 357 356 356 355 353 353 350 346 344 342 340 338 338 338 337
332 317 308 301 291 285 286 293 294 298 302 304 303 302 301 303 314 325 325 331 334 338 352 357 362 362 362 361 359 358 358 358 357 357 356 356 355 354 351 350 348 345 343 341 341 340 340 338 338
324 316 303 297 289 288 288 294 297 299 303 301 301 306 305 314 326 328 329 334 331 340 350 355 361 361 361 360 359 358 359 358 358 357 357 356 355 353 350 349 349 345 343 343 342 341 340 339 339
315 311 305 294 291 296 296 296 298 301 303 303 302 302 310 326 330 331 332 333 331 339 347 354 360 361 361 361 359 359 359 359 358 358 357 356 354 352 350 350 349 347 344 343 343 342 341 341 341
314 306 295 294 295 298 300 300 301 299 301 302 304 303 306 325 333 331 332 332 330 338 343 351 360 360 361 361 360 359 359 359 358 358 358 357 355 353 350 349 349 348 347 344 343 342 344 344 343
310 303 293 291 297 300 302 303 301 299 303 305 307 306 311 334 330 328 332 330 333 337 340 350 358 359 359 360 359 358 358 358 359 358 358 357 355 353 350 349 348 348 348 347 345 345 345 345 345
307 299 294 295 298 300 303 305 303 303 303 306 309 304 311 320 328 327 326 331 334 336 339 345 351 356 359 358 358 358 357 357 358 357 356 356 355 353 352 349 348 348 348 348 347 347 346 346 345
308 302 296 296 298 298 307 308 307 306 307 312 312 306 306 324 328 328 330 331 330 333 338 340 343 349 352 354 358 358 357 357 357 357 356 356 355 354 352 349 348 348 349 349 348 348 347 347 347
306 298 295 299 300 301 307 306 309 312 309 308 311 311 313 333 331 327 327 331 331 334 335 337 339 340 343 347 353 357 358 358 357 357 356 353 351 351 349 348 347 348 348 349 349 349 348 348 346
300 294 295 304 306 305 307 306 306 306 306 306 309 312 316 330 328 325 324 324 327 329 334 337 338 339 339 345 345 349 350 353 353 353 351 350 345 344 345 347 347 348 348 348 349 349 348 345 342
294 294 300 303 305 305 303 303 306 303 302 305 304 308 311 315 323 327 326 324 326 327 334 338 338 338 339 338 338 341 342 341 342 342 343 342 339 340 343 339 342 340 345 340 346 346 344 340 339
288 295 299 301 303 299 300 303 301 302 303 308 308 309 309 310 311 315 325 328 329 327 332 335 340 339 338 337 337 339 340 339 338 338 337 336 333 333 335 335 335 336 337 337 336 338 340 340 338
288 292 296 297 297 298 299 298 299 300 304 307 307 307 307 308 310 313 319 324 330 329 331 333 337 336 336 334 337 337 337 337 337 336 336 335 333 331 331 333 333 333 334 333 333 334 336 337 338
291 291 293 295 296 297 297 298 299 301 305 305 306 305 305 306 309 312 318 324 322 331 331 334 333 335 335 335 333 335 335 334 335 335 334 335 334 331 330 330 331 331 332 332 332 332 333 334 336
292 287 290 293 295 295 298 294 295 301 304 303 303 304 304 305 306 309 315 318 325 325 334 336 334 334 332 332 331 332 334 333 332 333 334 335 333 331 330 329 329 331 331 331 332 331 331 332 333
286 285 281 288 293 295 296 289 297 299 300 299 301 302 302 302 304 305 309 312 315 323 327 339 340 336 332 331 331 331 331 330 331 330 331 335 334 332 330 329 327 329 329 330 330 330 329 329 329
284 280 282 287 291 292 292 289 296 298 298 298 299 300 301 301 303 304 306 309 312 316 321 332 339 338 335 332 330 330 331 331 331 332 332 334 334 334 331 329 328 328 328 329 329 329 330 327 327
280 281 283 284 289 290 288 289 293 296 296 296 298 299 300 301 302 304 306 307 310 313 316 323 336 339 337 336 333 331 331 333 334 335 335 334 335 335 333 332 330 329 328 328 328 329 329 329 328
286 285 283 286 290 289 288 289 291 294 294 294 295 297 298 300 304 306 306 307 307 311 312 315 325 334 336 334 331 332 332 335 336 337 338 338 338 338 334 333 332 331 329 329 329 329 328 327 328
286 283 283 287 291 289 288 288 291 292 293 294 295 296 297 299 301 303 305 304 304 305 308 313 316 324 332 336 337 336 336 336 337 339 340 340 339 339 336 335 334 332 330 329 329 329 327 328 328
285 284 284 285 289 289 286 284 286 291 293 294 295 296 297 297 297 300 302 303 303 303 305 309 313 316 324 332 333 332 332 332 334 335 339 340 341 341 339 337 336 333 333 329 330 330 328 326 328
282 290 289 287 284 278 286 276 283 287 289 291 293 292 294 295 298 302 304 305 304 303 304 304 310 314 317 326 331 332 335 333 334 337 338 338 340 340 341 338 336 336 335 333 331 331 331 331 328
285 290 287 286 282 279 281 277 281 286 285 287 291 293 294 298 300 302 303 304 305 307 306 304 305 312 318 321 330 333 333 334 332 328 333 334 336 337 340 340 338 336 336 336 334 332 331 333 330
291 286 284 282 280 274 279 278 277 281 285 288 291 294 297 300 300 301 302 303 304 306 308 308 305 308 315 322 327 330 332 332 326 326 328 330 331 334 337 339 339 338 337 336 335 334 333 332 333
286 280 273 272 273 273 281 279 281 287 290 291 293 296 298 298 298 299 299 300 302 304 307 309 308 306 311 319 326 333 333 333 329 329 329 327 329 333 336 338 337 338 338 338 337 335 334 332 331
283 280 274 271 272 273 282 276 280 289 291 294 297 298 298 298 297 297 299 300 302 305 307 308 307 306 308 315 322 330 334 334 331 329 326 327 329 333 337 338 338 339 339 338 337 337 335 333 331
282 279 282 277 277 273 277 281 287 291 291 293 295 296 296 296 297 300 302 303 304 306 307 307 307 307 309 310 320 325 329 329 327 324 327 327 331 334 336 338 338 338 338 338 336 335 334 332 331
285 287 278 277 273 272 276 277 279 285 287 290 292 294 296 296 298 300 302 304 306 306 307 307 307 312 316 312 318 323 327 328 327 325 327 330 332 337 337 337 338 338 338 336 335 334 335 332 329
282 280 282 280 277 272 271 276 286 287 288 289 292 294 295 295 297 300 302 306 307 307 306 307 310 310 314 310 319 323 322 324 325 326 329 332 334 337 337 338 337 337 336 336 335 335 331 331 327
285 283 282 274 273 276 275 279 291 289 289 291 292 296 297 297 299 301 303 307 308 308 311 313 315 315 320 311 318 320 322 325 326 328 331 334 335 337 337 337 337 336 336 335 334 332 331 329 327

GFSSGP_sfc_thetae_069.txt.gz
Theta_e
335 324 319 318 304 304 298 300 304 304 305 310 311 309 309 311 313 312 338 342 338 345 358 360 361 362 361 360 359 358 359 360 361 362 362 361 361 360 358 357 354 351 347 344 341 339 339 338 338
331 320 315 312 300 296 298 301 302 305 309 311 310 309 309 309 315 321 332 340 339 349 361 360 361 361 362 360 358 357 357 358 359 360 360 359 358 357 356 353 350 347 345 342 341 341 341 340 339
325 318 311 307 302 295 297 301 305 307 310 308 309 312 311 314 329 323 338 338 339 349 356 360 361 361 361 360 359 357 357 357 357 357 357 357 356 355 353 352 350 348 344 343 342 342 341 340 340
320 318 312 301 297 299 300 305 307 307 310 310 311 310 315 334 332 339 338 337 338 345 353 360 360 361 361 361 359 358 358 358 357 357 357 356 356 354 352 351 350 349 346 344 344 343 342 342 341
320 314 302 299 298 301 304 307 309 307 308 311 313 312 314 323 339 338 339 336 337 343 350 358 360 361 361 361 360 359 358 357 357 357 357 357 355 353 351 351 350 349 349 347 344 344 346 345 343
314 312 302 298 299 303 305 310 309 308 310 313 314 312 316 327 336 336 337 335 338 344 349 355 360 360 360 360 359 358 357 357 357 357 357 356 355 353 351 351 351 350 350 349 348 347 347 347 345
310 307 300 301 301 303 306 310 310 311 312 312 316 311 317 320 334 335 336 335 338 344 347 354 357 360 360 360 358 358 358 357 357 356 356 356 355 353 351 350 350 350 350 349 348 348 347 347 345
314 309 301 302 300 301 308 312 314 312 311 317 317 311 312 320 334 335 336 336 337 341 343 350 354 354 356 357 359 358 358 358 358 357 356 356 355 353 352 349 349 350 350 350 349 348 348 347 347
313 303 299 301 300 303 310 309 313 316 312 313 315 315 317 321 335 332 333 334 334 336 342 346 349 352 353 353 356 358 358 358 358 358 357 355 353 353 351 348 348 350 350 350 350 349 348 347 345
305 300 300 306 307 305 309 309 310 309 310 310 312 315 317 318 330 330 330 329 332 332 338 343 348 350 352 350 355 356 355 356 356 356 357 355 353 353 349 350 348 350 350 350 350 350 349 345 340
303 299 303 306 308 309 308 307 309 307 305 310 308 311 313 315 318 325 328 331 329 333 336 341 347 350 349 346 350 352 353 354 355 356 357 356 353 352 350 348 348 347 347 341 344 344 342 340 341
297 300 303 305 307 305 304 305 303 305 307 309 310 311 313 313 315 317 321 330 332 332 334 340 344 347 348 346 346 348 349 352 351 352 355 353 350 349 348 345 344 346 342 342 342 340 341 342 341
297 298 300 302 302 301 301 300 302 303 307 308 310 310 311 312 315 318 323 327 331 334 335 338 342 346 346 347 343 345 348 347 348 349 351 350 347 346 345 344 342 340 340 339 340 340 341 340 341
298 298 299 300 301 301 299 300 301 304 306 306 307 309 310 310 311 316 320 327 334 332 337 338 342 346 345 345 346 344 345 344 344 345 346 348 346 345 341 341 340 339 339 338 339 338 339 339 338
298 295 297 298 299 299 301 296 298 303 305 305 306 307 307 308 310 311 314 319 323 329 333 340 342 343 344 342 345 343 342 341 340 340 343 344 344 343 341 338 338 338 340 341 340 340 339 337 338
294 294 290 296 297 298 299 293 299 301 301 302 303 305 306 308 309 312 314 317 321 325 330 335 341 341 344 341 340 340 341 340 339 339 340 341 342 342 340 337 337 338 339 338 337 337 336 336 337
293 288 289 292 298 297 296 293 297 301 301 301 302 304 304 306 309 313 314 315 318 321 326 328 338 345 343 342 340 340 341 340 339 339 339 341 341 340 341 341 337 339 336 336 337 337 337 336 337
287 288 290 290 294 297 295 294 297 299 299 300 301 302 303 305 307 311 313 315 317 320 323 324 333 344 350 345 341 338 337 337 339 339 339 340 340 340 341 339 337 337 335 335 337 339 339 338 339
291 290 289 292 295 295 294 294 296 298 299 298 300 301 303 304 308 310 312 314 315 319 321 322 324 331 344 344 341 339 335 337 337 339 340 340 340 339 340 334 335 337 334 338 341 340 339 337 339
291 290 289 293 295 294 293 292 296 297 298 299 300 300 302 303 305 307 310 312 316 318 321 322 323 326 332 341 345 344 344 342 341 341 343 342 342 344 343 336 336 338 338 343 342 341 338 338 338
291 290 290 290 293 294 292 290 291 296 298 299 300 302 302 302 303 306 309 313 315 316 319 320 321 324 326 332 340 346 346 346 343 343 342 344 343 344 344 338 340 344 344 342 343 341 340 336 336
288 293 292 290 289 285 292 282 290 293 294 296 298 301 301 302 304 307 309 310 312 313 315 318 322 322 324 327 334 344 338 338 342 344 345 347 347 347 345 344 344 346 345 346 343 343 341 341 338
290 294 292 291 289 287 288 284 288 292 292 295 298 300 302 305 307 307 308 309 310 313 313 316 320 322 323 325 328 332 340 341 344 345 352 351 351 349 347 348 348 347 346 348 345 341 339 340 341
294 292 291 289 288 281 285 285 286 290 292 295 298 300 302 306 307 308 309 310 310 311 312 315 318 321 322 322 324 331 336 341 339 343 342 344 345 348 352 351 351 350 348 346 344 343 342 342 344
293 289 282 280 280 280 287 284 287 293 295 296 297 299 303 306 306 306 307 309 312 313 314 314 317 318 320 319 321 326 334 338 342 343 339 341 340 343 348 352 350 347 348 346 346 345 344 344 343
290 288 282 274 277 281 286 282 288 294 297 299 300 302 304 304 306 306 309 310 311 314 315 316 316 317 318 319 320 323 328 333 336 340 340 339 338 342 352 349 348 347 347 346 346 345 345 346 342
289 286 290 284 285 281 284 287 293 296 296 297 299 301 302 304 306 307 309 311 313 315 316 317 316 316 318 319 322 325 327 333 334 340 341 338 340 343 346 347 347 347 348 347 348 346 347 346 343
292 293 284 286 277 276 282 284 285 291 293 296 298 300 302 305 305 307 309 310 313 314 316 317 319 320 323 324 323 326 328 332 338 341 340 338 340 345 344 346 348 348 348 349 350 348 348 346 342
289 288 288 288 286 279 278 283 293 293 295 295 298 300 302 304 305 308 309 310 312 313 314 315 316 318 320 326 331 331 327 331 337 339 340 341 343 344 343 345 347 347 349 350 349 349 346 343 336
292 290 290 284 281 285 284 283 296 297 297 298 299 301 303 305 306 308 308 310 311 311 312 313 314 314 317 321 326 331 328 329 336 338 338 340 343 343 342 345 346 347 348 349 347 345 344 340 333

GFSSGP_sfc_thetae_072.txt.gz
Theta_e
335 324 326 323 308 307 306 306 310 308 310 314 315 313 313 316 314 315 343 345 343 346 358 361 362 362 362 363 364 364 363 363 363 363 362 362 363 362 361 359 356 354 350 347 343 341 339 338 336
330 323 322 317 306 302 305 308 306 310 312 315 316 316 314 313 320 325 327 346 341 349 358 357 361 361 361 362 362 362 362 363 363 363 363 362 362 361 359 357 354 351 347 344 342 341 340 340 339
328 323 314 311 307 302 303 307 309 311 313 313 314 318 315 318 328 333 343 345 343 351 356 357 360 360 361 360 360 361 361 362 362 362 362 362 360 359 357 356 354 350 345 343 343 343 342 341 340
325 321 315 305 304 307 303 309 310 310 313 314 316 315 320 327 330 340 345 344 342 349 353 361 360 360 361 360 359 359 360 360 361 361 361 360 359 357 355 354 353 351 348 345 345 345 343 343 341
325 318 307 304 305 306 306 309 310 310 311 312 317 315 319 326 335 344 345 344 341 346 350 362 359 360 361 361 360 358 358 358 359 359 359 358 356 355 354 353 352 351 350 348 346 346 347 346 344
315 315 305 303 305 306 308 309 312 311 313 313 316 317 320 327 332 342 343 343 341 344 350 359 361 360 360 360 360 358 358 357 357 357 357 357 356 354 353 352 352 351 351 351 349 348 348 348 346
312 310 305 305 305 306 308 314 312 312 314 313 319 315 321 323 332 341 342 341 340 344 348 356 360 362 360 360 359 358 358 357 357 356 356 356 355 354 352 352 352 351 351 351 350 349 349 348 346
313 312 306 307 305 305 310 312 315 315 313 320 320 315 317 322 331 338 342 338 338 343 345 352 356 357 359 359 360 359 358 358 357 357 357 356 356 354 352 351 351 352 351 351 350 350 349 348 347
316 306 303 305 306 308 312 310 315 319 316 317 318 319 321 323 325 329 337 337 336 339 343 348 348 351 354 352 357 358 358 358 358 358 357 354 349 351 349 347 350 352 352 351 351 350 349 348 345
309 305 304 310 311 310 312 311 312 311 312 314 317 320 321 321 322 322 328 337 334 335 339 343 347 349 350 346 354 357 356 356 355 353 355 352 349 351 347 349 351 351 351 351 351 351 349 345 338
308 304 308 309 311 313 311 312 315 309 307 312 313 315 317 318 320 320 322 330 335 335 337 342 349 352 350 347 348 351 350 352 353 355 356 356 350 352 350 348 350 347 348 342 345 344 343 340 339
302 306 307 309 310 310 309 312 310 312 310 312 314 315 316 317 318 319 321 324 332 336 336 339 347 352 354 349 348 350 347 350 350 353 359 356 353 353 350 345 345 347 343 344 342 340 343 342 342
301 303 305 307 308 309 309 308 308 309 312 311 312 314 314 315 317 320 321 325 330 334 339 339 343 350 353 353 347 349 350 348 351 351 357 355 352 350 349 347 344 343 342 340 340 340 340 342 342
303 302 303 305 305 306 304 305 306 307 309 307 311 310 312 314 315 317 320 325 332 335 335 339 343 350 350 352 353 349 350 349 349 349 350 355 352 351 347 347 344 341 340 339 338 338 340 341 340
302 299 301 302 303 303 305 301 302 308 308 308 314 311 312 313 314 314 317 321 323 327 332 336 342 347 352 349 349 350 346 346 344 345 350 352 354 351 350 343 341 339 341 344 343 342 342 341 340
298 299 295 301 301 303 302 296 303 305 306 306 307 312 314 312 313 314 316 319 322 324 328 333 337 343 350 353 350 346 343 343 342 344 346 349 350 350 348 340 340 340 342 341 340 340 340 340 341
298 293 294 296 301 300 300 297 304 305 305 303 303 307 309 309 312 315 315 316 320 323 325 326 332 340 347 351 349 349 351 345 342 342 341 346 346 345 345 339 341 345 338 340 341 342 343 341 344
293 293 294 294 299 300 299 299 303 304 304 303 303 304 307 308 310 312 315 317 319 326 331 328 328 338 349 349 350 346 343 343 342 340 341 345 345 344 345 341 345 343 340 341 342 347 344 345 345
295 294 293 296 299 297 298 298 301 304 304 303 303 303 305 307 310 312 314 317 318 323 326 330 330 337 340 344 340 343 343 346 343 343 345 345 345 344 348 340 344 345 342 339 344 345 345 346 347
295 294 294 297 298 298 297 297 300 302 303 304 304 304 304 306 308 309 312 316 320 322 324 325 328 331 333 336 349 348 348 346 347 346 347 347 344 348 348 348 346 347 340 346 346 348 345 346 348
295 293 294 293 297 298 297 295 298 300 302 303 305 306 305 305 305 307 311 316 318 319 321 322 326 328 331 333 335 342 344 346 345 348 347 348 346 348 351 350 348 347 345 344 348 350 349 342 346
292 297 295 294 293 289 297 287 295 298 299 301 304 305 305 305 306 309 311 313 316 317 319 322 325 328 328 331 333 340 336 338 340 345 348 351 349 347 348 353 348 350 346 352 351 351 352 349 344
294 297 295 295 293 292 292 289 294 296 296 298 301 303 305 307 310 308 310 312 315 317 319 322 325 327 328 332 333 329 335 331 334 339 354 359 358 352 347 354 354 354 350 354 355 354 353 349 345
298 296 296 296 293 286 291 290 291 294 296 299 301 302 304 308 309 311 311 313 314 317 319 322 324 326 328 329 330 332 332 335 332 336 340 345 351 353 355 352 356 356 355 354 355 356 353 349 348
297 294 287 285 286 284 292 289 292 296 297 298 299 301 305 308 309 309 311 312 314 316 318 321 323 324 326 327 328 329 331 333 336 338 333 342 343 348 357 359 358 355 358 357 356 354 352 350 348
295 294 287 280 282 285 291 286 292 298 300 301 303 304 306 307 308 310 311 314 315 317 319 320 321 323 324 325 327 331 332 329 330 336 334 334 340 345 358 358 359 356 357 356 356 352 350 352 349
294 290 295 288 289 285 288 292 296 299 299 301 302 303 305 307 309 310 312 314 316 317 318 319 321 322 324 327 331 333 333 333 332 338 343 336 346 345 351 354 357 357 356 355 355 348 350 353 353
296 297 288 289 280 280 286 289 290 294 296 299 300 302 304 307 308 310 311 314 315 317 318 320 321 321 323 325 327 329 334 336 336 338 338 341 346 349 348 353 357 354 353 352 354 351 353 353 351
292 291 291 291 290 283 282 288 298 296 298 299 300 303 305 307 308 310 311 314 314 316 317 318 318 318 320 323 326 327 329 333 338 339 339 343 349 346 345 349 350 351 350 352 353 355 353 351 351
296 293 292 288 285 289 288 288 300 300 301 301 302 304 306 308 309 310 311 312 312 315 314 314 316 317 318 321 322 325 328 329 333 339 339 341 343 344 344 346 348 347 348 352 352 352 351 350 348

GFSSGP_sfc_thetae_078.txt.gz
Theta_e
329 327 327 320 310 310 305 309 315 312 311 316 317 315 315 316 315 317 342 341 353 349 357 359 365 366 367 365 363 362 362 362 362 362 362 363 363 362 361 361 359 356 353 350 346 343 340 338 336
323 325 322 315 306 303 306 313 312 313 314 316 316 315 314 314 326 329 337 345 354 351 358 356 363 365 366 365 364 362 362 362 362 362 362 363 363 362 360 359 358 355 350 347 343 340 339 340 338
323 326 315 309 306 303 306 312 311 315 315 314 314 318 317 319 326 331 341 344 355 352 355 359 362 364 365 365 364 363 362 362 362 362 363 362 362 361 360 358 357 353 348 344 342 342 342 340 339
320 320 317 305 302 309 311 314 315 313 315 316 315 313 321 328 328 334 342 344 345 352 350 359 361 363 364 365 364 363 363 362 362 363 363 363 362 360 358 358 356 353 349 346 345 345 344 341 339
319 316 306 305 305 309 312 315 318 311 312 314 315 312 318 327 330 336 343 344 344 350 350 358 360 362 364 364 364 364 364 363 363 363 363 362 361 359 358 356 355 352 350 348 346 346 345 345 343
311 314 304 301 304 310 313 315 317 315 315 314 313 313 317 328 326 332 343 344 345 348 353 358 359 361 361 362 362 362 362 362 362 363 362 361 360 358 357 355 353 352 351 350 349 348 346 346 346
308 307 303 304 304 307 311 315 311 312 313 315 318 313 320 323 326 329 341 343 347 348 357 358 355 358 361 360 360 360 360 360 360 360 359 359 358 356 355 354 353 353 352 351 351 350 348 348 347
311 308 303 304 305 305 313 314 315 313 312 321 321 313 315 323 326 327 330 341 343 344 356 358 353 352 354 356 359 359 359 359 359 358 358 357 356 355 354 351 352 352 352 352 352 350 349 349 348
314 303 301 302 304 307 313 312 317 318 314 318 320 320 322 325 324 324 326 338 338 341 354 355 348 351 351 351 355 358 358 358 358 357 357 354 350 350 349 348 350 352 352 352 352 351 350 349 348
307 303 302 308 309 308 311 312 314 313 313 314 317 322 324 324 322 321 321 324 337 338 343 352 347 349 350 346 355 353 352 353 352 351 354 351 347 349 343 347 351 352 352 352 352 352 351 348 339
307 303 307 309 311 311 310 310 314 312 311 314 315 319 322 322 322 320 319 323 329 341 342 349 349 352 349 346 354 351 351 350 350 350 352 350 347 349 347 348 343 346 349 341 346 344 343 338 336
303 307 308 309 311 310 309 312 310 311 313 318 319 321 320 321 322 320 318 319 325 336 343 349 352 354 352 348 351 352 347 349 349 349 353 354 349 353 353 347 344 345 345 341 342 340 342 341 342
303 305 307 309 309 309 310 308 308 309 314 317 319 318 319 319 322 327 325 320 323 334 341 345 351 359 359 363 361 354 346 349 349 351 353 351 352 350 353 355 350 349 348 344 343 341 345 344 344
305 305 305 307 307 308 306 306 307 310 314 315 316 316 317 317 317 320 323 328 333 338 342 341 354 357 359 363 367 366 362 349 351 351 351 355 354 357 356 355 355 351 349 346 344 344 344 342 341
306 301 303 304 305 304 306 302 303 309 311 310 312 314 316 316 316 316 323 328 333 331 338 341 344 355 354 355 361 362 360 357 359 354 360 355 358 360 355 354 350 350 348 348 347 347 347 344 345
301 301 296 302 304 305 304 297 304 309 309 308 309 311 313 315 316 322 323 327 330 332 332 338 337 346 355 356 356 357 356 357 356 356 361 358 357 359 360 352 350 349 348 345 342 343 339 340 341
299 293 296 299 305 304 303 298 304 308 308 308 309 311 311 313 318 324 322 325 324 328 331 334 339 342 354 351 355 354 353 352 353 353 353 357 358 355 355 350 350 351 346 343 343 343 343 341 344
294 295 298 298 302 303 300 300 304 306 306 307 309 309 310 312 314 322 321 323 326 329 334 336 337 340 345 351 351 351 351 350 349 346 347 350 351 353 353 351 349 350 342 341 342 343 346 344 345
300 298 296 300 303 301 300 300 302 305 306 306 307 309 310 312 315 318 321 322 325 330 332 333 337 338 341 345 345 346 346 347 347 348 345 348 346 348 349 348 347 346 341 339 345 344 346 342 345
298 296 295 298 301 300 299 298 302 304 305 307 308 309 310 311 313 317 321 321 324 328 332 333 332 337 335 342 345 345 347 350 350 346 345 347 347 346 345 345 342 343 342 344 344 345 341 344 345
297 295 295 295 299 301 299 296 299 303 305 307 308 310 311 311 311 314 318 319 322 327 329 331 334 333 337 337 337 336 336 340 343 347 345 348 347 347 346 345 343 340 347 340 344 344 345 339 343
293 299 298 297 295 290 299 289 297 301 302 305 306 308 309 310 312 314 315 318 321 323 328 328 330 331 332 339 339 338 334 328 330 336 339 347 348 345 346 347 348 345 341 345 342 347 344 344 335
296 300 298 297 294 294 294 290 295 300 299 302 306 307 308 309 311 310 312 317 317 320 324 328 333 333 332 334 334 335 336 333 333 338 342 343 349 346 345 346 345 346 344 341 344 348 345 345 340
302 298 297 296 294 287 292 291 292 296 300 302 305 306 307 308 309 311 313 316 317 318 320 327 330 333 334 333 334 335 335 335 334 332 334 336 340 347 347 345 344 345 344 345 345 343 346 341 337
299 294 287 285 286 286 295 292 293 300 301 302 303 305 306 309 309 312 313 313 315 317 320 323 326 328 331 332 333 332 331 334 336 335 331 332 332 336 348 347 342 344 346 346 347 343 343 344 345
297 295 288 281 283 287 294 288 293 303 304 304 306 306 306 306 308 310 313 315 314 318 322 322 325 327 329 330 332 334 333 331 330 332 331 330 331 333 339 349 343 341 347 343 346 345 345 347 350
296 292 297 289 291 286 290 294 299 302 302 303 303 304 305 307 310 310 311 314 317 317 322 324 324 323 327 328 332 332 333 335 335 337 337 334 335 334 336 339 339 351 351 347 348 347 347 350 351
298 300 290 290 281 280 286 288 290 297 298 301 301 303 305 308 308 309 311 314 316 319 324 325 325 323 324 327 329 327 330 333 334 336 334 337 337 338 338 337 338 343 353 352 352 350 349 348 351
294 292 292 292 290 283 282 286 298 297 300 301 302 304 306 307 308 309 311 313 315 318 316 322 322 322 324 326 327 327 327 330 331 332 332 334 337 337 340 339 339 336 341 353 352 351 351 350 351
297 294 293 286 285 288 286 287 299 300 302 301 301 304 306 307 307 309 310 312 313 314 314 316 322 321 322 322 322 325 327 326 328 329 330 332 332 334 336 338 340 339 336 345 351 351 352 350 349

GFSSGP_sfc_thetae_081.txt.gz
Theta_e
325 320 320 315 300 300 296 300 309 308 305 307 310 310 315 322 321 314 335 346 351 353 359 364 365 365 364 363 363 361 360 361 361 362 362 362 362 362 361 360 359 356 353 350 347 343 341 339 336
321 320 319 308 297 293 298 307 303 305 307 309 310 310 315 315 327 329 334 347 350 353 355 360 365 365 364 363 362 361 361 361 361 361 362 362 361 361 360 359 358 354 350 346 344 341 340 340 338
318 320 309 302 296 294 299 306 308 309 310 309 308 314 316 318 327 328 339 347 350 350 351 360 364 364 363 363 362 361 361 361 361 362 362 362 361 360 359 358 356 352 347 344 343 342 343 341 340
313 311 309 298 296 302 304 306 309 310 309 311 310 309 320 326 326 331 339 348 349 348 351 361 363 363 363 363 362 361 361 361 361 362 362 362 361 359 358 357 355 353 348 344 344 345 346 344 342
310 307 298 295 298 304 309 309 311 310 307 310 312 309 316 323 328 337 338 342 346 347 353 357 362 363 364 364 362 362 362 361 362 362 362 362 360 358 357 356 354 352 350 348 345 346 346 345 344
304 304 296 293 298 305 308 312 313 314 312 313 311 312 315 320 321 325 338 336 344 344 353 355 362 362 363 363 362 361 361 361 362 361 361 360 359 357 356 355 353 352 351 350 349 347 346 346 345
302 298 295 298 300 303 307 311 311 313 314 314 313 310 315 317 318 319 334 335 344 347 351 352 356 360 362 362 361 361 361 361 360 360 359 359 358 356 355 353 353 353 351 350 350 349 347 347 346
304 300 297 299 299 299 308 307 308 308 314 320 319 310 309 316 318 319 322 332 347 349 350 349 352 356 354 357 361 360 360 360 360 360 359 357 356 355 353 350 351 352 351 351 351 350 349 347 347
305 297 295 297 299 302 307 305 310 313 311 314 317 317 320 321 319 317 318 318 342 350 348 347 348 349 349 352 357 359 361 360 359 358 357 354 347 347 349 348 350 352 351 351 351 351 350 349 348
299 294 296 302 304 303 305 306 306 310 309 309 313 319 323 320 316 315 314 314 319 348 348 346 345 346 345 352 352 350 355 354 352 352 351 347 342 342 346 346 350 351 351 351 351 351 351 349 340
299 296 300 303 305 306 305 306 308 306 305 309 310 314 319 319 315 315 315 314 313 328 347 344 344 346 344 343 349 347 347 345 345 347 347 343 340 341 342 338 340 341 348 343 346 345 344 341 339
295 301 303 304 306 305 304 306 306 306 305 314 315 316 317 317 313 313 315 314 318 322 341 341 343 344 344 344 347 345 345 343 342 341 344 341 337 335 339 338 337 338 338 337 332 335 336 337 335
295 298 302 304 303 302 305 304 303 304 308 310 316 317 316 315 315 314 316 316 319 328 335 337 344 343 343 344 347 344 343 344 343 342 344 343 337 338 339 339 337 337 339 337 333 333 334 336 337
299 299 299 300 299 300 300 300 302 305 308 307 308 313 314 314 314 314 315 314 320 327 331 333 342 345 345 352 352 350 344 341 344 344 345 344 344 338 343 340 343 342 341 339 337 336 334 336 337
300 295 298 299 299 298 301 297 299 304 306 305 306 309 312 313 315 313 313 314 320 323 326 331 338 346 346 346 346 348 348 345 342 345 345 345 344 346 340 345 340 340 340 337 337 336 336 335 336
294 293 288 295 300 301 298 292 300 304 303 303 305 306 307 311 313 312 313 320 319 321 322 325 333 332 346 346 348 349 347 346 345 345 346 348 346 347 347 345 342 340 340 337 335 332 330 330 331
291 286 289 294 300 299 298 294 301 303 303 301 302 304 306 305 309 312 319 318 318 319 320 323 326 331 346 346 346 345 346 344 344 343 349 349 350 351 349 344 343 342 339 337 334 333 332 332 332
287 288 292 292 297 299 295 295 299 302 301 301 301 303 304 306 307 315 317 316 317 319 323 325 329 330 337 346 345 344 343 344 341 342 341 347 351 350 348 347 342 342 338 335 333 333 335 336 334
295 293 292 295 299 295 294 294 297 300 300 298 299 302 303 305 307 311 316 317 319 321 320 321 328 328 329 341 341 342 341 342 340 340 339 340 346 350 348 344 344 341 338 334 333 335 336 335 337
294 291 290 294 297 296 293 293 296 298 298 299 300 300 302 303 305 309 314 316 318 320 321 320 322 327 327 332 337 341 343 343 342 341 341 340 341 343 345 344 342 340 338 336 334 336 333 336 340
292 291 291 291 296 296 294 291 294 299 300 301 302 303 303 303 303 308 312 312 316 317 318 319 321 323 325 327 328 327 330 337 339 341 340 342 343 341 341 342 343 340 336 333 336 338 338 333 336
289 296 295 294 290 284 293 283 291 295 297 300 301 303 303 303 306 307 309 311 314 316 316 316 318 320 323 325 326 327 324 322 331 331 340 343 345 343 342 341 341 339 337 336 337 339 339 338 333
292 297 295 294 289 286 288 284 290 294 294 297 300 301 303 304 303 306 308 309 310 312 312 316 316 316 318 321 323 324 323 326 326 329 331 332 334 342 343 342 341 340 339 336 338 338 339 341 334
299 295 293 290 286 282 287 286 287 291 293 297 299 303 303 304 303 305 309 309 308 309 310 312 315 317 321 323 324 324 323 324 326 325 328 330 333 340 343 342 342 343 342 339 336 340 341 342 338
296 290 282 279 279 280 290 287 289 295 300 300 299 300 302 303 303 305 305 306 307 308 309 313 313 314 317 318 321 322 322 326 325 324 324 325 325 327 334 344 342 341 341 341 341 338 342 342 340
293 289 284 278 276 282 291 284 289 298 302 302 303 301 302 301 302 305 305 305 306 308 310 313 313 315 318 319 321 322 323 324 326 327 326 325 324 325 328 336 345 343 343 343 342 341 340 337 334
291 288 292 288 289 283 284 289 295 297 298 300 301 302 298 299 300 303 305 306 306 308 311 312 313 315 315 317 317 319 321 322 325 327 328 329 331 331 328 329 335 340 340 338 343 343 341 339 335
294 295 285 286 280 277 282 285 285 291 296 298 300 298 301 301 300 302 304 305 306 307 309 313 312 313 313 315 317 320 319 321 324 327 327 327 329 330 332 332 332 332 334 340 341 341 342 341 341
290 286 290 289 284 280 278 280 293 293 295 296 299 301 301 301 302 301 302 304 306 307 309 312 313 314 314 315 314 313 313 316 320 320 322 325 326 330 331 332 333 333 332 331 337 344 343 342 342
292 291 288 284 281 286 284 282 297 295 296 298 297 300 301 303 303 306 305 306 305 306 305 307 312 313 315 314 312 312 315 315 314 315 319 322 322 326 328 329 330 331 332 333 329 334 346 345 343

GFSSGP_sfc_thetae_084.txt.gz
Theta_e
325 316 315 313 300 298 295 298 303 303 303 305 313 321 319 321 319 312 336 344 353 357 361 363 364 363 363 362 361 360 360 360 360 360 361 360 360 361 360 359 358 355 353 350 346 342 339 338 337
324 318 315 305 296 292 297 303 303 305 305 305 310 314 318 318 327 336 338 347 353 357 360 361 364 363 363 362 360 359 360 360 360 360 361 361 360 360 358 358 356 352 349 346 342 340 339 338 336
313 318 306 299 293 293 297 302 303 308 308 307 307 315 317 320 327 330 341 347 353 355 359 361 364 362 362 361 360 359 360 359 360 361 361 360 360 359 359 357 355 350 347 344 342 341 341 339 338
308 308 306 297 295 300 301 305 306 310 310 310 311 310 319 325 327 335 346 347 349 352 357 362 363 362 362 361 360 360 360 360 360 361 361 360 359 358 357 356 354 352 347 344 344 343 342 341 339
307 302 297 294 296 301 307 309 307 308 309 310 313 311 313 319 333 341 345 346 345 347 354 361 363 363 362 361 361 360 360 360 360 361 361 360 359 357 356 355 353 352 349 346 345 344 346 345 343
302 300 293 291 297 303 306 309 307 308 311 310 311 312 313 318 316 321 345 344 344 346 354 359 362 360 361 361 360 360 360 360 360 360 360 359 358 357 356 354 353 352 350 349 347 347 346 345 344
300 295 292 293 296 299 305 308 308 309 309 312 314 309 312 314 315 317 333 344 343 349 351 356 358 359 359 360 360 359 359 360 360 359 359 358 357 356 354 353 352 351 350 350 350 348 346 346 345
301 298 294 295 296 297 306 306 306 307 311 319 318 308 307 314 316 316 321 341 342 348 349 352 355 356 355 356 361 359 359 359 359 359 358 357 356 355 353 350 351 351 350 350 350 350 348 347 346
303 292 290 293 297 299 305 301 306 310 310 313 318 315 318 317 316 315 315 343 344 347 347 348 352 354 354 355 359 360 361 360 359 359 358 354 348 348 348 347 350 351 351 351 351 351 350 348 347
297 291 293 299 300 299 303 303 304 307 308 308 310 316 319 316 314 313 311 318 342 343 344 346 348 350 352 355 355 356 356 357 355 355 353 348 343 341 345 346 350 351 351 350 350 350 351 348 339
295 292 297 300 302 303 303 303 305 306 304 308 308 312 315 313 312 312 313 311 323 346 346 344 344 346 349 350 351 352 353 351 350 350 347 342 341 341 341 337 340 340 347 340 344 344 343 340 338
291 297 299 301 303 302 301 305 303 304 306 312 313 313 314 312 312 312 312 313 324 339 346 344 343 342 341 348 348 349 349 346 345 347 345 340 335 334 335 334 334 335 336 337 335 334 335 337 337
290 295 298 301 301 301 303 302 302 303 306 309 312 313 313 313 312 312 314 314 329 332 339 340 343 343 341 345 343 345 346 345 344 342 343 340 334 331 333 335 333 334 334 335 333 330 331 331 333
295 296 296 297 296 296 297 298 298 302 305 305 306 307 311 312 313 312 312 312 317 329 331 337 341 342 341 345 343 341 342 342 341 341 342 341 335 334 334 336 334 333 335 335 335 332 330 330 334
296 292 294 295 296 295 297 295 297 301 303 302 303 305 308 312 313 313 313 312 316 320 328 336 341 342 340 344 345 343 341 343 342 341 341 342 338 334 334 338 338 337 337 337 336 334 333 332 334
292 289 285 293 297 298 296 291 298 301 300 301 303 303 308 310 312 312 313 312 315 318 325 329 347 344 342 344 347 346 345 341 342 343 342 343 343 340 335 337 339 339 338 337 335 334 330 329 330
287 284 287 291 296 296 295 293 299 301 300 300 300 301 302 305 308 311 312 313 316 318 319 322 327 335 343 343 347 346 343 343 342 343 343 344 343 344 344 339 341 339 337 337 335 331 329 327 329
285 285 288 289 294 294 292 292 296 299 299 299 298 300 301 302 304 309 315 316 316 315 317 323 326 328 335 342 343 343 342 343 342 342 345 344 345 344 345 347 341 341 338 336 333 331 332 331 332
292 290 289 292 296 292 291 291 294 297 297 297 297 298 300 301 304 313 314 315 317 318 319 322 321 323 326 340 339 336 336 339 341 341 342 342 347 346 345 344 342 340 339 336 333 331 331 332 334
293 290 288 292 295 293 291 291 294 296 296 297 297 298 298 299 302 307 311 313 316 316 316 319 321 322 323 328 332 335 335 337 340 342 341 340 341 347 346 345 343 342 339 336 333 333 331 332 334
292 289 288 289 293 293 291 288 291 296 297 299 299 299 299 299 300 303 310 313 314 316 316 316 318 319 319 323 326 327 326 334 335 334 339 340 340 341 345 345 344 342 340 339 335 333 332 329 334
287 294 294 292 288 283 291 282 288 292 294 297 298 297 298 300 301 303 310 311 314 316 315 316 318 319 319 320 318 320 322 322 327 329 333 334 341 341 340 341 343 340 338 338 333 336 336 332 330
292 296 293 292 287 284 286 282 285 291 291 294 297 299 300 300 302 303 309 312 311 313 312 313 314 315 316 320 320 320 318 322 324 326 327 331 340 343 342 340 339 338 336 335 334 335 335 337 333
298 293 290 288 284 280 284 284 286 287 291 293 297 300 301 301 302 303 307 310 312 311 311 312 312 313 316 317 318 318 316 317 319 322 323 327 331 334 338 340 340 339 338 336 335 337 337 337 338
293 286 279 280 278 280 287 284 287 291 296 298 298 298 299 300 300 305 306 308 308 307 306 310 313 312 314 317 318 319 319 320 320 319 319 321 321 322 328 339 339 340 341 340 339 335 337 338 338
291 288 283 278 276 281 289 282 287 296 298 300 300 300 300 301 301 305 306 308 307 305 306 310 309 309 312 314 314 316 317 317 319 321 321 320 320 321 324 327 335 341 340 340 340 339 336 337 339
290 287 293 287 288 283 284 288 293 296 298 299 298 298 298 299 304 304 305 304 306 306 306 309 309 310 313 314 315 316 318 320 320 320 321 322 325 329 330 329 328 333 339 339 339 339 339 338 338
294 295 285 285 279 278 283 284 284 290 293 297 299 298 298 299 299 301 303 304 305 306 306 308 311 311 313 314 314 315 316 317 316 318 321 324 325 326 328 331 330 331 332 336 337 337 340 339 339
289 287 287 285 283 279 275 280 291 292 295 294 296 299 297 299 300 301 304 304 304 303 303 308 310 313 311 311 311 314 315 316 317 317 317 319 321 324 326 327 327 329 331 332 330 333 338 338 339
292 289 287 280 281 284 283 281 295 295 295 296 298 299 299 300 303 303 304 303 302 303 303 308 309 310 312 313 312 311 310 310 311 312 314 315 316 319 322 326 325 327 326 327 329 330 332 335 338

GFSSGP_sfc_thetae_087.txt.gz
Theta_e
322 317 315 310 299 297 294 296 300 302 303 306 318 318 319 320 318 310 337 345 353 355 359 361 363 363 362 361 360 359 359 359 359 360 360 360 360 360 360 359 358 355 353 351 347 342 339 338 339
317 315 312 303 295 292 296 301 301 302 306 305 308 313 316 316 328 335 336 349 353 356 358 359 362 362 362 360 359 359 358 359 359 359 359 359 359 359 358 357 355 353 350 347 343 340 339 337 336
309 315 305 298 292 293 297 301 301 305 306 308 306 315 315 319 328 333 340 351 355 355 357 358 362 362 361 360 359 359 358 358 359 360 360 359 359 358 357 356 354 350 347 344 342 341 341 340 338
307 306 303 296 294 298 302 304 304 306 309 312 310 311 318 320 323 335 346 351 352 354 357 361 362 362 361 360 359 359 359 359 359 359 359 358 357 357 356 355 353 351 347 344 343 343 342 341 339
305 301 295 293 295 301 305 307 306 304 305 309 311 309 311 317 332 343 344 349 350 352 354 360 361 361 361 359 359 359 359 359 359 359 358 357 356 356 356 354 353 351 348 345 344 344 345 344 342
302 299 291 290 296 302 304 307 307 305 306 309 309 309 309 316 319 341 343 344 348 350 355 358 361 361 360 359 359 359 358 359 359 359 358 357 356 355 354 354 352 351 350 349 346 346 346 345 343
298 295 291 291 295 298 303 306 305 305 307 307 312 308 309 311 314 335 342 341 344 350 355 357 358 359 360 359 358 359 358 358 358 358 358 357 356 355 354 353 352 351 350 350 350 348 346 345 345
300 297 292 294 295 296 303 303 304 304 306 313 315 307 306 310 315 332 340 340 341 348 353 354 355 356 355 356 359 358 358 358 357 358 358 356 356 355 353 350 351 351 350 350 350 348 347 346 345
300 291 289 293 296 299 302 300 304 307 305 309 313 313 315 315 318 338 337 339 342 345 347 352 352 352 352 354 357 358 359 359 357 357 357 354 349 348 347 347 348 351 350 350 350 349 348 347 346
295 289 291 297 299 298 300 300 303 302 303 303 309 315 315 314 312 331 335 336 339 342 344 348 351 351 350 353 355 355 354 356 354 353 353 349 345 343 345 345 349 351 351 350 350 350 349 347 337
292 291 295 298 300 301 300 300 303 302 301 304 305 309 313 312 310 309 317 337 339 343 344 346 349 350 351 351 352 354 353 352 352 353 351 346 344 343 342 337 340 338 345 339 343 343 342 338 337
289 295 296 298 300 299 299 302 301 301 303 306 310 311 312 311 309 309 309 315 331 342 343 345 345 347 348 350 351 350 350 351 350 349 347 343 340 337 336 334 332 333 334 334 333 335 336 337 337
289 292 295 297 296 297 300 299 300 301 304 307 308 309 309 312 311 311 311 318 328 341 343 343 344 343 343 346 348 349 349 349 348 348 346 342 337 334 334 332 331 331 331 331 331 330 330 331 332
294 294 294 295 296 294 295 296 296 299 303 304 305 305 305 306 312 311 311 322 327 335 342 342 342 342 342 344 344 345 347 347 347 346 346 343 338 333 329 332 332 331 331 331 331 330 329 328 330
294 290 293 293 294 294 295 293 294 299 301 301 302 303 304 306 309 311 311 317 324 329 337 338 341 342 340 341 343 342 343 343 343 343 343 343 338 333 330 330 332 334 331 332 332 332 331 328 331
290 287 284 291 294 296 295 289 297 300 298 298 300 300 303 304 307 311 313 311 316 324 328 336 342 340 339 339 343 341 340 340 339 339 340 341 340 335 331 332 333 335 333 334 334 333 332 331 330
286 282 284 289 294 294 293 289 296 298 297 297 298 299 301 302 305 308 312 312 311 318 324 330 337 338 339 339 342 343 341 340 341 340 338 339 340 339 333 332 336 337 335 335 335 331 331 327 326
283 284 286 287 292 292 291 290 294 297 296 296 296 297 298 300 301 304 308 310 310 313 318 322 327 334 337 340 342 342 341 340 340 341 341 341 341 342 341 338 334 339 335 334 332 331 330 330 329
290 287 287 291 294 291 290 290 292 295 294 295 296 296 296 298 302 304 309 312 312 313 315 320 323 327 336 337 337 336 339 339 339 341 343 345 344 343 340 342 342 338 338 337 334 331 330 330 333
289 287 287 291 293 290 290 290 292 294 294 295 296 296 296 297 299 303 309 311 313 314 316 319 319 321 325 333 335 335 335 336 337 339 339 341 343 345 345 341 340 340 339 336 334 331 330 330 332
290 287 288 288 292 291 289 287 290 294 295 297 297 298 298 298 298 299 303 309 312 314 316 319 318 318 321 325 325 324 326 330 332 334 336 338 340 340 340 343 341 340 339 337 334 332 330 328 331
286 292 292 291 287 283 289 282 286 290 292 294 296 296 296 297 298 299 300 307 310 313 313 315 317 316 317 321 319 318 323 323 326 326 328 332 337 338 339 338 340 341 342 338 335 335 333 331 327
290 294 292 291 286 282 284 281 284 289 289 292 294 295 296 297 297 298 300 305 310 313 314 315 315 314 315 315 314 315 316 319 321 322 324 328 334 338 339 336 335 337 340 338 334 333 333 333 331
295 291 289 285 282 278 284 283 283 286 290 291 294 297 300 299 299 300 301 304 309 311 311 312 312 312 314 316 316 314 314 314 314 316 319 322 327 332 336 339 339 340 339 337 335 334 333 333 333
291 285 278 278 277 279 286 284 284 290 294 295 295 298 299 298 299 301 300 305 309 310 309 309 310 310 313 314 315 316 315 315 314 315 315 316 317 318 323 331 337 337 336 334 332 333 334 334 333
287 286 281 276 276 281 287 282 287 294 297 298 298 297 298 297 299 301 303 305 306 305 306 310 310 311 313 315 316 316 316 316 316 317 317 317 317 317 320 322 325 334 338 337 336 336 334 333 336
289 286 289 283 284 277 282 287 292 294 295 297 297 299 297 298 298 300 301 304 306 306 306 308 308 308 309 311 311 312 314 315 315 317 318 319 318 322 325 326 325 326 329 335 336 336 336 335 334
293 294 284 283 278 277 281 282 284 289 291 294 295 295 297 299 299 299 300 301 303 304 305 304 307 307 309 310 311 313 314 317 318 317 317 319 321 322 323 325 327 327 329 329 332 330 334 335 336
289 288 288 287 285 280 278 279 289 289 290 291 293 296 297 299 299 300 301 302 303 303 304 307 306 307 307 310 312 313 313 314 315 314 316 320 319 321 322 321 322 324 326 327 328 327 328 333 333
291 289 287 278 278 285 281 280 292 291 292 293 293 295 298 300 303 303 303 303 305 302 303 303 306 307 309 310 310 312 313 313 313 314 314 316 317 317 317 319 319 320 322 323 324 325 327 328 329

GFSSGP_sfc_thetae_090.txt.gz
Theta_e
324 312 314 309 299 298 292 295 299 301 302 305 308 318 319 318 316 309 336 344 350 352 359 361 362 362 361 360 361 360 360 360 360 361 360 360 360 360 360 359 358 355 353 351 348 344 343 344 345
316 314 310 302 295 292 294 299 298 301 304 306 305 312 314 314 328 334 335 349 351 355 358 358 362 361 361 360 359 359 359 360 360 360 360 360 360 359 358 358 356 354 351 349 344 341 340 341 341
309 313 304 297 292 293 296 300 299 304 308 307 306 314 315 316 324 332 339 351 354 354 356 357 362 361 360 360 359 358 358 359 359 359 359 359 359 358 357 357 356 352 349 345 342 341 343 342 340
306 306 302 296 293 298 300 303 303 304 307 309 309 310 316 319 324 336 349 353 352 354 355 360 361 360 360 359 359 358 358 359 359 359 359 358 357 357 356 356 354 352 348 344 343 344 344 343 341
305 301 293 292 295 301 303 304 307 304 304 308 309 308 311 316 341 344 349 351 351 353 354 359 361 360 360 359 359 358 358 358 359 359 358 357 356 355 355 354 352 351 349 346 344 344 345 345 343
301 299 291 289 295 301 303 305 304 305 306 308 308 307 308 314 327 340 347 347 351 351 354 356 360 360 359 359 359 358 357 357 358 358 358 357 356 355 354 353 352 351 350 349 346 346 346 344 343
298 295 291 290 294 297 302 305 301 302 305 305 309 306 308 311 313 338 342 345 349 353 354 355 356 358 359 358 358 358 357 357 357 356 356 356 356 354 354 353 352 352 351 350 349 348 346 344 343
298 295 292 293 294 295 302 302 302 301 304 312 311 306 305 310 317 336 338 340 344 351 353 353 354 355 354 355 359 358 357 357 356 356 356 355 355 354 354 351 351 351 350 350 350 348 347 345 343
299 289 288 291 294 297 301 298 301 305 303 305 308 310 314 315 334 335 334 337 342 347 351 352 352 354 354 353 356 358 358 358 357 356 356 352 350 350 349 349 349 351 350 350 350 349 347 346 345
294 288 290 295 296 297 298 298 300 300 301 301 305 313 313 313 321 334 334 332 338 341 347 350 351 351 351 354 353 353 353 355 353 352 352 348 346 345 345 347 349 350 351 350 349 349 348 347 340
292 290 294 296 298 299 298 298 300 299 298 301 302 306 311 311 312 331 333 334 336 340 346 350 349 351 350 351 352 352 352 351 351 353 352 347 345 344 345 341 343 343 347 342 346 345 344 341 339
289 295 296 296 299 297 297 300 298 299 301 304 306 308 310 310 308 316 330 334 337 340 343 348 350 348 350 350 352 352 350 350 349 349 349 346 341 339 339 338 336 336 336 337 336 338 339 340 339
288 291 294 295 294 295 297 296 296 296 302 304 305 305 309 310 309 309 310 316 333 339 342 344 348 348 349 348 350 349 348 349 349 349 349 346 341 338 337 335 333 332 333 333 333 334 335 335 336
292 292 293 294 294 294 293 295 295 297 301 302 302 302 304 307 309 309 310 312 323 339 341 343 345 347 347 348 347 347 349 349 348 348 349 346 344 339 335 334 333 332 332 332 333 333 332 332 333
292 288 291 292 294 293 293 292 293 298 299 299 300 301 302 302 305 308 311 313 324 335 341 341 342 344 345 345 347 346 347 348 347 347 348 347 344 340 337 334 333 333 334 333 333 334 334 332 333
288 286 283 289 292 295 294 288 295 297 296 296 298 299 300 302 303 305 310 312 322 325 336 340 343 341 341 342 343 344 345 346 347 345 344 345 344 342 337 334 332 334 334 334 334 334 333 333 333
285 280 282 288 292 292 291 287 295 297 296 295 296 297 298 298 301 304 307 310 313 321 327 333 339 339 338 339 340 341 341 341 342 341 340 341 342 341 336 333 333 335 336 336 336 335 336 334 332
281 282 285 285 291 290 289 288 293 295 294 295 295 296 296 297 299 302 303 307 310 313 323 328 335 338 339 338 337 340 339 339 339 339 339 339 339 340 338 335 333 337 338 336 336 336 334 334 333
287 286 285 289 293 289 289 289 291 294 293 293 295 296 296 297 299 302 304 308 308 310 313 321 327 332 335 336 336 338 337 337 338 340 341 341 341 341 340 339 339 337 337 337 336 336 335 334 336
288 285 285 289 292 289 288 288 291 292 293 294 295 296 296 297 298 301 301 307 311 310 311 314 322 328 336 338 339 337 338 339 340 340 341 343 343 342 341 340 340 341 339 339 338 337 335 334 335
287 285 286 287 290 289 288 286 289 293 293 295 296 296 297 297 297 299 300 301 306 311 312 315 318 322 328 333 329 326 330 333 334 336 339 340 343 345 345 343 341 340 340 339 337 333 333 332 334
285 291 291 289 286 281 287 282 285 289 291 293 295 294 295 296 297 297 298 299 301 308 312 316 318 321 325 329 330 328 329 328 330 331 335 338 340 340 340 342 341 339 337 334 333 337 336 331 332
288 292 290 289 285 281 283 279 283 288 288 291 293 294 295 296 297 298 299 300 301 306 311 314 316 316 318 324 328 326 324 324 324 325 327 331 334 338 338 336 336 337 333 330 327 330 333 335 334
294 289 287 284 281 277 283 281 282 285 288 291 295 296 297 298 299 300 301 301 301 303 310 312 315 314 314 315 315 317 318 318 318 320 322 324 327 333 336 339 338 333 333 331 329 330 332 334 334
289 284 278 277 277 279 285 283 283 289 293 294 294 297 299 299 297 298 299 302 303 303 309 312 315 313 313 315 315 314 314 314 314 314 315 319 322 324 328 335 336 338 338 335 335 334 332 331 330
288 286 280 275 276 280 285 280 285 293 296 297 298 297 298 298 300 299 300 301 303 306 309 312 312 310 312 313 314 315 315 316 316 317 318 318 318 319 323 324 329 337 338 338 336 334 333 332 332
288 283 288 282 282 274 281 285 291 294 294 295 294 295 295 296 298 299 300 300 302 304 307 309 310 311 313 315 316 316 317 315 315 317 318 319 320 322 323 326 326 329 335 337 338 335 333 333 333
291 292 284 283 277 276 279 281 283 289 290 292 292 293 295 296 297 298 300 300 302 304 304 306 308 309 312 313 314 314 314 315 317 318 318 320 321 324 326 327 329 330 331 332 334 334 335 335 334
288 286 288 287 286 277 274 279 289 289 290 289 290 293 293 295 297 299 300 303 304 305 304 307 309 310 310 311 312 312 313 316 318 318 319 319 321 324 325 325 325 327 327 328 329 329 329 330 332
290 288 287 282 278 281 280 280 292 290 290 290 291 294 297 298 300 300 301 302 303 306 305 305 305 308 310 310 311 313 314 315 315 316 316 318 320 322 323 323 322 322 323 324 324 325 326 327 328

GFSSGP_sfc_thetae_093.txt.gz
Theta_e
326 318 322 319 308 309 305 305 308 309 310 314 313 324 324 325 322 319 345 347 349 357 361 360 362 363 363 363 363 363 362 362 362 362 361 361 361 361 361 360 359 357 354 352 348 346 347 349 351
319 319 319 314 305 301 305 307 306 309 312 314 312 321 321 320 331 339 342 349 350 358 361 358 362 362 362 362 361 361 362 362 362 361 361 360 360 360 359 358 357 355 352 350 345 344 344 346 348
314 318 313 309 304 300 303 306 308 311 314 314 315 320 320 321 326 337 347 353 353 358 360 359 362 361 361 361 360 360 360 361 361 361 360 360 360 359 358 358 357 353 351 346 343 342 344 343 343
314 316 312 304 301 303 306 308 310 311 314 317 315 316 324 325 328 342 352 354 354 356 358 361 361 360 360 360 359 359 360 360 360 360 360 360 359 358 358 357 356 354 349 345 344 344 344 343 341
314 311 304 302 301 304 308 310 310 309 311 313 315 313 319 322 346 351 353 354 352 355 357 359 360 360 360 359 359 359 359 359 359 360 359 359 358 357 357 356 354 353 351 348 345 345 346 345 343
309 309 300 297 300 304 308 310 310 309 310 312 311 312 316 321 339 350 354 354 352 355 358 359 360 360 359 359 358 358 358 358 359 359 358 358 357 356 355 355 354 353 351 349 347 347 347 345 344
306 305 298 299 299 301 304 310 308 307 308 310 313 309 318 321 324 350 353 354 353 355 357 359 357 359 359 358 358 357 357 357 357 357 357 357 356 355 355 354 353 353 351 350 350 348 347 345 344
306 306 299 300 298 299 306 308 309 309 307 313 313 309 311 319 326 347 350 352 351 354 355 357 357 355 354 356 358 357 357 357 357 357 356 356 355 355 354 352 352 352 351 351 350 348 347 346 344
306 300 296 298 299 301 306 306 310 310 308 310 311 312 315 321 334 342 343 346 348 349 354 355 355 356 354 353 355 357 357 357 357 356 356 353 348 350 350 348 351 352 351 351 350 349 347 346 344
303 298 298 302 304 303 305 304 305 305 306 307 309 313 316 322 333 336 339 340 343 345 350 353 355 355 354 351 355 355 354 353 353 352 353 351 351 351 346 348 349 351 351 350 350 350 348 345 340
300 298 300 302 304 305 303 303 306 304 303 307 306 309 313 314 321 336 340 341 342 345 349 351 355 357 353 352 353 354 353 354 355 355 356 354 350 350 348 345 345 345 348 342 344 343 342 341 341
298 301 302 302 304 303 301 303 302 304 306 309 309 311 311 312 314 318 337 341 342 343 347 351 355 356 355 354 353 353 352 354 353 354 355 353 351 350 347 345 344 346 342 343 343 340 342 343 344
296 298 299 301 301 301 301 301 302 302 307 309 309 309 310 312 315 320 327 339 343 344 347 350 353 355 356 356 354 354 353 353 353 353 354 352 349 349 348 346 345 342 341 340 340 340 341 344 345
300 298 300 301 301 301 299 301 301 303 307 307 308 309 310 312 315 319 320 322 330 345 348 350 352 355 356 356 358 355 355 354 354 353 354 353 351 351 347 347 345 344 342 340 339 340 342 343 345
299 297 299 300 302 301 300 298 298 305 304 305 306 307 308 310 312 315 320 324 325 336 348 349 351 353 354 354 356 356 355 354 353 353 353 352 351 353 350 347 345 343 344 343 341 342 343 342 343
296 295 293 298 299 300 300 295 301 304 303 303 304 305 306 309 310 312 315 321 329 331 342 350 349 351 352 351 353 353 353 353 353 353 352 350 354 353 350 347 344 344 342 341 341 342 342 343 343
293 290 290 295 299 298 297 295 302 306 304 303 305 306 306 308 311 314 314 316 323 328 337 347 351 349 351 353 352 352 354 351 352 352 351 354 353 351 351 349 345 342 340 340 340 341 342 342 345
289 290 292 292 297 298 297 297 301 304 303 303 304 306 307 308 310 313 314 315 317 323 331 341 349 351 349 348 349 349 349 349 350 350 351 352 353 351 350 347 347 342 340 339 339 341 343 343 344
293 292 291 295 299 295 297 297 300 303 302 303 305 306 308 309 312 313 315 316 319 321 325 333 341 350 348 345 343 343 342 344 346 347 349 349 349 348 348 345 342 341 340 341 342 342 343 343 344
293 292 292 296 298 297 297 296 300 301 302 304 304 306 307 309 311 313 315 316 317 321 325 327 331 341 347 347 347 346 346 346 346 347 347 348 347 347 346 342 343 343 341 342 344 344 341 343 345
294 292 293 293 296 297 295 295 297 301 301 303 305 306 307 308 308 310 311 314 316 318 322 326 328 334 343 348 347 346 348 347 345 345 345 347 348 348 347 345 343 346 348 345 345 344 340 337 342
291 297 295 294 293 289 295 287 296 299 300 301 304 306 306 306 307 310 312 313 315 316 318 323 327 330 333 345 346 346 342 340 343 346 347 348 350 350 350 348 348 348 348 343 339 339 339 336 333
294 297 295 295 293 291 293 289 293 296 297 300 303 304 306 308 308 309 310 312 313 314 315 319 325 329 331 337 345 345 345 344 346 346 348 350 350 350 350 351 351 350 345 343 340 337 332 329 326
298 296 295 292 292 286 292 291 292 295 297 298 301 305 305 306 307 308 310 312 314 316 317 317 320 326 330 333 339 346 347 344 340 341 343 345 346 347 349 348 350 345 343 342 339 339 340 333 332
296 293 286 285 285 285 292 289 292 298 300 301 302 302 304 306 307 307 308 309 311 314 317 318 319 321 326 329 334 339 345 342 341 339 340 338 337 338 342 346 345 343 343 342 342 340 337 334 334
294 294 288 281 283 286 293 287 293 301 303 303 301 302 303 304 306 306 308 309 310 312 315 318 319 320 323 326 329 333 334 336 334 333 331 331 331 333 340 340 343 345 346 345 343 338 335 335 334
294 291 296 290 291 286 289 293 297 301 301 300 300 301 302 304 306 307 309 310 311 313 315 317 318 320 322 324 326 327 327 328 328 330 332 329 332 330 333 334 335 336 342 345 345 340 339 340 339
295 298 290 291 282 281 287 289 289 295 297 299 299 300 302 304 306 308 310 311 312 314 315 317 318 319 322 324 326 326 327 328 328 329 329 331 332 332 333 334 337 337 337 341 345 343 342 341 339
293 292 293 292 290 283 282 287 297 297 298 297 298 300 302 305 306 308 310 310 311 313 315 316 317 318 320 323 325 325 325 326 327 327 330 331 333 333 334 335 336 337 338 339 340 341 340 339 340
295 293 293 289 286 288 286 286 299 300 298 298 299 302 304 305 306 308 310 310 310 311 312 313 314 314 314 319 318 320 318 322 326 327 329 331 330 332 333 334 333 331 332 335 333 331 331 332 332

GFSSGP_sfc_thetae_096.txt.gz
Theta_e
331 325 327 324 313 315 313 312 315 313 314 320 323 329 326 328 326 324 350 348 348 354 363 361 363 365 365 365 365 363 362 361 361 361 361 361 362 362 362 361 360 357 355 352 349 348 350 351 353
324 324 325 320 310 309 312 314 312 314 317 320 321 325 326 325 335 341 345 348 351 356 363 359 362 363 365 363 364 363 362 362 362 362 361 362 362 362 361 360 358 356 353 350 347 347 349 351 353
322 322 317 314 311 309 311 313 314 315 319 320 319 326 326 326 333 342 350 351 352 356 360 361 362 362 363 363 363 362 362 362 362 362 362 361 361 361 360 360 359 355 352 348 345 346 346 347 348
320 320 317 308 307 311 312 314 315 315 318 320 320 318 328 334 335 347 352 352 353 355 357 360 361 361 362 362 362 362 362 362 362 362 362 361 361 360 359 359 358 356 351 346 345 346 345 344 342
320 316 308 306 307 309 313 315 315 314 315 317 319 315 321 331 349 353 353 353 353 353 355 362 361 361 361 361 361 361 361 361 362 361 361 360 360 359 358 358 356 355 351 348 345 345 347 345 343
311 312 304 302 305 308 312 315 315 314 315 316 315 316 320 328 341 352 354 355 354 353 355 360 360 360 360 360 360 360 360 360 361 360 360 359 359 358 358 357 356 354 352 350 347 347 347 346 345
308 307 302 303 304 306 310 314 313 313 313 314 317 313 321 325 329 350 355 357 354 354 355 359 357 358 359 359 359 359 359 359 359 359 358 358 357 357 356 356 355 354 353 351 349 346 346 346 345
311 309 303 304 302 302 310 312 313 312 311 316 316 315 317 322 328 338 353 354 352 352 352 358 357 354 354 355 359 358 358 358 358 358 357 357 356 355 354 353 354 352 351 350 348 346 346 345 344
313 302 301 301 302 304 310 309 313 314 312 313 315 316 319 321 332 335 344 351 350 348 351 355 355 354 353 352 355 357 358 358 358 357 357 355 351 350 349 348 353 351 350 349 348 347 346 344 344
307 302 302 305 307 306 308 308 309 308 309 310 312 316 319 319 324 332 337 343 347 347 348 352 355 355 354 350 356 354 352 351 352 352 355 354 350 347 344 347 350 349 349 348 348 347 346 344 337
306 302 306 306 307 307 306 307 309 307 306 310 310 313 316 317 320 324 333 337 344 348 349 351 357 359 356 351 352 351 350 350 349 351 354 355 347 348 347 345 346 344 347 341 343 342 341 339 339
302 306 306 306 307 307 306 308 306 306 309 312 313 314 315 316 318 319 324 337 343 347 350 352 356 359 360 353 351 352 349 350 349 350 354 353 349 348 347 342 342 344 342 341 343 339 342 343 346
303 304 305 306 306 305 306 304 305 306 310 312 312 313 314 315 317 320 322 327 339 343 349 353 356 359 359 359 353 354 353 350 352 352 354 352 349 350 347 346 343 343 341 341 341 340 341 343 348
304 304 304 305 306 306 303 305 306 307 310 310 311 312 313 314 316 320 324 326 332 342 347 353 356 359 359 358 360 356 355 354 353 352 353 356 352 353 348 347 345 343 342 340 340 339 340 344 349
304 301 304 305 306 304 306 302 302 308 310 308 310 311 312 314 315 317 320 325 330 330 338 352 357 359 359 359 360 360 356 354 353 354 358 357 357 355 354 348 346 344 346 346 344 343 344 346 347
301 301 298 303 303 304 303 298 305 308 307 307 308 309 310 312 314 317 320 322 326 328 332 344 350 354 360 360 359 358 356 355 353 354 356 358 358 357 356 350 348 349 349 345 342 341 341 343 345
300 295 297 298 303 302 302 299 305 308 308 307 309 310 310 312 315 318 321 322 324 327 331 335 344 351 356 360 359 359 362 357 354 354 354 357 352 353 356 353 350 355 347 345 343 341 342 340 343
295 295 296 297 301 302 301 301 305 307 307 308 309 310 311 312 314 316 319 321 323 325 329 333 337 353 356 358 359 356 354 354 354 353 354 357 355 354 356 353 354 352 346 346 344 346 342 340 339
298 296 296 299 303 300 301 301 303 307 307 307 308 309 310 312 315 317 319 321 323 327 331 333 334 349 353 352 352 352 350 351 352 352 355 355 354 355 359 351 352 349 346 350 349 345 343 339 345
298 296 297 300 302 301 301 300 304 306 307 308 308 309 310 312 314 315 317 320 322 325 328 332 335 340 350 351 352 352 351 351 351 352 355 355 355 355 354 354 352 350 345 346 344 346 338 341 348
297 296 297 297 301 302 300 299 302 305 307 308 309 311 311 311 312 314 316 320 322 323 325 327 332 337 341 352 351 352 352 351 349 350 351 353 354 355 354 353 352 349 345 342 346 348 347 341 344
295 301 299 298 297 293 301 291 300 303 304 306 308 309 311 311 312 314 316 318 320 321 323 326 329 333 335 341 347 355 346 343 344 349 350 352 355 353 352 352 351 352 348 345 349 349 348 347 340
297 301 299 299 297 297 297 294 299 303 301 304 307 309 310 312 312 312 314 316 318 320 322 325 329 330 334 337 341 343 349 343 343 345 353 358 357 354 350 351 351 348 345 347 350 350 347 342 336
302 299 300 300 298 291 296 295 296 300 302 304 306 308 309 309 311 312 315 316 317 319 320 323 327 330 332 333 337 342 347 347 340 343 343 345 350 353 354 353 355 355 357 355 351 345 349 344 340
301 298 291 290 291 290 299 295 298 303 304 306 306 307 308 309 310 311 312 313 315 316 318 320 324 327 330 330 332 335 341 348 352 351 345 347 344 356 356 355 355 352 355 352 344 346 347 345 342
300 299 292 286 288 291 298 292 298 304 306 308 307 306 307 309 310 310 311 313 314 316 318 320 322 325 329 330 330 332 335 337 342 349 344 343 343 349 354 353 353 353 352 350 350 346 345 346 343
298 294 301 294 296 291 294 298 303 305 304 306 306 305 306 308 309 309 311 313 315 316 318 321 322 325 327 329 330 331 332 338 341 345 349 346 350 344 347 350 350 350 350 349 350 345 345 345 345
299 301 293 294 286 285 291 292 294 299 302 304 304 304 306 307 308 309 311 314 316 317 319 321 322 323 325 328 330 329 331 335 338 340 339 339 337 333 335 337 339 340 341 344 347 345 346 345 342
296 295 297 297 294 288 285 290 301 300 303 303 304 305 306 306 308 310 311 314 315 316 317 319 320 320 321 322 328 330 330 331 332 332 332 332 334 332 331 331 331 332 334 337 340 342 342 342 344
299 296 297 293 290 293 291 291 304 304 305 304 304 305 306 307 309 310 311 313 313 314 315 315 317 318 321 320 321 323 327 329 329 330 332 333 332 332 331 331 331 331 332 335 336 335 335 337 337

GFSSGP_sfc_thetae_099.txt.gz
Theta_e
333 328 328 325 315 317 313 316 319 316 316 322 325 327 326 329 329 327 351 346 348 356 360 361 365 367 367 367 365 364 362 361 362 362 362 362 362 362 362 362 360 358 356 352 350 350 351 352 353
326 325 324 321 312 310 313 319 316 318 320 322 323 325 325 327 338 342 343 347 350 357 360 359 364 366 366 366 365 363 362 361 362 362 362 362 362 362 361 360 359 356 353 350 348 349 351 353 353
326 324 317 315 313 311 312 319 319 319 321 321 321 327 328 329 337 345 350 351 351 356 359 363 364 365 365 365 365 363 362 362 362 362 362 362 362 362 361 360 359 355 352 348 347 349 350 352 353
320 320 318 310 310 316 317 321 320 319 320 321 322 321 330 337 339 348 351 351 353 352 355 361 363 364 364 364 364 363 363 363 363 363 362 362 361 361 360 360 358 355 351 347 346 346 347 348 348
319 316 310 309 310 316 318 320 319 318 319 319 320 318 324 339 346 349 350 351 353 352 353 362 362 363 364 364 364 363 363 363 363 363 362 361 361 359 359 358 356 354 350 347 345 344 345 345 344
312 313 305 305 309 315 316 320 319 319 319 319 318 318 323 335 344 347 349 352 353 352 353 362 360 362 362 363 362 362 362 362 363 363 362 361 359 358 357 357 356 355 352 349 346 345 345 344 343
308 308 303 305 308 311 314 320 317 317 319 317 320 316 325 327 332 348 350 353 352 353 352 358 356 359 361 361 361 361 361 361 361 361 360 360 358 357 356 356 355 353 352 351 348 345 344 342 342
311 308 304 306 304 306 314 316 318 317 315 321 319 315 318 324 329 335 348 349 350 351 351 356 354 352 354 357 360 360 360 360 360 360 359 359 356 355 354 354 353 351 350 349 348 346 344 343 344
314 305 302 303 305 307 313 311 315 318 315 317 319 318 322 323 326 332 338 345 346 347 351 355 352 352 351 350 355 358 359 359 359 359 358 356 352 354 352 349 354 351 349 348 348 347 346 345 346
308 304 304 309 309 309 311 311 312 312 312 312 315 319 321 322 323 328 332 336 342 344 347 353 355 354 352 349 355 352 350 352 353 353 356 353 351 350 344 349 353 350 349 348 348 348 347 344 335
309 303 308 309 309 310 309 309 312 309 308 311 312 315 319 320 322 323 328 333 338 344 346 349 357 361 354 350 351 353 347 347 349 351 356 358 351 349 343 345 345 345 348 340 343 342 340 337 338
305 308 309 310 310 309 307 309 308 310 310 314 315 316 317 317 319 321 324 329 334 342 346 349 355 362 363 353 350 353 346 348 347 346 359 359 352 354 352 343 345 347 340 342 343 338 344 342 343
306 307 308 309 309 309 309 307 307 308 311 313 314 314 315 316 318 322 324 326 332 338 346 349 354 363 366 367 354 354 353 349 350 350 354 354 351 354 349 350 342 343 341 341 340 341 342 342 343
308 307 307 308 308 308 306 306 308 309 312 312 312 313 313 315 317 320 323 325 329 340 345 348 353 363 362 363 364 360 360 351 350 349 352 356 353 356 347 349 345 343 343 340 341 343 342 342 343
307 303 306 306 307 306 308 304 305 310 312 311 311 313 314 315 316 318 321 326 330 333 341 345 353 358 364 363 361 362 355 354 350 351 361 360 360 359 354 348 348 347 351 352 347 345 344 341 344
304 304 300 306 307 308 306 300 308 312 310 310 310 311 312 314 316 318 321 323 326 330 332 335 343 352 363 364 361 360 357 355 353 354 357 360 357 358 359 348 347 349 350 348 345 341 338 339 341
303 297 300 302 307 305 304 301 307 311 310 309 311 311 312 314 316 319 320 322 324 328 331 333 338 343 353 366 361 363 366 360 358 357 356 360 360 359 355 351 349 357 349 348 345 343 343 341 342
298 299 300 300 304 304 303 302 306 309 309 309 311 312 312 313 315 319 320 322 324 327 331 333 334 344 354 354 363 357 357 361 360 358 356 362 361 359 359 354 350 356 349 348 347 348 346 343 343
302 300 300 302 305 303 303 303 306 309 309 309 310 311 312 313 317 318 320 322 323 327 330 334 335 341 342 340 346 350 350 355 356 357 361 361 361 358 359 353 356 351 351 352 354 350 351 344 348
301 299 299 302 305 304 303 302 306 308 309 310 310 311 312 314 315 317 319 320 320 326 329 332 334 339 341 339 348 349 352 351 354 354 360 360 359 361 358 358 356 355 348 353 352 351 342 342 346
301 299 299 299 303 305 303 300 303 307 309 310 311 312 313 313 314 316 317 319 322 324 327 329 332 335 339 346 347 355 354 353 349 350 352 356 359 359 359 361 358 358 355 349 353 351 346 337 343
297 303 301 300 298 295 304 294 303 306 307 309 311 312 312 313 315 316 317 319 321 322 324 327 331 334 336 342 342 347 345 343 344 346 348 354 359 358 358 360 360 361 353 351 352 351 347 346 340
299 303 302 301 299 299 299 296 301 306 305 307 310 311 313 315 315 315 315 318 319 321 322 325 329 332 335 339 344 337 341 340 343 345 352 357 360 359 354 359 359 357 353 352 352 352 351 346 341
304 301 301 302 299 293 298 298 299 303 306 308 311 310 312 313 313 315 316 318 318 319 320 322 325 331 332 334 337 343 344 343 340 344 344 346 347 355 359 356 358 358 356 355 352 355 352 350 346
303 299 292 292 292 292 301 299 301 306 308 308 308 310 312 313 313 313 314 314 316 317 319 320 322 324 329 330 333 336 341 345 346 346 342 344 344 346 356 358 354 355 356 355 352 353 353 353 347
301 299 292 286 289 293 301 296 301 308 309 310 310 311 311 311 312 313 313 314 315 317 319 319 320 322 324 326 329 334 338 332 334 342 341 342 342 346 358 358 357 356 357 357 357 352 351 353 350
300 295 302 296 298 293 296 301 306 309 308 308 309 310 310 311 311 312 313 314 315 317 319 320 320 322 324 326 329 333 334 338 336 341 348 345 349 345 347 355 355 356 354 354 355 349 351 351 352
300 303 294 296 288 287 292 296 298 303 304 307 307 309 310 310 311 311 312 313 315 317 319 320 321 321 323 324 326 329 333 334 335 341 344 347 349 350 349 350 352 352 352 345 351 350 350 350 350
298 297 297 297 296 289 288 293 305 304 305 306 307 309 309 310 310 310 311 314 315 317 317 318 319 319 321 323 324 325 328 332 333 335 338 343 346 348 339 342 345 346 347 349 349 348 344 344 346
302 298 298 293 292 296 294 294 307 307 308 308 307 309 309 309 309 311 312 313 313 315 316 316 318 318 318 319 322 324 325 327 325 327 334 337 335 335 333 335 335 335 335 341 339 336 335 336 338

GFSSGP_sfc_thetae_102.txt.gz
Theta_e
329 325 325 321 312 313 309 313 318 316 316 321 324 322 323 330 330 327 350 348 354 354 361 364 366 367 366 365 364 362 362 362 362 361 362 362 363 362 362 362 361 359 356 354 352 352 353 354 354
324 323 322 316 309 307 310 318 316 319 320 322 322 323 323 326 339 341 339 349 354 355 360 362 366 366 366 365 364 362 362 362 362 362 362 363 363 362 361 361 360 357 353 351 351 352 353 353 353
322 323 314 311 310 306 310 318 320 319 321 321 320 324 328 328 340 343 345 350 354 354 357 363 366 366 366 366 364 362 362 362 362 362 362 362 362 362 361 360 359 355 352 349 349 351 354 354 353
319 317 315 306 306 313 315 319 323 319 321 322 322 322 330 339 340 347 349 348 352 352 355 362 364 365 365 365 364 363 362 363 363 362 362 362 361 361 361 360 358 356 352 350 350 351 352 352 352
317 313 306 306 308 313 318 321 321 318 319 320 320 319 328 339 345 346 347 349 348 351 360 361 364 364 365 366 365 363 363 363 363 363 362 362 361 360 360 359 357 355 352 350 348 348 348 350 349
309 311 302 302 307 313 317 321 320 319 320 320 319 319 327 340 341 343 346 348 350 352 361 360 362 364 364 364 364 363 362 362 363 363 362 361 360 359 358 357 356 355 352 350 348 347 346 347 346
306 305 302 303 305 309 314 320 317 317 318 319 322 316 324 330 341 345 346 349 350 352 360 358 356 361 363 362 362 362 361 362 362 361 361 360 360 358 357 357 355 354 352 351 350 348 346 345 344
309 306 302 304 303 304 312 317 319 317 316 322 321 314 316 324 330 338 345 345 346 348 356 356 356 355 359 360 362 361 361 361 361 361 360 359 359 357 357 356 355 354 352 351 349 348 347 346 345
312 302 299 301 302 306 312 310 316 320 317 319 319 319 322 324 325 329 336 342 343 345 353 353 349 352 352 354 359 361 361 361 361 360 360 356 354 354 353 352 354 354 352 351 350 349 348 347 347
306 301 302 308 308 307 310 311 312 311 312 314 316 319 321 322 322 323 328 335 339 341 346 353 350 350 349 347 356 357 358 358 358 358 358 355 352 353 348 349 354 354 353 352 351 350 349 347 337
306 302 306 307 309 310 309 309 312 310 309 312 312 314 318 319 322 322 323 330 336 342 344 351 356 355 350 348 355 351 350 353 355 356 357 355 351 352 347 348 345 348 351 344 347 345 342 337 336
303 307 308 308 310 308 307 310 308 309 310 313 314 315 316 317 319 319 321 324 329 339 339 351 357 358 356 352 353 354 348 348 348 349 354 353 351 350 346 346 342 343 343 338 340 337 338 338 339
304 306 308 309 309 309 309 307 307 308 312 313 313 314 314 315 318 320 321 323 329 332 348 348 354 360 357 362 363 355 349 348 347 349 349 350 351 352 349 344 345 344 340 339 338 340 339 342 342
307 307 307 308 308 308 306 306 307 308 311 311 312 311 312 314 316 318 323 327 333 338 349 350 350 346 358 358 365 368 356 352 349 349 348 351 354 350 349 350 346 344 339 341 339 343 343 341 340
307 303 305 306 306 305 307 303 304 309 311 310 311 312 313 314 315 316 322 331 335 333 353 346 349 332 335 361 363 363 363 355 353 349 351 351 352 354 351 347 350 347 350 349 346 346 347 345 344
304 303 298 305 306 307 305 298 306 310 310 309 309 311 312 314 315 319 323 329 345 336 342 352 346 349 356 362 361 360 358 360 353 357 355 353 351 353 355 349 345 347 351 348 345 342 341 339 339
303 296 298 301 307 306 305 300 306 310 310 309 310 311 311 313 317 321 324 330 338 336 339 340 345 343 358 362 362 362 362 360 359 355 355 357 354 352 354 348 346 348 346 345 343 344 339 337 338
296 298 299 299 304 305 302 301 305 308 309 309 310 311 312 313 315 322 323 326 329 331 334 337 339 343 350 352 362 360 359 359 361 358 354 358 356 354 352 351 349 348 344 342 343 341 342 340 339
301 300 299 303 306 303 302 303 304 308 308 308 309 311 313 314 318 321 325 327 330 332 335 339 341 346 346 345 347 355 351 354 356 357 361 355 355 356 354 353 351 355 346 343 343 341 344 341 344
302 299 298 302 305 303 302 302 305 307 308 309 309 311 313 315 316 319 324 330 329 329 333 340 344 346 347 347 346 343 350 352 352 356 357 355 357 356 357 355 351 352 351 349 348 345 340 344 341
301 299 299 298 302 304 302 299 302 306 309 310 311 313 314 314 315 319 322 326 327 331 334 336 342 345 345 346 342 342 352 353 346 351 356 357 356 356 356 356 353 351 350 345 347 348 343 337 340
296 303 302 300 298 293 302 292 301 305 307 309 311 312 312 314 316 319 321 323 326 326 332 333 338 341 337 343 340 342 339 336 343 345 349 352 355 354 356 355 355 351 351 345 347 347 345 340 334
299 303 301 301 298 297 297 294 298 304 303 307 311 312 314 315 316 316 317 320 321 325 329 333 336 339 339 343 345 338 336 334 338 340 342 347 353 353 354 354 353 354 352 351 349 348 346 342 337
304 301 300 300 297 291 296 295 296 301 305 308 311 312 313 314 315 315 317 319 321 322 324 330 333 334 339 337 339 341 339 337 335 336 337 339 345 350 351 350 353 353 353 351 349 349 347 343 339
301 298 289 288 290 289 299 296 300 307 309 309 310 311 313 314 314 314 314 314 320 321 323 325 327 328 333 333 333 336 338 340 337 336 335 335 337 342 346 348 350 352 352 352 350 347 345 344 342
299 298 291 285 288 291 299 294 299 309 311 311 312 312 313 313 313 313 313 316 315 318 324 323 323 325 328 330 331 336 339 333 333 334 335 335 334 334 339 344 347 348 349 349 350 346 348 346 344
299 296 301 294 295 292 295 299 305 308 309 310 310 311 311 311 313 312 313 316 318 319 324 325 324 325 327 329 330 335 331 335 334 336 336 334 337 340 337 341 345 339 326 337 347 345 344 343 344
302 302 292 294 286 286 292 295 296 303 305 307 308 310 311 313 312 312 313 316 317 318 323 325 325 323 323 325 327 328 329 328 332 333 334 335 337 338 341 343 343 340 338 339 346 345 342 339 338
299 297 298 297 294 287 287 292 307 304 306 306 308 310 311 312 311 311 312 313 314 317 315 322 322 321 322 322 325 325 325 327 328 332 331 331 330 335 338 340 343 342 341 341 339 338 335 334 332
303 300 299 292 291 295 293 292 307 308 307 309 308 310 311 312 311 310 310 312 313 314 314 315 322 319 319 320 321 323 324 327 327 327 327 325 323 322 319 323 336 340 339 337 330 330 334 333 331

GFSSGP_sfc_thetae_105.txt.gz
Theta_e
329 319 318 313 301 301 299 304 312 311 312 314 319 317 328 331 330 321 346 353 356 358 362 363 364 364 364 363 362 361 361 361 361 362 362 362 362 363 362 361 360 359 356 354 352 352 353 354 354
320 318 314 308 297 294 300 309 312 312 313 316 317 319 329 328 337 338 343 354 356 358 359 361 364 363 363 363 362 361 361 361 361 361 361 362 362 362 362 361 360 357 353 352 351 352 353 354 354
320 317 305 300 297 297 299 312 316 317 317 316 314 322 327 331 338 337 348 353 355 354 358 362 364 363 363 363 361 361 361 361 361 361 362 362 361 361 360 360 359 356 351 350 351 352 354 355 354
311 308 305 297 296 302 307 312 318 321 316 317 317 321 331 341 342 343 350 352 352 351 359 364 364 363 363 363 362 361 361 361 361 362 362 362 361 360 360 359 357 356 352 349 350 353 354 355 354
308 303 295 294 298 306 311 314 320 318 317 314 316 324 327 340 344 344 349 350 348 353 358 362 363 364 364 364 362 361 361 361 361 362 362 361 360 360 359 358 357 355 353 351 349 351 350 349 348
299 301 291 291 298 306 311 313 317 315 316 316 315 324 326 338 339 341 344 348 349 356 357 359 363 363 363 363 362 361 360 360 361 361 361 361 360 359 358 358 356 355 352 350 349 347 346 345 344
298 295 292 295 298 302 306 312 313 314 315 314 316 317 318 324 336 340 341 347 355 356 354 356 359 362 363 362 362 361 361 360 360 359 359 360 359 358 358 357 356 354 351 350 348 346 345 343 342
300 296 292 294 296 297 307 308 312 312 313 319 320 311 309 319 324 339 339 352 353 355 353 352 355 358 357 359 362 361 361 360 360 359 359 359 358 357 357 354 355 354 352 351 350 348 346 344 343
302 291 290 294 297 299 306 304 308 316 314 315 315 315 318 321 321 320 330 340 351 353 351 350 351 352 353 356 360 361 362 361 360 359 359 356 353 353 354 353 355 354 353 352 351 349 347 346 346
296 292 294 301 303 301 305 303 304 307 309 310 313 317 318 318 315 314 316 333 337 347 348 347 348 349 348 356 355 355 357 357 356 357 355 352 348 349 351 351 354 354 353 352 351 350 349 348 336
297 295 301 303 305 304 302 303 305 304 302 308 310 312 313 314 314 315 315 317 333 346 347 345 346 347 345 345 354 353 354 354 354 353 353 350 349 349 348 344 347 346 350 344 346 344 342 337 334
295 301 303 304 306 304 302 306 304 304 304 309 309 310 311 309 309 312 313 315 315 322 345 345 346 345 343 344 350 349 350 351 352 352 353 350 346 342 345 342 341 342 343 338 338 337 336 334 331
297 300 304 305 304 302 305 304 303 302 308 310 309 310 308 308 309 309 311 313 313 322 343 346 347 345 344 346 347 346 344 346 346 348 350 351 347 343 341 341 338 339 339 336 333 333 333 333 331
300 302 302 303 302 302 301 302 303 305 308 308 308 307 306 307 309 309 311 312 317 338 339 346 347 349 350 351 350 348 344 344 343 344 345 348 348 344 344 338 337 338 337 336 330 333 332 332 334
301 297 300 301 301 300 303 298 299 304 307 305 307 308 308 308 309 308 309 312 317 325 339 340 342 346 345 344 350 355 353 345 342 342 343 345 346 345 344 340 340 340 337 335 333 330 333 334 333
298 295 289 297 301 303 300 293 302 306 304 304 306 307 308 308 309 310 311 313 314 321 336 342 338 335 333 330 346 353 353 353 347 344 344 345 344 347 346 343 340 341 340 337 335 332 336 334 333
294 289 292 296 302 302 300 294 302 305 304 304 304 305 306 306 308 309 312 317 320 321 321 326 334 329 330 341 350 352 352 351 352 346 347 346 345 345 347 344 341 340 338 339 336 334 335 332 331
290 291 294 295 299 300 297 296 301 303 304 304 304 305 306 307 308 310 311 315 317 319 322 324 326 331 336 343 350 352 350 351 351 351 348 349 346 345 345 345 343 342 340 338 337 333 332 330 331
297 295 293 296 301 298 294 296 299 302 300 301 302 304 305 306 309 312 314 314 318 321 321 320 321 326 330 331 329 345 346 349 351 353 351 350 350 346 345 345 344 343 339 338 337 334 331 331 331
297 294 293 297 301 297 296 296 299 301 301 302 302 303 304 306 308 311 312 316 317 317 321 325 324 322 325 328 331 333 335 343 349 352 352 354 351 350 346 344 344 341 342 339 336 337 334 333 334
296 294 294 295 299 298 296 293 296 301 302 303 304 304 305 306 306 308 314 314 316 316 318 322 321 325 323 327 328 327 329 332 337 341 346 350 352 350 350 347 346 346 341 342 340 338 335 331 333
292 299 298 298 294 287 295 286 293 298 300 303 304 304 304 306 308 313 312 312 312 312 315 321 323 322 324 323 324 322 323 323 327 329 334 340 350 351 348 350 349 347 345 344 345 342 339 335 331
296 301 297 297 292 289 291 286 290 297 297 300 302 305 305 305 310 309 310 311 311 311 314 318 318 317 316 325 326 325 323 324 326 328 329 330 333 341 349 349 345 339 338 342 344 341 342 340 335
302 298 296 294 289 284 289 288 288 294 297 300 305 307 308 308 308 308 309 310 309 311 311 315 314 317 318 317 319 320 321 325 325 325 326 328 329 332 339 330 328 334 331 336 341 342 342 341 338
296 290 283 282 283 283 293 291 292 298 306 306 305 306 308 307 306 306 306 306 308 307 310 311 312 312 315 317 318 319 319 321 324 326 327 326 326 327 326 336 337 335 335 338 340 337 337 341 338
295 293 285 279 280 284 294 287 294 305 307 308 309 307 308 306 305 305 306 306 306 308 310 311 311 311 313 314 315 318 322 323 323 324 325 326 328 330 331 330 336 334 330 331 332 326 323 330 339
296 293 297 289 289 284 288 294 300 305 306 307 308 308 306 304 304 304 305 306 306 307 309 311 310 313 313 315 316 317 319 319 317 321 326 327 329 330 330 331 329 335 337 330 330 326 322 331 331
298 300 291 290 281 279 287 289 291 298 302 305 305 305 305 304 304 304 305 306 306 306 309 310 312 311 312 312 313 317 318 318 319 320 322 323 321 320 320 318 318 327 325 325 328 327 327 324 332
295 294 294 292 290 281 278 285 299 301 302 302 303 305 306 306 304 304 304 304 305 306 306 308 310 311 311 312 312 313 312 313 317 321 321 320 318 318 318 317 316 315 317 322 317 317 319 322 332
297 294 296 289 287 288 284 287 302 303 301 302 302 305 306 306 305 305 304 303 303 305 305 306 309 310 310 311 312 312 312 314 315 315 317 319 318 317 316 316 315 316 316 316 317 323 323 328 324

GFSSGP_sfc_thetae_108.txt.gz
Theta_e
328 316 313 311 300 298 294 301 309 309 308 311 319 330 327 329 327 319 344 350 358 358 360 362 363 363 363 362 361 361 360 360 360 361 361 361 361 361 361 360 360 359 356 353 352 353 353 354 353
324 316 311 305 296 291 295 304 306 310 311 314 328 330 328 325 337 342 345 355 358 359 359 359 363 362 362 361 360 360 360 360 360 361 361 361 361 361 360 359 359 356 353 351 352 353 354 354 353
314 315 303 298 294 292 295 304 309 314 318 314 315 327 329 328 341 342 350 355 358 357 358 359 362 362 362 361 360 360 360 360 360 361 361 361 361 360 360 360 358 354 351 351 352 353 353 354 353
308 305 302 295 294 301 302 305 309 311 319 315 322 323 333 343 339 346 354 355 354 355 358 363 362 361 362 361 360 360 360 360 360 361 360 360 359 359 359 358 357 355 351 350 351 353 354 353 352
303 299 293 291 295 301 305 307 309 315 312 312 324 324 329 340 347 351 351 351 352 354 358 361 363 362 362 361 361 360 360 359 360 360 360 360 359 359 358 358 356 354 351 350 350 351 353 353 351
297 297 290 289 294 303 306 306 308 315 313 313 325 325 326 343 344 347 350 348 354 354 357 360 363 362 361 361 360 360 360 359 359 360 360 359 359 358 358 357 356 354 352 351 349 350 349 347 345
296 292 290 293 296 298 304 305 304 306 313 312 324 318 319 329 343 347 347 347 354 355 354 357 359 361 363 361 360 359 359 359 359 359 358 358 358 358 357 356 355 354 351 351 349 348 346 345 343
299 294 289 292 295 296 304 304 301 306 310 320 320 311 310 317 336 342 345 349 352 353 352 354 356 358 358 359 361 360 359 359 358 358 358 358 357 357 356 354 354 354 351 350 349 348 346 345 343
299 290 287 292 296 298 303 301 307 308 311 312 315 316 318 322 321 342 346 348 350 351 350 353 355 356 357 357 360 360 361 360 359 358 358 355 353 353 353 353 354 354 352 350 350 349 347 346 345
294 288 291 299 300 299 303 299 303 304 304 308 311 316 317 317 314 318 340 343 346 346 347 349 351 352 354 358 357 357 358 358 356 356 355 352 349 349 351 351 354 354 353 351 350 349 348 347 335
294 291 297 301 303 301 300 301 303 302 300 304 305 308 309 311 311 311 319 341 346 348 347 347 349 351 351 353 354 355 356 356 355 354 353 351 348 348 349 346 347 346 351 343 345 344 341 337 333
290 297 299 301 303 302 301 303 302 301 303 307 307 309 308 306 306 308 309 314 325 345 346 345 346 346 347 351 352 352 353 353 352 353 352 349 346 344 345 344 341 340 340 337 336 336 336 336 333
292 297 299 302 302 301 302 301 302 302 306 307 307 309 306 306 306 306 307 308 311 334 344 343 344 344 344 346 349 349 349 351 351 351 351 351 347 344 344 341 339 340 337 337 333 332 332 331 330
297 298 299 300 300 299 299 301 301 304 307 306 305 304 305 306 306 307 305 307 325 336 340 342 343 343 340 344 344 344 345 348 348 350 351 351 349 346 342 340 339 338 337 338 335 331 330 328 329
298 294 297 298 299 298 301 297 298 304 305 304 304 304 305 305 305 305 306 307 311 337 342 343 344 346 347 348 348 345 343 342 343 344 348 350 349 345 343 340 339 337 336 335 333 329 329 329 330
295 293 288 295 299 301 299 293 300 303 303 302 303 304 307 306 307 308 308 310 321 336 338 341 347 342 345 340 335 349 349 344 342 341 342 343 346 347 343 341 340 339 337 335 332 328 325 329 330
291 287 290 295 299 298 296 294 300 303 302 301 303 303 304 305 306 307 311 319 323 330 336 334 334 338 336 332 335 346 349 348 345 341 340 341 341 343 345 343 342 339 337 333 332 330 327 326 329
288 288 291 291 296 296 295 295 300 301 300 300 301 302 303 304 304 306 311 317 319 326 332 330 332 330 329 331 335 346 348 347 347 347 345 342 343 342 341 343 343 338 337 336 334 333 330 327 328
293 291 291 295 298 295 293 294 296 299 297 299 300 300 302 303 306 307 308 315 316 318 320 323 325 327 327 327 326 332 342 343 345 348 348 346 346 344 341 340 340 339 337 337 336 333 330 329 327
294 291 291 294 298 296 293 293 296 297 298 299 300 301 301 302 304 306 308 314 316 316 317 321 323 322 324 324 327 328 328 331 336 343 349 350 346 346 343 340 339 338 338 337 335 333 333 333 331
294 291 292 292 297 296 293 291 293 298 299 301 301 301 302 303 304 305 313 313 316 318 318 316 319 319 321 323 321 320 321 322 324 326 331 339 341 345 347 344 341 339 339 339 337 333 333 332 331
292 297 296 295 291 286 293 284 289 294 297 299 300 300 300 303 304 309 312 311 311 314 319 321 319 322 320 319 318 318 318 316 318 322 327 327 331 336 341 342 345 342 341 340 339 339 335 334 330
293 298 296 295 289 286 289 284 288 293 294 296 299 301 303 303 307 310 311 309 310 312 318 316 317 316 315 323 321 320 319 319 320 321 321 322 325 330 333 335 338 340 338 332 333 336 331 333 334
299 295 292 290 287 281 286 286 285 290 293 296 301 304 306 304 308 309 308 307 307 312 312 311 312 314 314 314 316 315 314 314 318 320 320 323 322 323 326 331 328 331 326 328 330 330 328 331 332
295 288 281 280 280 280 290 287 288 295 301 302 303 303 303 304 305 305 304 304 306 307 308 311 309 310 312 313 313 314 313 314 317 319 320 320 322 323 324 326 329 327 328 327 324 324 325 330 334
291 288 282 277 278 281 291 285 291 301 305 306 305 303 303 302 302 303 304 304 304 307 307 309 308 309 310 311 312 315 315 317 318 315 316 320 321 323 323 325 325 328 334 333 328 327 328 328 326
295 289 292 286 286 281 286 291 298 304 303 305 304 304 303 302 303 304 305 304 305 306 307 308 308 308 312 313 313 312 314 316 314 316 318 320 321 322 319 318 317 321 326 329 329 329 329 327 325
297 299 289 287 279 277 284 287 290 297 298 301 301 302 304 304 302 301 302 303 303 304 307 308 308 310 310 311 310 311 314 315 314 313 318 317 317 317 317 316 315 314 319 323 324 323 324 323 322
293 291 292 291 289 281 277 284 296 298 299 299 302 303 302 304 303 302 302 302 303 303 304 306 308 309 308 309 309 309 311 311 311 314 317 316 316 316 316 315 314 314 313 315 317 317 318 318 320
294 291 292 286 283 287 280 283 300 298 297 299 299 304 305 307 305 305 304 302 301 302 304 304 308 307 309 310 309 309 310 310 310 313 313 314 315 315 315 315 314 314 314 313 312 314 318 318 317

GFSSGP_sfc_thetae_111.txt.gz
Theta_e
326 318 311 309 300 297 294 300 306 307 307 317 323 326 324 327 324 315 342 351 355 356 359 359 362 362 362 361 360 360 359 359 360 360 360 360 360 360 360 360 360 359 356 353 352 353 354 354 353
321 314 309 303 295 291 295 301 304 307 310 323 327 327 326 324 339 341 343 355 355 357 358 359 362 362 361 361 359 359 359 359 360 360 360 360 360 359 359 360 359 356 354 352 352 353 354 354 353
311 312 302 297 292 292 295 302 306 308 310 313 320 328 328 330 341 342 350 356 357 355 357 359 362 361 361 360 360 359 359 359 360 360 360 359 359 359 359 359 358 354 352 351 352 353 354 353 353
305 303 300 294 292 297 300 302 304 307 309 316 322 325 333 340 341 348 355 356 355 354 356 361 362 361 360 360 360 359 359 359 359 359 359 359 359 359 359 358 356 354 352 351 352 353 354 354 353
301 298 292 290 294 300 301 304 304 304 308 316 323 325 329 342 350 351 353 354 352 353 355 359 361 361 360 360 360 360 359 359 359 360 359 358 359 358 358 357 355 353 353 351 352 354 355 355 353
296 295 289 289 295 302 301 303 303 302 306 324 327 325 326 345 346 349 350 350 353 353 356 357 361 361 360 360 359 359 358 359 359 359 359 359 358 358 357 357 355 354 353 352 352 353 354 353 351
294 291 289 289 294 297 302 301 300 301 302 311 327 322 325 339 345 348 347 350 352 354 355 355 356 359 361 359 359 358 358 358 358 358 358 357 357 357 357 356 355 354 353 352 352 351 350 349 348
297 294 289 291 292 295 304 301 300 300 304 319 325 314 314 333 344 346 344 348 349 351 352 353 355 357 356 356 359 359 359 358 358 358 357 357 357 357 356 354 354 354 352 351 351 349 348 347 345
300 290 288 292 295 296 300 299 303 305 306 310 313 317 321 332 342 341 343 346 347 349 347 351 353 355 355 355 357 358 360 359 358 358 357 354 351 351 352 353 351 355 353 351 350 349 347 346 345
294 288 292 298 300 298 298 298 300 303 304 306 310 313 315 337 339 340 340 341 344 345 346 350 351 353 353 356 354 354 355 355 355 353 352 350 348 348 350 351 353 354 354 352 351 350 349 347 334
293 291 297 299 302 299 298 300 302 302 300 303 304 306 308 310 321 339 340 342 343 346 346 347 349 350 351 352 354 354 354 354 354 352 352 350 348 346 348 345 346 346 351 344 345 342 341 337 335
292 296 298 299 302 297 298 301 300 299 301 305 305 307 306 305 306 314 330 338 342 344 345 346 347 348 348 349 351 351 351 352 351 352 351 349 347 344 344 343 342 342 342 341 337 337 337 336 336
291 296 298 300 299 297 300 299 299 300 304 305 305 306 304 304 304 305 310 315 333 343 345 344 346 346 347 348 349 350 350 351 351 351 351 349 345 342 343 342 341 340 341 339 337 335 334 332 332
296 296 298 298 297 297 298 299 299 302 306 305 303 303 303 303 304 303 304 307 309 327 343 344 344 345 345 346 346 347 348 349 349 350 350 350 346 344 342 342 341 339 338 338 337 331 331 328 327
296 293 295 296 298 297 299 296 297 303 304 303 302 302 302 303 304 305 305 305 322 324 329 341 342 344 341 343 345 344 345 345 346 347 348 349 348 344 343 340 340 340 337 334 333 331 329 326 326
293 292 287 295 297 299 299 292 299 303 301 300 301 302 303 303 304 305 305 304 317 333 337 337 343 341 340 341 342 345 343 341 342 342 343 347 349 348 344 341 339 338 335 333 332 331 328 327 327
290 286 289 293 298 297 295 291 299 301 300 299 300 301 302 301 304 305 306 307 323 335 336 338 340 341 342 336 337 344 348 344 341 340 339 339 341 345 345 342 340 338 334 332 332 331 329 326 324
287 287 290 291 295 295 293 293 297 300 298 299 300 300 301 302 304 306 308 315 325 334 334 334 338 338 337 332 333 336 341 345 346 343 340 339 339 340 338 341 338 337 334 334 332 331 328 328 326
292 290 290 293 296 294 292 292 295 298 295 296 297 298 300 301 304 304 310 316 322 330 331 330 330 329 330 329 327 329 335 340 341 344 345 346 342 341 338 338 338 337 335 335 335 334 330 327 326
292 289 289 293 295 293 292 292 295 296 295 296 298 299 299 299 302 304 308 312 317 321 320 323 325 325 327 326 325 326 326 328 330 333 334 340 339 340 341 337 337 336 336 335 336 331 330 331 329
291 289 289 291 295 294 291 289 292 296 297 299 298 298 299 300 301 301 306 311 313 316 319 322 322 321 320 321 320 317 317 316 315 319 322 328 331 333 337 338 338 337 336 337 338 336 331 330 330
288 295 295 293 289 284 291 282 288 293 294 296 298 297 298 300 301 302 308 311 314 316 317 316 317 318 319 317 315 314 313 311 314 317 321 321 326 329 331 330 333 336 337 337 338 337 334 332 331
292 296 294 293 288 285 286 283 287 291 292 294 297 299 300 300 300 303 310 313 315 316 315 316 316 316 315 316 316 316 315 316 317 317 317 319 322 325 328 328 329 327 332 337 337 337 333 333 329
298 293 290 287 285 280 285 285 284 289 292 294 298 303 303 303 302 305 309 310 310 314 314 313 311 311 317 316 316 315 312 311 312 314 318 318 320 321 324 327 326 326 324 327 330 330 331 332 329
292 286 280 279 279 279 287 284 286 292 297 300 301 301 300 301 302 302 302 305 309 309 308 309 310 309 310 312 312 312 311 311 313 316 316 316 319 320 319 320 320 321 324 327 324 322 320 323 325
289 287 281 277 277 280 289 283 288 299 302 303 302 300 301 301 301 302 303 305 306 307 307 309 307 308 309 309 309 310 312 315 315 314 315 318 319 320 318 318 316 317 320 321 324 324 324 322 323
293 286 289 284 284 281 284 289 295 300 300 302 301 302 301 300 301 302 302 303 304 306 306 307 306 307 308 309 309 312 311 314 314 313 315 318 319 320 317 316 314 314 315 316 317 321 325 327 328
297 298 288 285 279 277 282 285 287 295 297 300 299 300 300 301 301 301 301 301 303 304 305 305 306 307 309 310 310 311 310 313 313 312 311 316 317 317 316 315 313 313 313 313 313 312 316 319 322
292 289 290 289 285 279 276 283 294 297 296 297 298 299 300 301 301 302 302 302 302 302 304 307 307 307 308 308 308 308 309 312 312 310 310 314 314 315 314 314 313 312 312 311 310 311 313 314 315
292 290 290 285 284 283 280 282 296 296 296 297 298 301 301 305 306 304 305 304 303 302 302 302 302 305 306 307 307 307 307 309 308 308 310 313 313 314 315 314 313 313 313 311 310 311 313 312 313

GFSSGP_sfc_thetae_114.txt.gz
Theta_e
327 315 310 308 300 297 294 299 304 305 307 318 326 323 322 326 321 313 341 349 354 354 358 358 362 362 362 361 361 360 359 360 360 361 361 361 361 361 361 361 360 359 356 353 352 353 354 354 354
314 312 307 302 296 291 295 301 302 305 308 310 322 325 325 323 338 339 341 353 354 356 357 357 362 362 361 360 360 359 359 359 359 360 360 360 360 360 359 360 359 357 354 352 353 354 355 354 353
307 309 301 297 291 293 296 301 303 305 307 308 318 327 327 328 341 341 347 353 355 355 357 358 362 361 361 360 359 358 359 359 359 359 359 359 360 359 359 359 359 356 353 351 353 354 355 355 354
303 302 299 294 291 296 299 301 302 304 305 311 321 324 332 340 342 345 354 355 353 354 356 360 361 361 360 359 359 358 358 359 359 359 359 359 358 358 358 358 357 355 352 351 353 355 356 356 355
300 297 292 290 293 299 301 303 303 301 302 309 323 324 326 342 349 353 353 353 351 352 355 359 361 360 360 360 360 358 358 358 359 359 359 359 359 358 358 357 356 354 354 352 353 354 356 355 355
295 295 289 288 294 301 303 302 300 299 301 321 324 325 326 345 347 351 353 351 352 351 355 356 359 359 359 360 359 358 357 357 358 359 359 359 359 358 358 357 355 355 354 354 354 355 355 354 353
293 291 288 290 295 295 302 300 298 298 300 309 327 321 325 339 345 350 349 350 351 353 353 353 355 358 359 359 358 358 357 357 357 357 357 357 357 357 357 356 355 355 354 353 354 354 354 353 352
296 293 289 291 292 294 302 300 297 299 302 313 325 317 320 334 345 344 346 347 348 351 352 352 353 354 354 355 359 358 357 357 357 357 357 357 356 356 356 354 354 354 353 352 352 352 351 350 349
297 289 288 291 293 296 300 299 302 303 302 308 312 316 321 342 342 340 343 344 345 348 347 350 351 352 352 352 356 358 358 358 358 357 357 354 352 352 353 353 352 355 354 352 351 350 348 347 346
296 289 291 297 297 296 298 300 300 301 302 304 309 311 338 341 339 337 339 340 342 343 346 348 350 351 350 353 351 352 353 355 354 354 353 351 349 348 351 352 354 352 354 353 351 351 349 347 340
294 291 297 299 298 298 297 298 301 300 298 301 303 305 316 332 336 337 338 340 341 343 345 348 348 351 352 351 352 352 352 353 352 351 351 350 349 349 350 348 349 349 350 348 346 345 343 341 339
292 296 298 299 301 300 297 299 299 301 302 304 305 306 306 317 326 332 336 339 340 342 343 346 348 350 350 351 352 351 350 352 350 352 350 348 346 345 346 346 345 345 345 344 343 340 340 339 339
293 296 298 300 299 297 299 297 299 300 304 304 303 305 304 304 308 313 333 337 340 341 343 344 347 348 349 349 351 349 349 350 350 350 350 349 346 344 345 345 344 343 343 342 340 338 337 337 336
295 297 298 297 297 294 296 297 297 300 304 303 302 302 303 303 303 304 307 312 334 342 344 344 345 347 348 348 349 349 348 350 349 350 350 349 346 344 343 343 343 342 341 341 340 338 335 334 333
295 293 295 295 296 296 296 293 294 302 303 302 301 301 301 302 302 303 305 306 310 325 341 342 343 345 346 346 347 347 348 349 349 348 349 349 349 345 345 342 341 342 341 340 339 338 336 333 331
293 291 288 294 296 298 297 289 298 302 301 300 300 300 301 301 302 303 304 304 308 318 325 338 344 342 343 343 345 345 344 344 345 346 347 349 349 349 346 344 343 343 341 338 337 336 334 332 331
290 286 288 293 297 297 294 290 298 299 298 298 299 299 300 301 302 304 305 304 309 317 332 334 338 339 340 339 341 344 343 341 342 343 343 343 347 349 348 346 345 342 339 337 337 335 334 334 330
287 288 289 290 295 294 291 292 296 298 298 298 298 299 300 300 302 304 305 306 310 327 334 335 337 338 338 336 337 340 344 347 346 342 340 341 341 343 344 345 343 341 338 336 335 334 334 333 333
292 290 289 292 295 292 290 291 294 297 295 295 296 297 298 299 303 304 305 313 321 331 332 334 336 336 335 333 332 332 332 339 343 346 347 347 344 341 339 339 340 340 339 338 337 337 334 332 330
291 289 288 292 295 292 292 291 294 296 296 296 296 297 298 300 300 303 307 315 322 330 332 331 334 333 336 332 328 329 330 331 333 334 336 334 334 338 341 339 338 338 338 337 337 335 334 334 331
289 288 289 290 293 292 291 289 291 296 296 297 298 298 299 300 300 301 304 310 316 324 325 327 328 329 328 325 323 319 319 317 317 320 324 327 331 333 335 334 337 337 337 337 338 337 334 333 332
286 293 294 292 289 284 290 282 288 292 293 296 297 297 298 299 300 300 302 308 314 319 320 322 322 322 322 322 318 316 313 312 315 318 322 324 328 330 331 331 332 333 336 336 337 339 338 335 332
291 295 292 292 287 284 285 282 286 290 291 294 295 298 301 302 301 301 301 306 312 316 318 318 318 318 317 316 315 314 314 315 317 318 319 322 324 327 330 330 330 330 330 332 336 337 337 336 334
296 291 288 286 284 280 284 284 283 287 290 293 298 301 303 302 303 305 304 307 311 313 314 315 316 314 316 317 316 316 316 315 313 315 319 319 322 325 328 328 328 327 327 328 329 332 333 333 333
290 285 279 278 278 279 285 283 285 291 295 298 299 301 301 301 302 302 304 306 310 311 312 312 312 313 316 316 316 315 313 313 313 317 318 317 320 322 322 322 321 321 323 324 327 326 326 326 328
288 287 280 276 277 279 287 282 287 296 301 301 301 300 300 299 299 301 305 309 310 311 311 311 311 312 311 312 312 312 312 312 315 317 316 318 320 321 321 320 319 319 320 320 321 325 326 326 325
289 284 288 282 283 280 282 288 293 298 299 300 300 301 299 299 300 299 300 306 310 310 309 309 308 309 310 310 310 310 312 314 316 317 317 319 321 322 320 319 317 318 318 318 318 318 320 324 326
294 294 286 284 278 277 281 283 286 293 295 298 299 299 300 300 301 301 302 304 305 305 306 307 307 308 310 310 309 310 312 314 315 315 315 317 320 321 320 318 317 316 317 316 316 315 316 317 318
292 289 288 287 283 278 277 282 293 295 296 295 296 299 299 302 302 302 302 302 303 304 305 306 306 306 306 308 309 310 310 311 313 313 314 315 318 319 319 318 317 315 315 315 314 314 315 315 316
291 289 289 283 282 281 280 281 295 296 296 297 296 299 299 300 302 303 303 302 301 301 301 301 303 303 305 307 308 308 308 309 310 311 312 312 313 317 318 318 317 315 315 315 313 313 315 315 314

GFSSGP_sfc_thetae_117.txt.gz
Theta_e
330 317 318 316 309 310 307 308 311 312 312 322 318 328 327 331 325 323 349 355 356 358 362 359 362 363 363 362 362 362 362 362 362 362 362 361 362 362 362 361 361 359 356 353 353 354 354 354 355
321 316 317 313 307 305 308 310 309 312 314 314 320 332 331 329 340 343 346 355 357 359 360 358 362 362 362 361 360 360 361 361 361 361 361 361 361 361 360 360 359 357 355 352 353 354 355 354 354
312 314 311 308 306 306 308 310 312 313 312 312 317 333 332 331 343 344 350 356 357 359 359 360 361 361 361 360 360 360 360 360 361 361 361 361 361 360 360 360 360 357 353 352 354 355 356 354 353
310 312 310 304 304 306 311 311 311 310 311 315 321 328 337 345 344 348 355 356 355 357 358 361 361 361 361 361 360 359 359 359 360 360 360 360 360 359 359 359 358 356 353 353 354 356 356 356 354
310 309 303 301 303 305 308 310 310 308 309 312 330 328 333 345 353 356 355 355 353 356 358 359 361 361 361 360 359 359 359 358 359 360 359 359 359 359 359 358 357 356 355 354 354 356 357 357 356
304 305 300 299 301 305 308 311 309 307 309 311 327 331 334 349 352 355 355 355 355 356 358 357 360 360 360 360 359 358 357 358 358 358 358 359 359 358 358 357 356 355 355 355 354 355 355 355 354
302 302 299 299 301 302 306 309 307 307 308 312 332 329 334 345 352 355 355 355 356 357 358 357 356 359 360 359 358 357 357 357 358 358 358 359 358 358 358 357 355 354 354 353 353 353 353 353 352
305 304 297 299 298 301 306 307 309 307 308 318 332 327 328 343 353 354 354 353 354 356 356 355 356 353 355 357 359 358 357 357 357 357 357 358 357 357 356 355 354 352 351 350 350 350 350 351 350
304 302 298 297 298 301 306 305 308 310 308 314 319 321 329 349 350 350 349 350 351 352 355 355 352 354 353 353 356 357 357 357 357 357 357 354 351 352 353 353 352 353 352 350 348 348 348 348 347
304 301 302 303 303 302 304 305 306 307 308 313 316 337 344 346 346 344 344 344 346 348 352 354 354 353 353 350 355 355 354 354 354 354 356 353 354 353 351 352 353 352 353 353 351 350 349 345 337
299 298 303 302 303 305 305 304 307 306 306 310 314 332 342 344 343 342 341 342 343 348 351 353 356 356 353 350 353 354 353 355 356 357 358 357 354 354 353 352 351 352 352 349 349 347 344 341 340
297 300 300 302 304 305 303 305 304 305 308 310 311 316 339 342 343 342 342 343 345 347 350 353 356 357 356 353 353 353 352 354 354 355 358 356 353 354 353 352 352 353 350 349 349 345 346 345 344
297 299 300 303 303 304 304 302 303 305 309 311 311 311 318 338 343 345 347 347 347 346 349 352 355 356 357 357 355 355 354 354 355 356 356 356 353 353 353 353 353 353 352 351 349 348 346 344 343
300 301 301 301 302 303 300 302 303 306 309 309 310 311 312 315 324 331 334 347 349 350 349 351 354 357 357 357 358 356 357 356 356 356 354 353 354 355 353 352 352 352 352 352 351 350 349 346 344
300 296 298 299 300 300 301 298 299 305 309 308 309 311 311 312 313 315 319 333 347 351 354 353 353 356 357 357 358 356 356 356 355 355 354 353 352 354 356 353 352 353 354 354 352 351 350 347 346
296 297 292 300 300 301 301 295 303 307 305 307 309 309 310 312 313 315 317 321 325 338 349 355 353 353 355 356 356 355 355 356 355 354 354 354 355 355 356 354 352 353 352 351 350 349 347 346 345
297 292 293 296 300 301 300 297 303 305 306 307 308 309 310 312 314 316 317 318 322 326 334 345 354 353 354 355 354 355 356 355 354 355 355 356 356 356 356 353 354 356 352 351 348 348 347 345 345
292 293 295 294 298 298 298 298 302 305 305 307 308 309 309 310 312 318 318 318 320 323 333 343 346 352 353 352 352 353 353 353 353 352 352 353 353 352 353 353 354 353 351 350 350 348 348 345 344
297 295 294 297 299 298 298 300 302 305 304 306 307 308 309 310 314 314 315 318 319 324 334 341 346 350 349 347 347 348 348 351 352 355 356 355 355 352 352 351 351 351 349 350 350 347 345 344 346
297 295 294 297 299 299 299 299 303 304 305 306 306 307 307 309 311 312 315 321 322 328 338 343 347 349 348 347 348 347 347 349 351 351 347 346 345 347 347 348 345 346 345 347 347 345 343 342 345
296 295 294 294 297 299 297 296 299 303 303 305 307 307 308 309 311 313 313 319 325 330 338 343 347 349 349 348 340 340 340 338 333 337 335 337 339 341 343 341 342 344 344 340 344 343 339 338 341
293 298 297 296 294 291 296 289 296 300 302 303 306 306 310 312 313 314 314 316 322 327 336 343 345 347 344 341 339 341 336 330 328 329 332 334 337 338 340 340 341 342 342 342 340 339 340 339 335
295 299 298 297 294 293 293 291 295 297 299 302 305 307 311 314 313 314 315 317 318 323 331 338 341 341 341 340 339 336 332 328 328 329 333 336 338 338 338 340 341 341 339 341 342 341 341 341 338
300 297 295 294 294 289 293 293 293 296 300 301 306 309 312 312 313 314 316 318 316 320 327 333 335 334 334 333 333 335 333 331 327 327 329 330 333 336 338 337 339 339 336 336 336 338 340 338 336
298 296 289 287 287 286 291 291 295 298 301 305 308 310 310 310 311 312 314 316 319 320 325 329 329 327 329 329 330 332 335 334 333 330 328 330 329 331 335 335 334 331 333 332 332 333 333 335 334
297 296 289 282 284 288 291 289 295 302 306 306 307 308 310 310 311 312 315 318 319 321 326 326 326 326 329 330 330 331 331 326 326 331 328 327 327 330 335 333 332 331 329 328 329 326 327 331 331
295 293 298 291 290 289 292 294 299 304 304 306 307 308 309 310 311 313 317 317 320 323 325 326 326 326 328 328 329 328 328 328 327 331 333 329 333 329 333 332 331 329 328 327 327 323 326 327 329
299 299 292 293 285 283 289 290 293 300 302 305 306 307 309 310 311 312 313 318 319 319 319 321 321 321 322 321 322 322 323 324 326 329 330 330 332 333 331 331 330 328 327 326 327 323 324 324 323
296 295 296 296 294 288 286 290 301 302 303 303 304 305 306 308 309 311 313 313 313 315 316 317 317 317 318 318 319 320 321 322 323 324 325 327 328 330 330 330 329 327 326 326 325 324 322 321 322
298 297 298 294 291 292 292 292 302 304 305 305 305 305 307 308 309 310 311 313 313 313 313 313 314 314 314 315 316 317 318 319 320 321 322 324 324 325 324 325 326 326 325 325 324 321 318 319 318

GFSSGP_sfc_thetae_120.txt.gz
Theta_e
332 323 323 321 313 316 312 314 319 317 317 322 322 329 329 332 330 327 355 352 352 358 364 362 364 364 364 365 365 364 363 362 362 362 362 362 362 362 362 362 362 360 356 355 355 354 355 356 354
323 319 321 318 311 309 311 317 316 318 318 319 327 334 332 332 343 347 349 355 356 360 363 359 363 363 363 363 363 363 363 363 363 362 362 362 362 362 361 361 360 358 355 353 354 355 355 354 355
319 318 315 313 312 310 311 318 318 320 318 319 324 336 335 334 344 344 352 356 356 360 360 361 363 363 362 362 362 362 362 362 362 362 362 362 362 361 361 360 359 357 354 353 354 355 355 354 355
317 317 316 308 310 316 317 319 319 319 317 320 323 330 340 346 344 348 354 354 355 356 359 361 362 362 362 361 361 361 362 361 362 362 362 361 361 361 360 360 358 356 353 353 355 355 354 353 353
316 316 309 309 311 317 319 321 319 318 316 317 327 328 335 348 354 353 353 352 352 355 358 360 361 362 361 361 361 360 361 361 361 361 361 361 360 360 360 359 357 355 352 353 354 355 354 353 353
309 311 307 307 311 316 318 321 319 318 317 316 327 329 337 353 354 352 354 352 352 355 358 359 361 361 361 360 360 359 359 359 360 360 360 360 359 359 358 357 356 354 352 352 353 354 354 353 353
308 305 306 311 312 312 316 320 317 318 317 317 332 327 339 348 356 355 355 354 353 357 357 357 357 360 360 360 359 358 358 358 358 359 359 359 358 358 357 356 354 352 352 351 352 353 352 351 351
312 308 305 307 307 310 314 313 316 315 317 323 330 326 330 349 358 357 357 354 353 355 355 355 354 353 355 356 359 358 358 358 358 358 358 358 358 357 357 356 354 352 351 351 351 351 350 350 350
313 306 304 305 306 308 313 312 315 315 314 320 329 329 339 354 357 354 353 351 349 351 354 354 351 352 352 353 355 357 357 358 358 357 358 355 351 355 356 354 354 353 351 350 349 349 349 347 348
310 307 308 311 309 306 309 309 312 312 313 319 324 337 343 351 352 349 348 346 347 348 351 353 353 353 352 350 356 354 352 352 351 351 355 350 349 350 348 353 353 353 353 352 352 351 350 346 334
307 307 312 312 308 312 310 310 311 311 312 316 320 331 343 347 349 346 345 345 346 348 350 353 357 357 354 351 353 352 352 352 354 356 357 355 353 354 350 349 351 351 352 347 349 347 344 340 338
307 310 310 306 310 311 308 311 309 309 317 316 315 320 344 345 345 343 344 345 345 347 349 353 358 359 358 353 352 354 353 354 355 357 361 358 356 356 355 352 352 354 351 350 349 344 345 344 344
307 306 303 307 308 311 312 310 309 309 313 316 316 315 331 345 344 346 347 348 349 348 351 353 357 361 360 358 354 355 355 355 357 358 360 358 356 356 356 356 355 355 355 354 354 353 352 350 349
308 307 307 307 308 308 309 307 311 311 314 314 315 315 317 332 341 347 349 350 351 353 353 354 356 361 361 360 360 357 358 357 358 358 359 362 359 358 356 356 356 355 355 355 354 354 354 354 354
311 308 311 308 307 308 311 306 305 311 312 312 314 316 315 317 323 329 337 343 347 351 356 356 357 361 363 362 362 361 359 358 358 357 362 361 361 361 361 356 355 355 357 358 356 355 355 353 351
307 306 303 308 309 309 307 301 310 313 311 310 313 314 315 317 318 320 322 327 336 342 348 356 354 357 361 362 361 360 359 359 358 358 359 360 360 360 361 355 356 357 358 357 354 352 351 351 350
302 298 298 299 303 303 304 302 309 313 310 310 312 314 314 316 318 321 322 324 329 337 344 351 358 357 359 363 361 362 363 360 359 359 357 359 358 358 358 356 358 361 358 356 355 354 354 351 350
295 296 298 294 301 300 299 299 304 310 309 309 310 314 316 315 317 320 324 325 326 330 336 342 350 358 361 361 362 359 358 359 359 357 357 359 359 359 360 358 359 359 355 354 353 355 353 351 350
299 297 297 299 302 301 299 298 302 307 309 309 311 312 314 315 318 321 323 325 326 330 334 341 346 354 357 354 353 353 353 355 356 356 357 358 359 359 360 356 357 359 355 355 356 354 352 349 350
299 297 297 300 302 302 301 300 303 306 308 310 311 312 313 315 317 320 321 324 325 329 333 339 345 353 356 352 353 353 355 355 356 354 359 361 360 360 358 357 353 353 346 351 351 351 348 345 347
299 298 298 297 302 302 301 299 302 306 308 309 311 313 314 315 316 318 320 323 328 329 333 337 344 352 356 356 356 355 356 355 352 354 352 351 349 348 347 345 341 343 342 334 343 344 344 336 338
296 301 300 299 298 294 302 292 299 304 305 308 310 311 313 316 318 320 321 323 327 329 333 338 346 353 355 358 353 354 349 346 346 347 344 340 340 339 341 340 339 341 336 340 338 339 341 340 335
299 303 301 300 298 298 298 295 299 304 301 305 309 311 315 317 319 320 323 325 326 327 330 338 347 352 355 355 353 350 352 347 344 340 341 341 341 339 336 338 339 339 335 337 340 339 341 337 334
304 301 300 300 299 292 297 296 297 300 302 305 309 311 315 317 319 320 323 325 326 327 327 334 343 348 352 351 352 351 351 345 337 335 332 331 333 336 339 337 338 338 336 336 334 337 338 338 336
302 299 292 290 291 290 299 296 299 304 305 307 309 311 314 317 318 320 322 324 326 327 326 332 339 343 348 349 349 347 344 341 337 335 330 333 329 331 337 339 338 333 336 333 334 335 334 333 332
299 299 293 286 289 292 298 292 299 306 309 311 312 314 315 316 318 321 323 326 325 326 326 329 336 339 342 343 343 341 340 333 331 337 328 328 327 330 337 338 336 335 333 333 334 329 328 331 329
299 297 302 295 297 293 296 299 304 309 308 310 311 313 314 316 317 318 324 325 328 331 332 333 335 335 333 332 334 335 336 333 331 332 337 330 334 328 333 336 336 335 333 333 334 327 328 329 330
302 304 295 296 289 287 293 294 298 303 306 310 310 312 313 314 316 317 318 323 326 328 329 330 329 330 330 330 333 332 332 331 332 333 334 335 335 335 334 334 335 335 334 332 334 331 330 329 326
299 299 299 300 297 291 289 295 305 306 309 309 310 310 311 312 313 315 317 319 320 322 323 325 324 323 324 326 327 328 327 327 329 329 330 332 334 334 333 333 333 333 333 333 333 332 328 326 330
304 300 301 295 294 297 296 296 309 310 310 311 309 310 311 313 313 314 316 318 319 320 320 320 321 321 321 321 322 323 323 324 326 327 328 329 329 330 330 329 329 330 330 332 331 329 327 325 326